     2              OBSERVATION DATA    GPS                 RINEX VERSION / TYPE
teqc 1998Mar9 19980312 00:58:21UTC                          PGM / RUN BY / DATE
                                                            COMMENT
Original Marker Name: unknown                               COMMENT
Campaign Name: Cholame 1989                                 COMMENT
4-Character Station Name: POSO                              COMMENT
6-Character Antenna Code: TI4100                            COMMENT
Vertical Measurement Point: PAE                             COMMENT
Vertical Offset to Rinex Ref. Point: 0.0000                 COMMENT
Radial Measurement Point: PAE                               COMMENT
Radial Offset to Rinex Ref. Point: 0.0842                   COMMENT
Antenna Height from Field Measurement: 1.1475 m             COMMENT
Original XYZ: -2607693.6651 -4496210.9781 3685423.3718      COMMENT
New XYZ position is based on association with SCEC monument COMMENT
E1F1C4X7+0011. Position of that monument is believed to be  COMMENT
valid to within 1 m horizontally; vertical accuracy         COMMENT
should be no worse than 3-times this value.                 COMMENT
                                                            COMMENT
Revised Rinex header created by UCSD GPS archive for        COMMENT
GSAC on 14-Apr-1999 (1999:104) 20:34:52 GMT                 COMMENT
For assistance contact dagnew@ucsd.edu or hjohnson@ucsd.edu COMMENT
                                                            COMMENT
POSO 1942                                                   MARKER NAME
unknown UCLA                                                OBSERVER / AGENCY
UN02 TI 4100 1.9                                            REC # / TYPE / VERS
UN02 TI 4100                                                ANT # / TYPE
 -2607680.0000 -4496184.0000  3685407.0000                  APPROX POSITION XYZ
        1.1444        0.0000        0.0000                  ANTENNA: DELTA H/E/N
     1     1     0                                          WAVELENGTH FACT L1/2
     4    P1    P2    L1    L2                              # / TYPES OF OBSERV
     0                                                      INTERVAL
  1989    11    12    10     9   59.000000                  TIME OF FIRST OBS
  1989    11    12    17     0   59.000000                  TIME OF LAST OBS
     0                                                      # OF SATELLITES
                                                            END OF HEADER
 89 11 12 10  9 59.0800000  0  3G 2G 6G11
  22649737.158    22649741.065      963989.584 8   -451364.243 9
  21867478.582    21867481.627     1466125.406 9  -2902505.548 9
  23760992.939    23760999.546      816485.517 9  -3170278.281 9
 89 11 12 10 10 29.0800000  0  3G 2G 6G11
  22664331.986    22664335.463     1040684.223 9   -391602.212 9
  21856881.392    21856884.595     1410435.817 9  -2945900.023 8
  23739995.649    23740001.832      706143.801 8  -3256258.828 9
 89 11 12 10 10 59.0800000  0  3G 2G 6G11
  22678943.071    22678947.134     1117469.114 9   -331769.841 9
  21846302.166    21846305.600     1354840.803 9  -2989220.817 9
  23719025.651    23719030.837      595944.067 9  -3342128.727 9
 89 11 12 10 11 29.0800000  0  3G 2G 6G11
  22693572.534    22693575.519     1194342.917 9   -271868.211 9
  21835740.611    21835743.793     1299341.523 9  -3032466.976 8
  23698083.357    23698087.732      485889.502 9  -3427885.509 8
 89 11 12 10 11 59.0800000  0  3G 2G 6G11
  22708216.426    22708221.051     1271304.369 9   -211898.276 9
  21825198.258    21825201.866     1243939.151 8  -3075637.644 7
  23677168.364    23677174.122      375983.029 9  -3513526.902 9
 89 11 12 10 12 29.0800000  0  3G 2G 6G11
  22722879.295    22722883.189     1348352.288 9   -151860.952 9
  21814673.354    21814677.200     1188634.851 9  -3118731.900 8
  23656281.474    23656288.773      266227.193 9  -3599050.899 9
 89 11 12 10 12 59.0800000  0  3G 2G 6G11
  22737556.899    22737560.271     1425485.611 9    -91757.101 9
  21804168.811    21804172.249     1133429.870 9  -3161748.763 8
  23635426.494    23635432.096      156625.380 9  -3684454.890 8
 89 11 12 10 13 29.0800000  0  3G 2G 6G11
  22752250.686    22752254.535     1502702.997 9    -31587.741 9
  21793683.277    21793685.440     1078325.263 9  -3204687.416 8
  23614598.959    23614603.850       47180.480 9  -3769736.619 9
 89 11 12 10 13 59.0800000  0  3G 2G 6G11
  22766959.672    22766964.482     1580002.861 9     28645.886 9
  21783216.101    21783219.758     1023322.210 9  -3247546.915 9
  23593803.973    23593808.534      -62104.559 9  -3854893.764 9
 89 11 12 10 14 29.0800000  0  3G 2G 6G11
  22781685.631    22781689.421     1657384.763 9     88943.441 9
  21772769.134    21772772.561      968422.015 9  -3290326.283 8
  23573038.492    23573043.015     -171226.566 9  -3939923.880 9
 89 11 12 10 14 59.0800000  0  3G 2G 6G11
  22796426.105    22796430.493     1734847.436 9    149303.937 9
  21762342.043    21762344.309      913625.964 9  -3333024.495 8
  23552304.864    23552309.701     -280182.731 9  -4024824.766 9
 89 11 12 10 15 29.0800000  0  3G 2G 6G11
  22811181.603    22811185.989     1812389.817 9    209726.544 9
  21751934.186    21751937.407      858935.123 9  -3375640.724 8
  23531603.336    23531607.139     -388970.023 9  -4109594.069 9
 89 11 12 10 15 59.0800000  0  3G 2G 6G11
  22825952.582    22825957.563     1890010.799 9    270210.392 9
  21741547.284    21741550.509      804350.866 9  -3418173.906 9
  23510934.509    23510939.747     -497585.487 9  -4194229.487 8
 89 11 12 10 16 29.0800000  0  3G 2G 6G11
  22840738.432    22840743.314     1967709.352 9    330754.680 9
  21731180.477    21731184.125      749874.416 9  -3460623.073 9
  23490298.726    23490302.691     -606026.270 9  -4278728.793 9
 89 11 12 10 16 59.0800000  0  3G 2G 6G11
  22855538.692    22855542.436     2045484.041 9    391358.303 9
  21720835.131    21720837.925      695506.898 9  -3502987.363 9
  23469697.172    23469701.733     -714289.313 9  -4363089.577 9
 89 11 12 10 17 29.0800000  0  3G 2G 6G11
  22870353.106    22870357.086     2123334.601 9    452021.054 8
  21710510.021    21710512.759      641249.805 9  -3545265.601 9
  23449129.950    23449135.016     -822371.388 9  -4447309.370 9
 89 11 12 10 17 59.0800000  0  3G 2G 6G11
  22885181.841    22885185.623     2201259.351 9    512741.603 9
  21700206.601    21700209.393      587104.435 9  -3587456.792 9
  23428596.650    23428601.783     -930269.916 8  -4531386.116 9
 89 11 12 10 18 29.0800000  0  3G 2G 6G11
  22900024.880    22900028.460     2279257.590 9    573519.419 9
  21689924.262    21689928.530      533071.939 9  -3629560.027 8
  23408100.516    23408104.390    -1037982.130 9  -4615317.697 9
 89 11 12 10 18 59.0800000  0  3G 2G 6G11
  22914880.586    22914884.273     2357328.006 9    634353.477 9
  21679664.224    21679668.436      479153.671 9  -3671574.250 8
  23387639.430    23387644.749    -1145504.912 9  -4699101.672 9
 89 11 12 10 19 29.0800000  0  3G 2G 6G11
  22929750.409    22929754.676     2435469.632 9    695243.025 9
  21669425.286    21669429.183      425351.098 9  -3713498.321 9
  23367214.593    23367220.561    -1252835.213 9  -4782735.656 8
 89 11 12 10 19 59.0800000  0  3G 2G 6G11
  22944633.260    22944637.891     2513681.215 9    756187.092 9
  21659209.438    21659212.930      371665.502 9  -3755331.242 8
  23346827.181    23346833.268    -1359969.771 9  -4866217.103 9
 89 11 12 10 20 29.0800000  0  4G 2G 6G11G 9
  22959530.097    22959534.854     2591961.819 9    817184.935 9
  21649016.671    21649018.731      318097.986 9  -3797072.154 8
  23326479.068    23326484.057    -1466906.016 9  -4949544.037 9
                  24448059.049    -3700317.605 9
 89 11 12 10 20 59.0800000  0  4G 2G 6G11G 9
  22974439.465    22974443.138     2670310.540 9    878235.845 8
  21638845.107    21638848.993      264650.097 9  -3838719.854 8
  23306168.230    23306171.927    -1573640.751 9  -5032713.938 9
  24431828.793    24431831.468    -3785810.495 9   4876871.928 9
 89 11 12 10 21 29.0800000  0  4G 2G 6G11G 9
  22989361.770    22989365.954     2748726.676 9    939339.307 9
  21628698.574    21628700.801      211323.299 9  -3880273.186 8
  23285895.419    23285900.402    -1680170.983 9  -5115724.486 9
  24415553.680    24415557.091    -3871343.804 9   4810222.630 8
 89 11 12 10 21 59.0800000  0  4G 2G 6G11G 9
  23004297.042    23004300.377     2827208.921 9   1000494.283 9
  21618573.381    21618575.703      158119.060 9  -3921731.031 9
  23265663.440    23265668.404    -1786494.040 9  -5198573.606 9
  24399269.676    24399272.161    -3956917.658 8   4743541.744 9
 89 11 12 10 22 29.0800000  0  4G 2G 6G11G 9
  23019243.979    23019247.234     2905757.425 9   1061700.874 9
  21608473.162    21608477.306      105039.550 9  -3963091.694 9
  23245470.327    23245475.038    -1892605.794 9  -5281258.062 9
  24382977.430    24382980.498    -4042530.772 9   4676830.247 9
 89 11 12 10 22 59.0800000  0  4G 2G 6G11G 9
  23034202.796    23034206.955     2984370.597 9   1122957.851 9
  21598395.102    21598399.741       52085.731 9  -4004354.396 9
  23225318.749    23225324.149    -1998503.668 9  -5363775.864 9
  24366675.387    24366683.090    -4128182.685 8   4610088.545 9
 89 11 12 10 23 29.0800000  0  4G 2G 6G11G 9
  23049174.484    23049178.325     3063047.116 9   1184264.201 8
  21588343.539    21588345.446        -741.370 9  -4045518.368 9
  23205208.788    23205213.537    -2104185.388 9  -5446125.240 9
  24350371.351    24350374.117    -4213873.396 8   4543316.592 9
 89 11 12 10 23 59.0800000  0  4G 2G 6G11G 9
  23064158.440    23064162.893     3141786.385 9   1245619.438 8
  21578314.728    21578317.278      -53440.521 9  -4086582.636 8
  23185139.672    23185144.316    -2209647.820 9  -5528303.753 8
  24334057.393    24334059.740    -4299602.408 9   4476514.821 8
 89 11 12 10 24 29.0800000  0  4G 2G 6G11G 9
  23079154.130    23079158.109     3220586.807 9   1307022.336 9
  21568311.374    21568313.813     -106010.151 9  -4127545.973 8
  23165112.560    23165117.547    -2314888.364 9  -5610309.353 9
  24317736.682    24317738.995    -4385368.841 9   4409683.877 8
 89 11 12 10 24 59.0800000  0  4G 2G 6G11G 9
  23094160.499    23094164.220     3299447.457 9   1368472.154 9
  21558332.216    21558334.577     -158448.855 9  -4168407.303 9
  23145129.296    23145132.786    -2419904.058 9  -5692139.745 9
  24301408.663    24301411.862    -4471172.352 8   4342824.027 8
 89 11 12 10 25 29.0800000  0  4G 2G 6G11G 9
  23109178.070    23109182.713     3378367.831 9   1429968.511 8
  21548378.628    21548382.425     -210755.247 9  -4209165.531 9
  23125188.899    23125192.974    -2524692.015 9  -5773792.689 9
  24285073.937    24285077.734    -4557012.216 7   4275935.869 9
 89 11 12 10 25 59.0800000  0  4G 2G 6G11G 9
  23124207.493    23124211.615     3457346.555 9   1491510.324 9
  21538450.959    21538454.079     -262927.819 8  -4249819.469 8
  23105292.356    23105296.259    -2629249.179 9  -5855265.779 9
  24268733.755    24268736.260    -4642887.666 7   4209019.975 8
 89 11 12 10 26 29.0800000  0  4G 2G 6G11G 9
  23139247.942    23139251.375     3536382.713 9   1553096.902 9
  21528548.751    21528551.094     -314965.021 9  -4290367.928 8
  23085440.465    23085444.630    -2733572.405 9  -5936556.589 9
  24252384.330    24252387.765    -4728797.910 8   4142076.976 7
 89 11 12 10 26 59.0800000  0  4G 2G 6G11G 9
  23154298.506    23154302.133     3615476.064 9   1614728.056 9
  21518672.148    21518676.717     -366865.266 9  -4330809.676 8
  23065633.287    23065637.276    -2837658.812 9  -6017662.868 9
  24236029.525    24236033.832    -4814742.221 8   4075107.411 8
 89 11 12 10 27 29.0800000  0  4G 2G 6G11G 9
  23169360.194    23169363.559     3694624.893 9   1676402.432 8
  21508821.559    21508825.013     -418627.204 9  -4371143.649 8
  23045871.973    23045875.804    -2941505.489 9  -6098582.341 8
  24219667.498    24219670.669    -4900720.139 8   4008111.670 8
 89 11 12 10 27 59.0800000  0  4G 2G 6G11G 9
  23184432.005    23184436.820     3773828.789 9   1738119.714 9
  21498998.669    21499002.418     -470249.329 9  -4411368.667 8
  23026156.427    23026160.463    -3045109.538 9  -6179312.753 9
  24203301.865    24203304.679    -4986730.786 9   3941090.436 8
 89 11 12 10 28 29.0800000  0  4G 2G 6G11G 9
  23199514.547    23199519.048     3853086.837 9   1799879.193 9
  21489201.312    21489205.908     -521730.227 9  -4451483.647 8
  23006488.218    23006492.075    -3148468.440 9  -6259852.146 8
  24186925.719    24186931.729    -5072773.489 8   3874044.179 8
 89 11 12 10 28 59.0800000  0  4G 2G 6G11G 9
  23214607.491    23214611.799     3932398.599 9   1861680.516 9
  21479432.885    21479436.337     -573068.338 9  -4491487.363 9
  22986866.253    22986871.072    -3251579.087 9  -6340198.091 9
  24170549.278    24170551.052    -5158847.536 9   3806973.511 9
 89 11 12 10 29 29.0800000  0  4G 2G 6G11G 9
  23229709.498    23229713.886     4011762.558 9   1923522.515 9
  21469690.619    21469694.187     -624262.060 9  -4531378.563 8
  22967292.516    22967297.794    -3354438.643 9  -6420348.375 9
  24154162.486    24154165.262    -5244952.258 8   3739878.948 9
 89 11 12 10 29 59.0800000  0  4G 2G 6G11G 9
  23244821.219    23244825.482     4091177.824 9   1985404.507 9
  21459976.753    21459980.279     -675310.057 9  -4571156.214 8
  22947767.142    22947772.535    -3457044.403 9  -6500300.896 9
  24137771.745    24137774.622    -5331086.875 8   3672761.080 8
 89 11 12 10 30 29.0800000  0  4G 2G 6G11G 9
  23259943.660    23259947.928     4170643.528 9   2047325.787 9
  21450290.833    21450294.355     -726210.787 9  -4610819.114 8
  22928290.478    22928295.978    -3559393.380 9  -6580053.333 9
  24121376.436    24121378.959    -5417250.713 9   3605620.453 9
 89 11 12 10 30 59.0800000  0  4G 2G 6G11G 9
  23275075.112    23275079.308     4250158.895 9   2109285.769 9
  21440632.546    21440636.889     -776962.540 9  -4650365.924 8
  22908864.468    22908869.551    -3661482.464 9  -6659603.235 9
  24104973.551    24104977.901    -5503443.007 9   3538457.651 8
 89 11 12 10 31 29.0800000  0  4G 2G 6G11G 9
  23290216.163    23290219.808     4329722.789 9   2171283.578 9
  21431003.719    21431006.858     -827563.874 9  -4689795.521 9
  22889487.386    22889492.096    -3763309.002 9  -6738948.577 9
  24088565.896    24088571.225    -5589662.848 9   3471273.374 8
 89 11 12 10 31 59.0800000  0  4G 2G 6G11G 9
  23305364.495    23305369.637     4409335.339 9   2233319.285 9
  21421403.743    21421407.767     -878013.166 9  -4729106.661 9
  22870160.629    22870165.731    -3864869.973 9  -6818086.979 9
  24072155.476    24072158.786    -5675909.382 9   3404068.301 8
 89 11 12 10 32 29.0800000  0  4G 2G 6G11G 9
  23320524.054    23320529.010     4488995.300 9   2295391.940 9
  21411833.093    21411836.756     -928308.605 9  -4768297.907 8
  22850885.634    22850890.456    -3966162.537 9  -6897016.233 9
  24055737.023    24055740.023    -5762181.615 9   3336843.214 8
 89 11 12 10 32 59.0800000  0  4G 2G 6G11G 9
  23335691.054    23335695.983     4568701.286 9   2357500.476 8
  21402291.200    21402295.387     -978448.989 9  -4807368.327 8
  22831662.014    22831667.209    -4067184.137 9  -6975734.352 9
  24039316.157    24039317.802    -5848479.277 9   3269598.315 9
 89 11 12 10 33 29.0800000  0  4G 2G 6G11G 9
  23350868.622    23350871.374     4648453.105 9   2419644.713 8
  21392780.353    21392782.636    -1028432.578 9  -4846316.568 8
  22812490.250    22812495.197    -4167931.599 9  -7054238.836 9
  24022889.023    24022892.228    -5934801.161 9   3202334.530 9
 89 11 12 10 33 59.0800000  0  4G 2G 6G11G 9
  23366053.688    23366057.008     4728249.699 9   2481823.837 9
  21383298.739    21383302.652    -1078257.586 9  -4885141.239 9
  22793371.121    22793376.530    -4268402.151 9  -7132527.568 9
  24006459.237    24006461.731    -6021146.561 9   3135052.430 9
 89 11 12 10 34 29.0800000  0  4G 2G 6G11G 9
  23381245.651    23381250.766     4808090.436 9   2544037.368 9
  21373847.563    21373851.885    -1127922.522 9  -4923841.183 8
  22774305.767    22774310.528    -4368593.034 9  -7210598.360 9
  23990022.191    23990026.894    -6107514.528 9   3067752.740 8
 89 11 12 10 34 59.0800000  0  4G 2G 6G11G 9
  23396447.593    23396451.170     4887974.403 9   2606284.593 8
  21364428.051    21364430.550    -1177425.798 9  -4962415.165 9
  22755293.320    22755298.610    -4468501.461 9  -7288449.066 9
  23973582.475    23973588.361    -6193904.364 9   3000436.011 8
 89 11 12 10 35 29.0800000  0  4G 2G 6G11G 9
  23411656.756    23411661.453     4967900.493 9   2668564.622 9
  21355038.505    21355041.740    -1226765.822 9  -5000861.926 8
  22736335.388    22736339.560    -4568124.571 9  -7366077.460 9
  23957141.365    23957143.455    -6280314.989 9   2933103.080 9
 89 11 12 10 35 59.0800000  0  4G 2G 6G11G 9
  23426874.394    23426878.790     5047867.888 9   2730876.850 8
  21345681.125    21345684.708    -1275940.793 9  -5039180.092 9
  22717432.854    22717438.174    -4667459.670 9  -7443481.415 9
  23940692.664    23940694.733    -6366745.439 9   2865754.721 8
 89 11 12 10 36 29.0800000  0  4G 2G 6G11G 9
  23442099.436    23442103.668     5127876.278 9   2793221.033 9
  21336354.394    21336358.264    -1324949.200 9  -5077368.449 9
  22698585.387    22698590.520    -4766503.942 9  -7520658.742 9
  23924241.595    23924244.738    -6453195.108 9   2798391.371 8
 89 11 12 10 36 59.0800000  0  4G 2G 6G11G 9
  23457332.471    23457337.004     5207924.750 9   2855596.424 8
  21327060.247    21327063.760    -1373789.240 9  -5115425.623 9
  22679794.427    22679799.085    -4865254.267 9  -7597607.035 9
  23907787.159    23907790.665    -6539662.960 9   2731013.856 9
 89 11 12 10 37 29.0800000  0  4G 2G 6G11G 9
  23472572.562    23472577.168     5288012.869 9   2918002.707 9
  21317799.323    21317802.765    -1422459.297 9  -5153350.325 9
  22661058.395    22661064.205    -4963708.379 9  -7674324.506 9
  23891328.974    23891334.364    -6626147.855 9   2663623.062 8
 89 11 12 10 37 59.0800000  0  4G 2G 6G11G 9
  23487820.768    23487824.941     5368139.608 9   2980439.091 9
  21308570.383    21308573.511    -1470957.595 9  -5191141.219 9
  22642380.904    22642385.577    -5061862.840 9  -7750808.486 9
  23874867.889    23874872.626    -6712649.082 9   2596219.527 8
 89 11 12 10 38 29.0800000  0  4G 2G 6G11G 9
  23503074.988    23503079.086     5448304.169 9   3042904.950 9
  21299374.642    21299378.393    -1519282.411 9  -5228796.918 8
  22623760.371    22623764.498    -5159715.237 9  -7827057.087 9
  23858405.183    23858408.994    -6799165.549 9   2528804.131 8
 89 11 12 10 38 59.0800000  0  4G 2G 6G11G 9
  23518336.466    23518340.880     5528505.752 8   3105399.642 8
  21290211.022    21290215.019    -1567432.314 9  -5266316.312 9
  22605196.817    22605203.002    -5257262.783 9  -7903068.146 8
  23841939.051    23841943.330    -6885696.339 9   2461377.561 8
 89 11 12 10 39 29.0800000  0  4G 2G 6G11G 9
  23533605.662    23533609.121     5608743.381 8   3167922.437 9
  21281082.741    21281086.268    -1615405.562 9  -5303698.050 9
  22586693.372    22586697.126    -5354502.898 9  -7978839.648 9
  23825469.343    23825473.794    -6972240.879 9   2393940.289 8
 89 11 12 10 39 59.0800000  0  4G 2G 6G11G 9
  23548881.199    23548884.856     5689016.633 9   3230472.978 9
  21271987.482    21271990.922    -1663200.350 9  -5340940.734 8
  22568247.990    22568253.257    -5451432.497 9  -8054369.201 9
  23808999.244    23809002.372    -7058797.834 9   2326493.340 9
 89 11 12 10 40 29.0800000  0  4G 2G 6G11G 9
  23564163.105    23564168.270     5769325.449 8   3293051.243 9
  21262926.791    21262930.223    -1710814.921 9  -5378042.996 8
  22549862.803    22549868.389    -5548049.124 9  -8129654.866 9
  23792525.157    23792531.081    -7145366.204 9   2259037.491 8
 89 11 12 10 40 59.0800000  0  4G 2G 6G11G 9
  23579452.514    23579456.715     5849668.472 9   3355656.148 9
  21253900.038    21253904.393    -1758247.711 9  -5415003.609 9
  22531537.020    22531542.380    -5644350.086 9  -8204694.568 9
  23776050.173    23776054.208    -7231945.104 9   2191573.428 8
 89 11 12 10 41 29.0800000  0  4G 2G 6G11G 9
  23594748.550    23594751.433     5930045.003 9   3418287.168 9
  21244908.874    21244912.522    -1805496.818 9  -5451821.082 9
  22513271.990    22513277.004    -5740332.373 9  -8279485.931 9
  23759572.947    23759576.724    -7318533.543 9   2124101.952 8
 89 11 12 10 41 59.0800000  0  4G 2G 6G11G 9
  23610049.046    23610053.403     6010454.681 9   3480944.033 9
  21235953.440    21235956.778    -1852560.456 9  -5488494.037 8
  22495068.677    22495073.247    -5835993.450 9  -8354027.014 9
  23743094.873    23743098.703    -7405130.339 8   2056623.953 9
 89 11 12 10 42 29.0800000  0  4G 2G 6G11G 9
  23625356.431    23625361.409     6090896.220 9   3543625.712 8
  21227032.257    21227036.116    -1899437.096 9  -5525021.294 9
  22476926.426    22476931.945    -5931330.577 9  -8428315.677 8
  23726614.193    23726617.509    -7491734.779 8   1989139.995 9
 89 11 12 10 42 59.0800000  0  4G 2G 6G11G 9
  23640669.764    23640673.437     6171369.325 9   3606331.989 9
  21218149.331    21218151.390    -1946124.859 9  -5561401.372 8
  22458846.168    22458851.823    -6026340.923 9  -8502349.704 8
  23710132.246    23710135.742    -7578345.593 9   1921651.082 8
 89 11 12 10 43 29.0800000  0  4G 2G 6G11G 9
  23655988.973    23655993.030     6251873.138 9   3669062.210 8
  21209300.940    21209303.170    -1992621.875 9  -5597632.813 8
  22440829.385    22440834.115    -6121022.026 9  -8576127.158 9
  23693649.803    23693654.062    -7664961.582 8   1854158.122 8
 89 11 12 10 43 59.0800000  0  4G 2G 6G11G 9
  23671314.056    23671318.849     6332407.405 9   3731816.147 9
  21200489.459    21200491.735    -2038926.457 8  -5633714.294 9
  22422875.448    22422879.964    -6215371.067 9  -8649645.875 9
  23677166.061    23677170.416    -7751581.771 8   1786661.904 9
 89 11 12 10 44 29.0800000  0  4G 2G 6G11G 9
  23686645.465    23686650.067     6412971.594 9   3794593.404 9
  21191715.104    21191717.429    -2085036.845 8  -5669644.464 8
  22404985.297    22404989.707    -6309385.411 9  -8722903.792 9
  23660682.845    23660685.706    -7838205.119 9   1719163.215 8
 89 11 12 10 44 59.0800000  0  4G 2G 6G11G 9
  23701981.959    23701986.236     6493564.652 9   3857393.137 9
  21182977.026    21182979.830    -2130951.143 9  -5705421.828 8
  22387158.619    22387163.997    -6403062.451 9  -8795898.875 9
  23644198.035    23644202.261    -7924830.593 8   1651662.859 8
 89 11 12 10 45 29.0800000  0  4G 2G 6G11G 9
  23717323.105    23717328.129     6574185.784 9   3920214.745 9
  21174277.268    21174281.364    -2176667.667 9  -5741045.096 8
  22369397.405    22369402.080    -6496399.546 9  -8868629.059 9
  23627712.454    23627717.705    -8011457.004 9   1584161.775 9
 89 11 12 10 45 59.0800000  0  4G 2G 6G11G 9
  23732670.503    23732674.777     6654834.952 9   3983058.217 9
  21165616.344    21165618.269    -2222184.556 9  -5776512.798 8
  22351701.153    22351705.778    -6589394.016 9  -8941092.263 9
  23611229.609    23611234.160    -8098083.158 9   1516660.904 8
 89 11 12 10 46 29.0800000  0  4G 2G 6G11G 9
  23748023.739    23748027.264     6735511.198 8   4045922.773 9
  21156991.580    21156996.355    -2267499.958 9  -5811823.500 9
  22334070.976    22334074.866    -6682043.305 9  -9013286.498 9
  23594745.314    23594749.412    -8184708.033 9   1449161.028 8
 89 11 12 10 46 59.0800000  0  4G 2G 6G11G 9
  23763379.223    23763383.912     6816213.669 9   4108807.763 9
  21148407.799    21148411.213    -2312612.197 9  -5846975.890 7
  22316507.079    22316510.135    -6774344.721 9  -9085209.664 9
  23578261.574    23578265.442    -8271330.430 9   1381663.085 9
 89 11 12 10 47 29.0800000  0  4G 2G 6G11G 9
  23778742.860    23778746.346     6896941.958 9   4171712.891 9
  21139862.083    21139865.247    -2357519.393 9  -5881968.493 9
  22299008.902    22299013.719    -6866295.531 9  -9156859.629 9
  23561778.844    23561781.519    -8357949.324 9   1314167.869 9
 89 11 12 10 47 59.0800000  0  4G 2G 6G11G 9
  23794108.222    23794113.006     6977695.563 9   4234637.746 9
  21131356.715    21131360.926    -2402219.632 9  -5916799.846 9
  22281578.579    22281583.003    -6957893.141 9  -9228234.369 9
  23545296.734    23545300.850    -8444563.570 9   1246676.272 8
 89 11 12 10 48 29.0800000  0  4G 2G 6G11G 9
  23809481.388    23809485.032     7058473.577 9   4297581.607 9
  21122889.651    21122893.728    -2446711.220 9  -5951468.608 9
  22264216.023    22264219.969    -7049135.283 9  -9299332.127 9
  23528815.378    23528819.470    -8531171.896 9   1179189.289 8
 89 11 12 10 48 59.0800000  0  4G 2G 6G11G 9
  23824857.204    23824860.678     7139275.735 9   4360544.280 8
  21114463.271    21114466.640    -2490992.037 9  -5985973.135 9
  22246920.708    22246925.042    -7140018.998 9  -9370150.589 9
  23512335.271    23512339.111    -8617773.163 9   1111707.807 9
 89 11 12 10 49 29.0800000  0  4G 2G 6G11G 9
  23840238.172    23840242.152     7220101.263 9   4423525.172 9
  21106078.068    21106080.820    -2535060.491 5  -6020312.171 6
  22229694.521    22229697.687    -7230541.995 9  -9440687.970 9
  23495857.237    23495861.374    -8704365.994 9   1044232.885 8
 89 11 12 10 49 59.0800000  0  4G 2G 6G11G 9
  23855622.334    23855626.929     7300949.763 9   4486523.958 9
  21097732.555    21097736.238    -2578914.615 7  -6054484.216 6
  22212538.187    22212542.715    -7320701.391 9  -9510942.037 8
  23479381.789    23479385.713    -8790949.268 9    976765.428 9
 89 11 12 10 50 29.0800000  0  4G 2G 6G11G 9
  23871011.258    23871017.235     7381820.662 8   4549540.202 9
  21089428.476    21089432.881    -2622552.589 5  -6088487.833 7
  22195450.796    22195456.056    -7410494.605 9  -9580910.763 8
  23462907.330    23462910.244    -8877521.894 9    909306.279 9
 89 11 12 10 50 59.0800000  0  4G 2G 6G11G 9
  23886406.488    23886409.617     7462713.453 9   4612573.497 9
  21081166.469    21081170.130    -2665972.383 9  -6122321.424 9
  22178434.078    22178437.819    -7499919.230 9  -9650592.273 9
  23446435.730    23446438.788    -8964082.374 9    841856.583 8
 89 11 12 10 51 29.0800000  0  4G 2G 6G11G 9
  23901801.932    23901806.724     7543627.022 9   4675622.984 9
  21072945.710    21072949.275    -2709172.379 9  -6155983.753 8
  22161487.088    22161491.703    -7588972.937 9  -9719984.752 9
  23429965.659    23429969.002    -9050629.932 9    774416.951 9
 89 11 12 10 51 59.0800000  0  4G 2G 6G11G 9
  23917202.960    23917207.944     7624561.420 8   4738688.697 9
  21064767.091    21064770.885    -2752150.620 9  -6189473.292 8
  22144612.245    22144616.618    -7677653.241 9  -9789086.279 8
  23413498.745    23413501.346    -9137162.963 9    706988.642 8
 89 11 12 10 52 29.0800000  0  4G 2G 6G11G 9
  23932609.438    23932614.228     7705516.162 8   4801770.258 8
  21056631.699    21056634.512    -2794905.158 9  -6222788.510 9
  22127808.348    22127812.247    -7765957.737 9  -9857894.952 8
  23397035.533    23397038.735    -9223680.218 9    639572.635 9
 89 11 12 10 52 59.0800000  0  4G 2G 6G11G 9
  23948017.563    23948022.709     7786490.297 8   4864866.935 9
  21048538.812    21048541.845    -2837434.247 9  -6255928.051 8
  22111076.426    22111081.483    -7853883.453 9  -9926408.485 9
  23380574.420    23380577.878    -9310180.574 9    572169.786 9
 89 11 12 10 53 29.0800000  0  4G 2G 6G11G 9
  23963428.636    23963434.097     7867483.552 7   4927978.506 9
  21040488.509    21040492.198    -2879735.797 9  -6288890.289 9
  22094417.782    22094421.293    -7941428.222 9  -9994625.177 9
  23364117.026    23364121.550    -9396662.858 9    504781.011 9
 89 11 12 10 53 59.0800000  0  4G 2G 6G11G 9
  23978846.616    23978850.112     7948495.686 8   4991104.787 9
  21032481.712    21032486.004    -2921807.889 9  -6321673.730 9
  22077831.038    22077836.140    -8028589.326 9 -10062542.902 9
  23347665.194    23347668.163    -9483125.214 9    437407.781 9
 89 11 12 10 54 29.0800000  0  4G 2G 6G11G 9
  23994265.567    23994270.827     8029525.626 8   5054244.945 9
  21024520.074    21024524.032    -2963648.704 9  -6354276.972 8
  22061318.851    22061322.217    -8115364.448 9 -10130159.871 9
  23331214.003    23331218.025    -9569566.671 8    370050.836 8
 89 11 12 10 54 59.0800000  0  4G 2G 6G11G 9
  24009688.758    24009693.617     8110573.392 9   5117399.004 9
  21016602.646    21016606.006    -3005256.221 9  -6386698.391 9
  22044879.678    22044885.397    -8201751.109 9 -10197474.142 8
  23314769.469    23314773.758    -9655985.998 9    302711.131 9
 89 11 12 10 55 29.0800000  0  4G 2G 6G11G 9
  24025115.496    24025119.244     8191638.050 9   5180566.221 8
  21008730.444    21008732.630    -3046628.591 9  -6418936.612 8
  22028514.644    22028518.512    -8287746.820 9 -10264483.790 9
  23298329.523    23298332.730    -9742381.670 9    235389.861 9
 89 11 12 10 55 59.0800000  0  4G 2G 6G11G 9
  24040542.923    24040548.359     8272719.744 9   5243746.710 9
  21000902.082    21000905.542    -3087763.765 9  -6450989.989 8
  22012225.077    22012229.450    -8373349.174 9 -10331186.899 8
  23281893.840    23281898.005    -9828752.203 9    168088.174 9
 89 11 12 10 56 29.0800000  0  4G 2G 6G11G 9
  24055976.643    24055981.437     8353817.258 9   5306939.520 8
  20993120.297    20993123.076    -3128659.884 9  -6482857.088 8
  21996011.061    21996015.418    -8458556.026 9 -10397581.836 9
  23265462.709    23265465.934    -9915096.576 9    100806.880 9
 89 11 12 10 56 59.0800000  0  4G 2G 6G11G 9
  24071413.592    24071417.729     8434930.069 8   5370144.249 9
  20985383.431    20985385.912    -3169315.099 9  -6514536.483 9
  21979872.199    21979876.569    -8543365.098 9 -10463666.812 9
  23249036.693    23249040.204   -10001413.251 9     33547.150 8
 89 11 12 10 57 29.0800000  0  4G 2G 6G11G 9
  24086848.502    24086855.147     8516057.763 9   5433360.582 8
  20977693.210    20977696.261    -3209727.404 9  -6546026.593 9
  21963809.388    21963814.735    -8627773.824 9 -10529439.840 8
  23232617.437    23232620.120   -10087700.879 9    -33689.935 8
 89 11 12 10 57 59.0800000  0  4G 2G 6G11G 9
  24102291.692    24102297.272     8597200.402 9   5496588.550 9
  20970049.285    20970052.239    -3249894.934 9  -6577325.956 9
  21947824.062    21947828.335    -8711779.851 9 -10594899.067 8
  23216203.506    23216206.948   -10173958.044 9   -100903.275 9
 89 11 12 10 58 29.0800000  0  4G 2G 6G11G 9
  24117735.525    24117739.477     8678357.385 9   5559827.709 9
  20962452.455    20962455.986    -3289815.558 9  -6608432.931 9
  21931915.276    21931920.466    -8795380.831 9 -10660042.677 8
  23199794.202    23199798.672   -10260183.376 9   -168091.830 9
 89 11 12 10 58 59.0800000  0  4G 2G 6G11G 9
  24133182.525    24133186.457     8759527.901 9   5623077.410 9
  20954904.107    20954907.544    -3329487.519 9  -6639346.153 8
  21916083.787    21916088.346    -8878574.473 9 -10724868.885 9
  23183393.739    23183396.265   -10346375.505 9   -235254.495 8
 89 11 12 10 59 29.0800000  0  4G 2G 6G11G 9
  24148629.893    24148634.515     8840711.714 9   5686337.471 9
  20947401.597    20947404.216    -3368908.709 9  -6670063.955 8
  21900330.659    21900335.333    -8961358.337 9 -10789375.774 8
  23166997.667    23167001.202   -10432532.671 9   -302389.928 9
 89 11 12 10 59 59.0800000  0  4G 2G 6G11G 9
  24164083.740    24164086.433     8921908.332 9   5749607.514 9
  20939948.385    20939951.290    -3408077.202 9  -6700584.862 9
  21884655.642    21884660.729    -9043729.964 9 -10853561.440 9
  23150609.187    23150612.631   -10518653.761 9   -369497.253 9
 89 11 12 11  0 29.0800000  0  4G 2G 6G11G 9
  24179535.149    24179538.710     9003117.457 9   5812887.308 9
  20932543.939    20932546.803    -3446991.004 9  -6730907.302 9
  21869059.742    21869064.341    -9125687.142 9 -10917424.168 9
  23134229.061    23134231.509   -10604737.062 9   -436575.120 8
 89 11 12 11  0 59.0800000  0  4G 2G 6G11G 9
  24194992.014    24194995.678     9084338.800 9   5876176.598 9
  20925186.928    20925191.037    -3485648.011 9  -6761029.634 9
  21853543.270    21853547.969    -9207227.626 9 -10980962.184 8
  23117854.345    23117857.966   -10690781.036 9   -503622.349 9
 89 11 12 11  1 29.0800000  0  4G 2G 6G11G 9
  24210451.434    24210452.744     9165571.602 9   5939474.847 9
  20917880.563    20917883.744    -3524046.271 9  -6790950.355 9
  21838106.889    21838110.012    -9288349.138 9 -11044173.745 8
  23101488.761    23101492.085   -10776784.506 9   -570638.018 9
 89 11 12 11  1 59.0800000  0  4G 2G 6G11G 9
  24225908.767    24225914.405     9246815.282 9   6002781.547 9
  20910622.668    20910626.574    -3562183.955 9  -6820668.029 8
  21822749.449    21822754.508    -9369049.483 9 -11107057.119 7
  23085131.257    23085134.049   -10862745.761 9   -637620.781 9
 89 11 12 11  2 29.0800000  0  4G 2G 6G11G 9
  24241372.674    24241376.374     9328069.573 9   6066096.532 9
  20903415.832    20903418.628    -3600059.045 8  -6850181.078 9
  21807473.046    21807478.221    -9449326.481 9 -11169610.607 8
  23068781.468    23068784.346   -10948663.415 9   -704569.580 8
 89 11 12 11  2 59.0800000  0  4G 2G 6G11G 9
  24256837.477    24256840.556     9409334.424 9   6129419.738 9
  20896258.059    20896261.399    -3637669.629 9  -6879488.033 8
  21792277.916    21792282.171    -9529177.968 9 -11231832.529 9
  23052439.769    23052443.931   -11034536.026 9   -771483.275 8
 89 11 12 11  3 29.0800000  0  4G 2G 6G11G 9
  24272301.679    24272306.977     9490609.241 9   6192750.685 9
  20889152.429    20889155.568    -3675013.681 9  -6908587.286 8
  21777163.948    21777168.604    -9608601.834 9 -11293721.248 8
  23036107.232    23036111.951   -11120361.930 8   -838360.581 9
 89 11 12 11  3 59.0800000  0  4G 2G 6G11G 9
  24287767.798    24287775.005     9571893.476 9   6256088.975 9
  20882096.701    20882100.512    -3712089.094 9  -6937477.224 9
  21762131.602    21762135.113    -9687595.602 9 -11355274.817 8
  23019785.248    23019787.660   -11206139.630 8   -905200.314 8
 89 11 12 11  4 29.0800000  0  4G 2G 6G11G 9
  24303239.177    24303244.007     9653186.915 9   6319434.471 9
  20875092.368    20875096.563    -3748893.996 9  -6966156.355 9
  21747182.275    21747187.993    -9766157.150 9 -11416491.582 8
  23003471.825    23003474.548   -11291867.643 9   -972001.330 9
 89 11 12 11  4 59.0800000  0  4G 2G 6G11G 9
  24318712.698    24318716.903     9734489.422 9   6382787.000 9
  20868140.885    20868145.558    -3785426.198 9  -6994623.011 8
  21732315.828    21732319.627    -9844283.993 9 -11477369.629 9
  22987167.559    22987171.852   -11377544.204 8  -1038762.246 9
 89 11 12 11  5 29.0800000  0  4G 2G 6G11G 9
  24334183.885    24334188.421     9815800.591 8   6446146.279 9
  20861241.485    20861244.189    -3821683.763 9  -7022875.650 9
  21717531.272    21717536.146    -9921974.545 9 -11537907.706 8
  22970874.234    22970878.037   -11463167.797 9  -1105481.904 9
 89 11 12 11  5 59.0800000  0  4G 2G 6G11G 9
  24349657.221    24349663.243     9897119.743 9   6509511.814 9
  20854394.542    20854397.996    -3857664.720 9  -7050912.747 9
  21702831.729    21702835.084    -9999226.643 9 -11598104.126 8
  22954590.890    22954594.225   -11548736.980 9  -1172159.173 9
 89 11 12 11  6 29.0800000  0  4G 2G 6G11G 9
  24365133.502    24365140.285     9978446.659 9   6572883.366 8
  20847600.694    20847603.293    -3893366.898 9  -7078732.630 8
  21688214.460    21688218.646   -10076037.737 9 -11657956.911 9
  22938317.972    22938321.456   -11634249.951 8  -1238792.629 9
 89 11 12 11  6 59.0800000  0  4G 2G 6G11G 9
  24380610.837    24380616.042    10059780.477 9   6636260.301 9
  20840859.820    20840863.703    -3928788.406 9  -7106333.802 8
  21673681.647    21673686.950   -10152406.139 9 -11717464.739 9
  22922057.090    22922060.739   -11719705.120 9  -1305381.041 8
 89 11 12 11  7 29.0800000  0  4G 2G 6G11G 9
  24396092.160    24396094.742    10141121.319 8   6699642.727 9
  20834173.337    20834177.230    -3963927.245 9  -7133714.703 9
  21659234.374    21659238.249   -10228329.669 9 -11776625.921 9
  22905807.160    22905809.810   -11805100.885 9  -1371923.166 8
 89 11 12 11  7 59.0800000  0  4G 2G 6G11G 9
  24411569.651    24411576.071    10222468.460 8   6763030.028 8
  20827540.738    20827544.729    -3998781.320 9  -7160873.698 9
  21644871.754    21644875.081   -10303806.116 9 -11835438.712 8
  22889567.657    22889571.016   -11890435.541 9  -1438417.683 8
 89 11 12 11  8 29.0800000  0  4G 2G 6G11G 9
  24427052.767    24427055.695    10303822.215 9   6826422.525 9
  20820963.818    20820966.794    -4033348.511 9  -7187809.178 9
  21630595.048    21630597.630   -10378833.332 9 -11893901.467 9
  22873340.298    22873344.825   -11975707.514 9  -1504863.342 9
 89 11 12 11  8 59.0800000  0  3G 6G11G 9
  20814440.593    20814443.424    -4067626.879 8  -7214519.581 8
  21616403.379    21616406.691   -10453409.278 9 -11952012.572 9
  22857126.599    22857129.988   -12060914.906 9  -1571258.686 9
 89 11 12 11  9 29.0800000  0  3G 6G11G 9
  20807971.769    20807975.209    -4101614.488 8  -7241003.432 9
  21602298.381    21602302.410   -10527532.076 9 -12009770.584 8
  22840924.698    22840927.644   -12146056.339 9  -1637602.649 8
 89 11 12 11  9 59.0800000  0  3G 6G11G 9
  20801561.687    20801563.965    -4135309.234 8  -7267259.062 9
  21588279.569    21588282.839   -10601199.840 9 -12067174.027 8
  22824735.467    22824739.609   -12231130.057 9  -1703893.839 9
 89 11 12 11 10 29.0800000  0  3G 6G11G 9
  20795204.968    20795208.259    -4168709.143 8  -7293284.970 8
  21574347.283    21574351.725   -10674410.644 9 -12124221.378 9
  22808559.783    22808562.804   -12316134.404 9  -1770130.964 8
 89 11 12 11 10 59.0800000  0  3G 6G11G 9
  20788905.280    20788908.616    -4201812.134 9  -7319079.505 8
  21560502.983    21560507.558   -10747162.291 9 -12180910.951 8
  22792397.125    22792401.950   -12401067.633 9  -1836312.682 9
 89 11 12 11 11 29.0800000  0  3G 6G11G 9
  20782663.826    20782667.064    -4234616.174 9  -7344641.086 9
  21546746.804    21546750.957   -10819453.108 9 -12237241.443 7
  22776249.398    22776252.459   -12485928.164 9  -1902437.753 9
 89 11 12 11 11 59.0800000  0  3G 6G11G 9
  20776477.701    20776481.179    -4267119.122 9  -7369968.058 8
  21533078.808    21533083.049   -10891280.987 9 -12293211.190 9
  22760115.492    22760118.999   -12570713.787 9  -1968504.457 9
 89 11 12 11 12 29.0800000  0  3G 6G11G 9
  20770351.379    20770353.973    -4299318.959 9  -7395058.828 8
  21519497.226    21519503.633   -10962643.733 9 -12348818.510 9
  22743995.675    22743998.618   -12655423.093 9  -2034511.693 9
 89 11 12 11 12 59.0800000  0  3G 6G11G 9
  20764281.727    20764284.159    -4331213.818 9  -7419911.971 9
  21506006.953    21506012.008   -11033539.894 9 -12404062.259 8
  22727891.000    22727893.645   -12740054.243 9  -2100458.033 9
 89 11 12 11 13 29.0800000  0  3G 6G11G 9
  20758270.260    20758274.306    -4362801.609 9  -7444525.812 9
  21492604.824    21492609.884   -11103967.565 9 -12458940.941 9
  22711800.682    22711804.172   -12824605.641 8  -2166342.219 8
 89 11 12 11 13 59.0800000  0  3G 6G11G 9
  20752317.890    20752321.146    -4394080.199 9  -7468898.748 9
  21479291.839    21479296.152   -11173924.695 9 -12513452.984 8
  22695725.836    22695729.625   -12909075.190 9  -2232162.619 9
 89 11 12 11 14 29.0800000  0  3G 6G11G 9
  20746425.244    20746428.556    -4425047.441 9  -7493029.070 8
  21466070.564    21466074.403   -11243409.591 9 -12567597.033 9
  22679668.919    22679672.125   -12993461.219 9  -2297917.937 9
 89 11 12 11 14 59.0800000  0  3G 6G11G 9
  20740591.373    20740595.965    -4455701.672 9  -7516915.487 8
  21452939.077    21452943.720   -11312420.334 9 -12621371.633 9
  22663627.224    22663629.472   -13077762.163 9  -2363606.955 8
 89 11 12 11 15 29.0800000  0  3G 6G11G 9
  20734818.371    20734821.477    -4486040.636 9  -7540556.237 9
  21439896.493    21439900.895   -11380955.270 9 -12674775.457 9
  22647601.381    22647604.744   -13161976.202 9  -2429228.267 9
 89 11 12 11 15 59.0800000  0  3G 6G11G 9
  20729105.536    20729108.590    -4516062.263 9  -7563949.694 8
  21426946.079    21426949.788   -11449012.371 8 -12727806.951 8
  22631593.344    22631596.124   -13246101.181 8  -2494780.197 8
 89 11 12 11 16 29.0800000  0  3G 6G11G 9
  20723453.354    20723456.454    -4545764.441 9  -7587094.255 9
  21414086.079    21414091.064   -11516589.846 9 -12780464.708 8
  22615601.448    22615605.521   -13330135.366 8  -2560261.355 9
 89 11 12 11 16 59.0800000  0  3G 6G11G 9
  20717861.944    20717865.803    -4575145.284 9  -7609988.421 8
  21401318.377    21401322.550   -11583686.086 9 -12832747.469 8
  22599628.392    22599631.730   -13414076.910 9  -2625670.324 9
 89 11 12 11 17 29.0800000  0  3G 6G11G 9
  20712332.987    20712337.401    -4604202.335 9  -7632630.275 8
  21388642.110    21388647.211   -11650298.957 9 -12884653.582 9
  22583671.739    22583675.916   -13497923.518 9  -2691005.332 9
 89 11 12 11 17 59.0800000  0  3G 6G11G 9
  20706865.490    20706869.675    -4632933.657 9  -7655018.303 8
  21376058.394    21376063.109   -11716426.814 9 -12936181.780 9
  22567735.306    22567739.865   -13581673.659 8  -2756265.156 9
 89 11 12 11 18 29.0800000  0  3G 6G11G 9
  20701460.599    20701464.472    -4661337.650 9  -7677151.284 9
  21363567.072    21363571.731   -11782068.439 9 -12987331.067 9
  22551817.053    22551820.981   -13665325.701 9  -2821448.554 9
 89 11 12 11 18 59.0800000  0  3G 6G11G 9
  20696118.929    20696121.595    -4689412.048 9  -7699027.445 9
  21351169.432    21351172.876   -11847221.970 9 -13038100.046 8
  22535918.147    22535921.911   -13748877.675 9  -2886553.968 9
 89 11 12 11 19 29.0800000  0  3G 6G11G 9
  20690838.997    20690842.522    -4717154.877 9  -7720645.223 8
  21338864.019    21338867.748   -11911885.806 9 -13088487.430 8
  22520037.957    22520040.402   -13832327.482 9  -2951579.764 9
 89 11 12 11 19 59.0800000  0  3G 6G11G 9
  20685622.877    20685626.066    -4744564.167 9  -7742003.104 8
  21326651.726    21326656.686   -11976058.460 9 -13138492.080 9
  22504177.176    22504180.322   -13915673.532 9  -3016524.722 9
 89 11 12 11 20 29.0800000  0  3G 6G11G 9
  20680470.881    20680474.896    -4771638.004 9  -7763099.609 8
  21314534.433    21314539.007   -12039738.165 9 -13188112.605 9
  22488337.427    22488340.315   -13998913.730 9  -3081387.187 9
 89 11 12 11 20 59.0800000  0  3G 6G11G 9
  20675383.857    20675385.734    -4798374.238 8  -7783933.030 9
  21302510.051    21302513.190   -12102923.437 9 -13237347.869 9
  22472517.856    22472521.246   -14082046.343 9  -3146165.831 9
 89 11 12 11 21 29.0800000  0  3G 6G11G 9
  20670360.125    20670363.539    -4824770.653 9  -7804501.677 9
  21290580.281    21290585.540   -12165612.459 9 -13286196.437 8
  22456718.826    22456722.192   -14165069.023 9  -3210858.817 9
 89 11 12 11 21 59.0800000  0  3G 6G11G 9
  20665402.248    20665405.523    -4850825.351 9  -7824804.039 8
  21278745.865    21278751.064   -12227803.761 9 -13334657.174 9
  22440941.670    22440944.361   -14247980.033 9  -3275464.780 9
 89 11 12 11 22 29.0800000  0  3G 6G11G 9
  20660509.245    20660513.258    -4876536.433 8  -7844838.647 8
  21267005.465    21267011.875   -12289495.879 9 -13382728.952 8
  22425185.330    22425188.411   -14330777.488 9  -3339982.259 8
 89 11 12 11 22 59.0800000  0  3G 6G11G 9
  20655682.739    20655686.091    -4901901.584 8  -7864603.684 8
  21255361.730    21255366.674   -12350687.045 9 -13430410.358 8
  22409452.203    22409456.049   -14413458.988 9  -3404409.376 9
 89 11 12 11 23 29.0800000  0  4G13G 6G11G 9
                  24503719.819   -26387885.441 9
  20650921.464    20650925.394    -4926918.869 8  -7884097.687 9
  21243813.172    21243819.055   -12411375.910 9 -13477700.368 9
  22393740.228    22393744.637   -14496022.863 9  -3468744.829 8
 89 11 12 11 23 59.0800000  0  4G13G 6G11G 9
                  24481295.310   -26581520.146 9
  20646227.718    20646230.669    -4951586.345 8  -7903319.101 7
  21232360.529    21232365.364   -12471561.046 9 -13524597.857 9
  22378051.877    22378054.868   -14578466.965 9  -3532986.977 9
 89 11 12 11 24 29.0800000  0  4G13G 6G11G 9
  24458907.495    24458911.471   -26699293.345 9  33828183.280 9
  20641601.801    20641604.889    -4975901.898 9  -7922266.278 8
  21221003.769    21221008.620   -12531240.902 9 -13571101.617 9
  22362385.601    22362389.554   -14660789.341 9  -3597134.258 9
 89 11 12 11 24 59.0800000  0  4G13G 6G11G 9
  24436518.688    24436523.683   -26816945.803 9  33736506.036 9
  20637041.365    20637044.238    -4999863.684 9  -7940937.806 8
  21209743.555    21209747.832   -12590414.446 9 -13617210.866 9
  22346744.300    22346747.672   -14742987.814 9  -3661184.996 9
 89 11 12 11 25 29.0800000  0  4G13G 6G11G 9
  24414156.146    24414159.844   -26934475.089 9  33644924.803 9
  20632549.671    20632552.870    -5023469.518 9  -7959331.960 8
  21198579.823    21198584.176   -12649079.811 9 -13662924.117 8
  22331126.898    22331130.516   -14825060.745 9  -3725137.918 9
 89 11 12 11 25 59.0800000  0  4G13G 6G11G 9
  24391812.933    24391817.602   -27051878.629 9  33553441.524 8
  20628125.343    20628128.178    -5046717.501 9  -7977447.272 8
  21187513.629    21187518.396   -12707235.479 9 -13708240.201 8
  22315533.064    22315536.284   -14907005.718 9  -3788991.115 9
 89 11 12 11 26 29.0800000  0  4G13G 6G11G 9
  24369496.244    24369502.161   -27169154.012 9  33462058.100 8
  20623769.519    20623771.565    -5069605.615 8  -7995282.170 9
  21176544.074    21176548.829   -12764880.522 9 -13753158.405 9
  22299963.538    22299967.957   -14988820.712 9  -3852743.054 8
 89 11 12 11 26 59.0800000  0  4G13G 6G11G 9
  24347206.516    24347209.155   -27286298.376 9  33370776.803 8
  20619482.493    20619486.641    -5092131.829 9  -8012835.057 9
  21165672.741    21165676.477   -12822013.605 9 -13797677.669 8
  22284420.281    22284423.138   -15070503.838 9  -3916392.227 9
 89 11 12 11 27 29.0800000  0  4G13G 6G11G 9
  24324942.023    24324945.363   -27403308.976 9  33279599.716 8
  20615266.135    20615268.938    -5114294.159 9  -8030104.395 9
  21154897.219    21154901.486   -12878633.229 9 -13841796.844 9
  22268902.652    22268904.784   -15152052.740 9  -3979936.804 9
 89 11 12 11 27 59.0800000  0  4G13G 6G11G 9
  24302700.997    24302700.538   -27520183.134 9  33188528.976 8
  20611118.250    20611120.716    -5136090.702 9  -8047088.723 9
  21144221.538    21144225.543   -12934738.186 9 -13885514.977 9
  22253410.567    22253411.873   -15233465.726 9  -4043375.472 9
 89 11 12 11 28 29.0800000  0  4G13G 6G11G 9
  24280484.616    24280490.265   -27636918.643 9  33097566.245 9
  20607040.538    20607044.477    -5157519.480 9  -8063786.467 8
  21133642.211    21133647.678   -12990327.056 9 -13928830.966 9
  22237943.679    22237946.790   -15314740.493 9  -4106706.444 9
 89 11 12 11 28 59.0800000  0  4G13G 6G11G 9
  24258298.193    24258297.236   -27753512.959 9  33006713.555 8
  20603032.722    20603037.769    -5178578.472 9  -8080196.069 8
  21123162.762    21123166.742   -13045398.576 9 -13971743.812 9
  22222504.855    22222507.240   -15395874.954 9  -4169928.094 9
 89 11 12 11 29 29.0800000  0  4G13G 6G11G 9
  24236139.373    24236143.162   -27869962.897 9  32915973.357 8
  20599095.699    20599098.899    -5199265.610 9  -8096315.921 9
  21112782.304    21112785.941   -13099951.546 9 -14014252.608 9
  22207091.661    22207094.941   -15476866.911 9  -4233038.695 8
 89 11 12 11 29 59.0800000  0  4G13G 6G11G 9
  24214008.506    24214006.293   -27986266.195 9  32825347.437 7
  20595230.786    20595234.023    -5219578.992 8  -8112144.536 8
  21102498.936    21102503.557   -13153984.641 9 -14056356.292 8
  22191707.284    22191710.481   -15557714.223 9  -4296036.595 9
 89 11 12 11 30 29.0800000  0  4G13G 6G11G 9
  24191911.726    24191906.385   -28102420.518 8  32734837.637 8
  20591436.058    20591440.329    -5239516.516 8  -8127680.279 8
  21092316.101    21092321.081   -13207496.543 9 -14098053.871 9
  22176350.098    22176354.257   -15638414.778 9  -4358920.128 9
 89 11 12 11 30 59.0800000  0  4G13G 6G11G 9
  24169837.737    24169832.245   -28218422.720 8  32644446.313 8
  20587714.449    20587718.117    -5259076.288 9  -8142921.649 9
  21082232.831    21082237.168   -13260486.543 9 -14139344.763 9
  22161022.045    22161025.987   -15718966.453 9  -4421687.652 8
 89 11 12 11 31 29.0800000  0  4G13G 6G11G 9
  24147788.448    24147784.126   -28334270.279 8  32554175.483 8
  20584064.420    20584068.190    -5278256.589 9  -8157867.341 9
  21072248.955    21072252.790   -13312953.398 9 -14180228.008 9
  22145721.881    22145725.889   -15799367.143 9  -4484337.524 8
 89 11 12 11 31 59.0800000  0  4G13G 6G11G 9
  24125769.428    24125772.504   -28449960.924 8  32464026.907 8
  20580487.569    20580490.582    -5297055.348 9  -8172515.730 7
  21062364.568    21062368.603   -13364895.997 9 -14220702.734 9
  22130451.629    22130454.953   -15879614.740 9  -4546868.104 8
 89 11 12 11 32 29.0800000  0  4G13G 6G11G 9
  24103781.866    24103787.674   -28565491.886 8  32374002.779 8
  20576983.617    20576987.103    -5315470.346 9  -8186865.073 8
  21052580.016    21052584.437   -13416312.680 9 -14260767.664 9
  22115209.921    22115214.357   -15959706.745 9  -4609277.447 9
 89 11 12 11 32 59.0800000  0  4G13G 6G11G 9
  24081823.259    24081829.123   -28680860.858 8  32284104.943 8
  20573553.072    20573556.065    -5333499.935 9  -8200914.112 8
  21042896.458    21042900.868   -13467202.858 8 -14300422.348 9
  22099999.797    22100002.479   -16039641.029 9  -4671563.888 8
 89 11 12 11 33 29.0800000  0  4G13G 6G11G 9
  24059901.985    24059912.855   -28796065.281 9  32194335.262 9
  20570195.466    20570198.639    -5351142.045 8  -8214661.210 8
  21033312.782    21033317.862   -13517565.219 9 -14339665.720 8
  22084818.373    22084820.975   -16119415.513 9  -4733725.816 9
 89 11 12 11 33 59.0800000  0  4G13G 6G11G 9
  24038014.521    24038020.228   -28911102.249 9  32104696.080 8
  20566911.706    20566915.967    -5368394.734 8  -8228104.856 8
  21023828.737    21023833.989   -13567398.763 9 -14378497.038 9
  22069669.449    22069672.079   -16199027.957 9  -4795761.472 8
 89 11 12 11 34 29.0800000  0  4G13G 6G11G 9
  24016159.004    24016158.293   -29025969.157 9  32015189.427 9
  20563702.951    20563707.083    -5385256.146 9  -8241243.618 8
  21014446.976    21014453.260   -13616702.519 9 -14416915.543 8
  22054550.230    22054553.937   -16278476.113 9  -4857669.121 9
 89 11 12 11 34 59.0800000  0  4G13G 6G11G 9
  23994332.014    23994336.442   -29140663.326 9  31925817.326 9
  20560569.915    20560573.345    -5401724.264 9  -8254075.918 8
  21005165.208    21005170.631   -13665475.422 9 -14454920.387 9
  22039463.062    22039466.227   -16357757.952 9  -4919447.154 8
 89 11 12 11 35 29.0800000  0  4G13G 6G11G 9
  23972540.115    23972543.917   -29255182.498 9  31836581.608 8
  20557511.046    20557514.695    -5417797.289 9  -8266600.354 8
  20995986.034    20995990.056   -13713716.648 9 -14492510.934 8
  22024409.147    22024412.774   -16436871.050 9  -4981093.709 9
 89 11 12 11 35 59.0800000  0  4G13G 6G11G 9
  23950779.383    23950783.577   -29369523.909 9  31747484.422 8
  20554527.416    20554530.652    -5433473.011 9  -8278815.188 9
  20986907.443    20986911.762   -13761425.059 9 -14529686.301 7
  22009387.097    22009390.618   -16515813.008 9  -5042606.921 9
 89 11 12 11 36 29.0800000  0  4G13G 6G11G 9
  23929053.052    23929060.306   -29483685.151 9  31658527.618 8
  20551620.931    20551625.453    -5448749.883 9  -8290719.247 9
  20977930.531    20977933.980   -13808599.879 9 -14566445.896 9
  21994397.522    21994400.909   -16594581.819 9  -5103985.196 8
 89 11 12 11 36 59.0800000  0  4G13G 6G11G 9
  23907367.481    23907372.030   -29597663.748 9  31569713.141 9
  20548790.312    20548793.346    -5463625.938 9  -8302310.984 8
  20969054.871    20969058.447   -13855240.011 9 -14602788.839 8
  21979442.384    21979445.250   -16673175.008 9  -5165226.618 8
 89 11 12 11 37 29.0800000  0  4G13G 6G11G 9
  23885716.576    23885716.004   -29711456.580 9  31481043.396 8
  20546035.601    20546039.199    -5478099.129 8  -8313588.806 9
  20960280.861    20960285.258   -13901344.728 9 -14638714.581 8
  21964519.045    21964522.960   -16751590.232 8  -5226329.384 9
 89 11 12 11 37 59.0800000  0  4G13G 6G11G 9
  23864092.305    23864096.430   -29825061.905 8  31392519.781 8
  20543357.910    20543361.757    -5492167.815 8  -8324551.416 8
  20951610.154    20951614.092   -13946913.447 9 -14674222.665 9
  21949631.329    21949635.991   -16829825.578 9  -5287291.973 9
 89 11 12 11 38 29.0800000  0  4G13G 6G11G 9
  23842510.993    23842516.199   -29938476.609 9  31304144.714 9
  20540759.235    20540762.665    -5505830.028 8  -8335197.298 9
  20943040.695    20943045.321   -13991945.049 9 -14709312.195 9
  21934778.831    21934782.277   -16907878.543 9  -5348112.458 9
 89 11 12 11 38 59.0800000  0  4G13G 6G11G 9
  23820967.058    23820972.336   -30051698.832 9  31215919.614 8
  20538237.677    20538240.490    -5519083.787 9  -8345524.905 8
  20934574.008    20934579.060   -14036438.685 9 -14743982.554 9
  21919961.316    21919964.748   -16985746.738 9  -5408788.958 9
 89 11 12 11 39 29.0800000  0  4G13G 6G11G 9
  23799456.338    23799462.995   -30164725.481 9  31127846.906 9
  20535793.427    20535795.561    -5531927.347 9  -8355532.877 8
  20926209.988    20926214.081   -14080393.109 9 -14778232.754 9
  21905179.174    21905183.209   -17063427.902 9  -5469319.726 9
 89 11 12 11 39 59.0800000  0  4G13G 6G11G 9
  23777988.686    23777992.968   -30277554.428 9  31039928.257 8
  20533426.903    20533430.538    -5544358.811 9  -8365219.727 8
  20917948.195    20917953.043   -14123807.954 9 -14812062.487 9
  21890433.210    21890436.035   -17140919.786 9  -5529702.995 9
 89 11 12 11 40 29.0800000  0  4G13G 6G11G 9
  23756553.146    23756560.062   -30390182.622 9  30952166.032 8
  20531140.978    20531143.615    -5556376.221 9  -8374583.938 8
  20909789.410    20909793.974   -14166682.330 9 -14845471.068 9
  21875722.877    21875725.871   -17218219.870 9  -5589936.811 8
 89 11 12 11 40 59.0800000  0  4G13G 6G11G 9
  23735160.589    23735165.004   -30502607.664 9  30864562.121 8
  20528932.858    20528935.740    -5567977.818 9  -8383624.153 8
  20901733.711    20901739.506   -14209015.717 9 -14878458.121 9
  21861051.015    21861053.133   -17295325.740 9  -5650019.290 9
 89 11 12 11 41 29.0800000  0  4G13G 6G11G 9
  23713806.848    23713809.724   -30614827.238 9  30777118.305 9
  20526804.193    20526807.693    -5579162.057 9  -8392339.134 9
  20893780.592    20893785.085   -14250807.383 9 -14911023.035 9
  21846414.188    21846418.928   -17372235.409 9  -5709948.896 9
 89 11 12 11 41 59.0800000  0  4G13G 6G11G 9
  23692493.262    23692495.904   -30726838.647 9  30689836.682 8
  20524756.650    20524758.883    -5589926.900 9  -8400727.335 9
  20885930.843    20885935.180   -14292056.824 9 -14943165.444 8
  21831817.057    21831820.615   -17448946.307 9  -5769723.600 8
 89 11 12 11 42 29.0800000  0  4G13G 6G11G 9
  23671215.165    23671221.725   -30838639.863 9  30602718.857 9
  20522787.897    20522791.705    -5600270.610 9  -8408787.369 9
  20878185.756    20878188.329   -14332763.108 9 -14974884.608 9
  21817258.679    21817261.201   -17525456.136 9  -5829341.637 9
 89 11 12 11 42 59.0800000  0  4G13G 6G11G 9
  23649982.654    23649985.292   -30950228.151 9  30515766.941 8
  20520900.203    20520902.414    -5610191.264 8  -8416517.758 8
  20870542.000    20870546.219   -14372925.587 9 -15006180.031 9
  21802737.012    21802740.634   -17601762.600 9  -5888801.214 9
 89 11 12 11 43 29.0800000  0  4G13G 6G11G 9
  23628788.174    23628791.032   -31061600.967 9  30428982.938 8
  20519092.054    20519095.932    -5619687.194 9  -8423917.172 8
  20863003.294    20863006.939   -14412543.732 9 -15037051.292 8
  21788255.552    21788259.760   -17677863.045 9  -5948100.252 8
 89 11 12 11 43 59.0800000  0  4G13G 6G11G 9
  23607635.722    23607640.045   -31172755.231 9  30342369.232 8
  20517367.176    20517370.060    -5628756.516 9  -8430984.184 9
  20855568.338    20855571.629   -14451616.951 9 -15067497.946 8
  21773814.297    21773817.360   -17753755.322 9  -6007237.070 8
 89 11 12 11 44 29.0800000  0  4G13G 6G11G 9
  23586526.127    23586530.367   -31283689.164 9  30255927.212 8
  20515722.961    20515726.066    -5637397.455 9  -8437717.390 8
  20848236.455    20848241.464   -14490144.499 9 -15097519.394 8
  21759412.891    21759415.101   -17829436.778 9  -6066209.625 9
 89 11 12 11 44 59.0800000  0  4G13G 6G11G 9
  23565458.102    23565461.900   -31394400.396 9  30169658.726 8
  20514159.710    20514163.731    -5645608.328 9  -8444115.482 7
  20841008.441    20841014.067   -14528126.015 9 -15127115.372 8
  21745051.502    21745054.573   -17904905.298 9  -6125016.254 9
 89 11 12 11 45 29.0800000  0  4G13G 6G11G 9
  23544433.593    23544438.622   -31504886.047 9  30083566.028 8
  20512679.431    20512682.473    -5653387.409 9  -8450177.103 9
  20833886.344    20833890.268   -14565560.667 9 -15156285.212 8
  21730730.679    21730733.933   -17980158.358 9  -6183655.002 8
 89 11 12 11 45 59.0800000  0  4G13G 6G11G 9
  23523452.720    23523458.214   -31615143.984 9  29997650.757 9
  20511282.401    20511286.583    -5660732.945 9  -8455900.901 8
  20826865.931    20826870.322   -14602448.380 9 -15185028.880 8
  21716452.154    21716455.208   -18055193.450 9  -6242123.892 8
 89 11 12 11 46 29.0800000  0  4G13G 6G11G 9
  23502513.793    23502519.544   -31725171.156 9  29911915.309 7
  20509965.726    20509969.823    -5667643.157 9  -8461285.481 8
  20819950.760    20819954.410   -14638788.572 9 -15213345.892 8
  21702215.620    21702218.122   -18130008.288 9  -6300421.154 8
 89 11 12 11 46 59.0800000  0  4G13G 6G11G 9
  23481620.750    23481626.216   -31834966.094 9  29826360.814 9
  20508734.856    20508738.190    -5674116.365 9  -8466329.548 8
  20813139.070    20813143.375   -14674580.756 9 -15241235.893 9
  21688021.560    21688024.044   -18204600.389 9  -6358544.865 9
 89 11 12 11 47 29.0800000  0  4G13G 6G11G 9
  23460772.324    23460778.803   -31944525.671 9  29740989.726 9
  20507587.104    20507589.318    -5680151.079 9  -8471031.912 9
  20806433.100    20806436.119   -14709824.708 9 -15268698.705 8
  21673869.509    21673872.311   -18278967.264 9  -6416493.067 8
 89 11 12 11 47 59.0800000  0  4G13G 6G11G 9
  23439969.849    23439975.444   -32053847.307 9  29655804.048 9
  20506522.194    20506525.222    -5685745.332 8  -8475391.069 9
  20799830.554    20799833.631   -14744519.833 9 -15295733.854 8
  21659760.602    21659764.134   -18353106.641 9  -6474264.005 9
 89 11 12 11 48 29.0800000  0  4G13G 6G11G 9
  23419212.222    23419217.057   -32162928.644 9  29570805.603 8
  20505542.088    20505545.517    -5690897.354 9  -8479405.641 9
  20793332.969    20793336.032   -14778665.577 9 -15322340.906 8
  21645696.412    21645699.898   -18427015.804 9  -6531855.554 8
 89 11 12 11 48 59.0800000  0  4G13G 6G11G 9
  23398500.353    23398506.068   -32271767.190 9  29485996.346 8
  20504645.720    20504649.807    -5695605.727 9  -8483074.510 9
  20786939.522    20786944.405   -14812261.849 9 -15348519.813 8
  21631676.574    21631680.123   -18500692.435 9  -6589265.909 8
 89 11 12 11 49 29.0800000  0  4G13G 6G11G 9
  23377836.467    23377842.026   -32380360.714 9  29401378.020 9
  20503834.787    20503838.288    -5699868.668 9  -8486396.278 8
  20780650.207    20780654.459   -14845308.326 9 -15374270.305 9
  21617701.490    21617703.591   -18574133.986 9  -6646493.074 8
 89 11 12 11 49 59.0800000  0  4G13G 6G11G 9
  23357218.588    23357224.233   -32488707.000 9  29316952.357 9
  20503108.898    20503111.946    -5703684.382 9  -8489369.568 8
  20774467.638    20774471.458   -14877804.393 9 -15399591.901 8
  21603770.627    21603773.764   -18647337.997 9  -6703535.152 9
 89 11 12 11 50 29.0800000  0  4G13G 6G11G 9
  23336648.974    23336653.138   -32596803.740 9  29232721.142 9
  20502467.797    20502471.254    -5707051.384 8  -8491993.207 9
  20768389.270    20768393.346   -14909749.902 9 -15424484.494 8
  21589885.980    21589888.582   -18720302.081 9  -6760390.271 9
 89 11 12 11 50 59.0800000  0  4G13G 6G11G 9
  23316126.167    23316131.064   -32704648.159 9  29148686.538 8
  20501913.399    20501915.527    -5709968.055 9  -8494265.953 8
  20762414.282    20762417.773   -14941144.644 9 -15448947.917 8
  21576047.871    21576051.506   -18793023.514 9  -6817056.317 9
 89 11 12 11 51 29.0800000  0  4G13G 6G11G 9
  23295652.562    23295657.407   -32812237.952 9  29064850.351 9
  20501443.665    20501447.555    -5712432.746 9  -8496186.473 9
  20756543.709    20756547.831   -14971988.197 9 -15472981.840 7
  21562255.988    21562259.655   -18865499.797 9  -6873531.326 8
 89 11 12 11 51 59.0800000  0  4G13G 6G11G 9
  23275228.346    23275232.031   -32919570.586 9  28981214.547 9
  20501061.189    20501064.646    -5714443.996 9  -8497753.688 8
  20750779.973    20750783.923   -15002280.559 9 -15496586.255 9
  21548512.026    21548514.651   -18937728.686 9  -6929813.560 9
 89 11 12 11 52 29.0800000  0  4G13G 6G11G 9
  23254853.998    23254856.878   -33026643.834 9  28897780.858 8
  20500765.824    20500768.958    -5716000.036 9  -8498966.204 9
  20745119.873    20745124.294   -15032021.531 9 -15519761.027 8
  21534814.635    21534817.406   -19009707.534 9  -6985900.964 9
 89 11 12 11 52 59.0800000  0  4G13G 6G11G 9
  23234527.425    23234531.108   -33133455.849 9  28814550.723 9
  20500556.423    20500558.973    -5717099.458 9  -8499822.890 8
  20739565.720    20739569.638   -15061210.806 9 -15542505.918 8
  21521164.836    21521168.170   -19081434.059 9  -7041791.750 8
 89 11 12 11 53 29.0800000  0  4G13G 6G11G 9
  23214252.082    23214256.073   -33240003.824 9  28731526.329 9
  20500434.314    20500437.419    -5717740.807 9  -8500322.656 9
  20734116.910    20734120.043   -15089848.713 9 -15564821.160 8
  21507564.561    21507567.604   -19152905.696 9  -7097483.938 9
 89 11 12 11 53 59.0800000  0  4G13G 6G11G 9
  23194026.289    23194031.421   -33346285.169 9  28648709.705 8
  20500399.921    20500402.734    -5717922.258 9  -8500464.051 8
  20728772.118    20728776.484   -15117934.647 8 -15586706.283 9
  21494013.011    21494015.951   -19224119.772 9  -7152975.415 9
 89 11 12 11 54 29.0800000  0  4G13G 6G11G 9
  23173853.565    23173858.260   -33452297.727 9  28566102.521 8
  20500453.093    20500456.504    -5717642.355 9  -8500245.945 8
  20723532.610    20723537.437   -15145468.901 9 -15608161.531 8
  21480510.929    21480514.015   -19295073.732 9  -7208264.206 9
 89 11 12 11 54 59.0800000  0  4G13G 6G11G 9
  23153731.495    23153735.750   -33558039.386 9  28483706.437 9
  20500594.425    20500597.695    -5716899.662 8  -8499667.235 9
  20718397.345    20718402.523   -15172451.298 9 -15629186.772 8
  21467058.883    21467062.286   -19365765.113 9  -7263348.383 9
 89 11 12 11 55 29.0800000  0  4G13G 6G11G 9
  23133661.165    23133665.422   -33663507.654 9  28401523.378 9
  20500823.638    20500826.676    -5715692.518 9  -8498726.596 9
  20713368.310    20713372.733   -15198881.750 9 -15649781.908 9
  21453657.142    21453660.005   -19436191.159 9  -7318225.812 9
 89 11 12 11 55 59.0800000  0  4G13G 6G11G 9
  23113643.930    23113648.353   -33768700.114 9  28319555.227 8
  20501142.053    20501145.399    -5714019.475 8  -8497422.930 9
  20708442.689    20708448.659   -15224760.150 9 -15669946.884 7
  21440306.517    21440309.826   -19506349.600 9  -7372894.722 8
 89 11 12 11 56 29.0800000  0  4G13G 6G11G 9
  23093679.526    23093683.778   -33873614.426 9  28237803.822 8
  20501548.014    20501551.646    -5711878.966 8  -8495755.009 8
  20703625.157    20703627.518   -15250086.461 8 -15689681.660 7
  21427007.287    21427010.273   -19576237.548 9  -7427352.867 9
 89 11 12 11 56 59.0800000  0  4G13G 6G11G 9
  23073767.298    23073772.922   -33978248.383 9  28156270.869 9
  20502045.829    20502049.075    -5709269.632 9  -8493721.770 9
  20698909.637    20698913.590   -15274860.452 8 -15708986.055 9
  21413759.451    21413763.138   -19645852.817 9  -7481598.517 8
 89 11 12 11 57 29.0800000  0  4G13G 6G11G 9
  23053911.186    23053914.713   -34082599.622 9  28074958.210 8
  20502631.274    20502635.793    -5706189.808 9  -8491321.911 7
  20694299.850    20694304.829   -15299082.423 8 -15727860.300 8
  21400564.490    21400567.973   -19715192.403 9  -7535629.343 9
 89 11 12 11 57 59.0800000  0  4G13G 6G11G 9
  23034107.552    23034111.710   -34186666.329 9  27993867.270 9
  20503307.636    20503310.816    -5702638.280 8  -8488554.490 8
  20689796.836    20689800.701   -15322752.756 9 -15746304.698 8
  21387422.948    21387425.827   -19784254.097 9  -7589443.648 9
 89 11 12 11 58 29.0800000  0  4G13G 6G11G 9
  23014358.641    23014362.719   -34290445.208 9  27913000.611 8
  20504073.460    20504076.730    -5698613.530 7  -8485418.316 8
  20685395.901    20685400.515   -15345871.140 9 -15764319.017 8
  21374334.152    21374336.894   -19853035.210 9  -7643039.309 8
 89 11 12 11 58 59.0800000  0  4G13G 6G11G 9
  22994665.904    22994670.180   -34393934.474 9  27832359.632 9
  20504929.369    20504933.900    -5694114.010 8  -8481912.200 8
  20681102.320    20681106.611   -15368437.594 9 -15781903.252 8
  21361299.136    21361302.903   -19921533.188 9  -7696414.348 9
 89 11 12 11 59 29.0800000  0  4G13G 6G11G 9
  22975027.483    22975033.002   -34497132.053 9  27751945.956 9
  20505876.140    20505879.428    -5689138.542 8  -8478035.218 8
  20676913.176    20676917.972   -15390452.458 9 -15799057.686 9
  21348319.940    21348322.610   -19989745.370 9  -7749566.694 9
 89 11 12 11 59 59.0800000  0  4G13G 6G11G 9
  22955446.274    22955451.663   -34600035.545 9  27671761.413 8
  20506914.155    20506917.106    -5683685.726 9  -8473786.273 8
  20672828.495    20672833.445   -15411916.029 9 -15815782.536 9
  21335393.516    21335397.111   -20057669.264 9  -7802494.389 9
 89 11 12 12  0 29.0800000  0  4G13G 6G11G 9
  22935919.708    22935924.002   -34702642.715 9  27591807.783 8
  20508042.755    20508045.685    -5677754.085 9  -8469164.217 9
  20668849.094    20668853.661   -15432828.256 9 -15832077.772 7
  21322523.305    21322526.204   -20125302.208 9  -7855195.375 9
 89 11 12 12  0 59.0800000  0  4G13G 6G11G 9
  22916451.769    22916455.836   -34804951.728 9  27512086.479 9
  20509262.507    20509266.243    -5671342.329 8  -8464168.052 8
  20664975.385    20664978.990   -15453189.423 9 -15847943.599 8
  21309709.017    21309711.544   -20192641.759 9  -7907667.750 9
 89 11 12 12  1 29.0800000  0  4G13G 6G11G 9
  22897040.539    22897044.239   -34906960.318 9  27432599.272 8
  20510575.515    20510578.626    -5664449.133 8  -8458796.746 9
  20661205.490    20661209.356   -15472999.774 8 -15863380.223 8
  21296951.081    21296953.932   -20259685.290 9  -7959909.453 9
 89 11 12 12  1 59.0800000  0  4G13G 6G11G 9
  22877686.010    22877691.582   -35008665.733 9  27353348.303 9
  20511978.723    20511981.758    -5657073.077 8  -8453049.160 8
  20657540.651    20657543.229   -15492259.198 8 -15878387.568 8
  21284249.916    21284253.047   -20326430.163 9  -8011918.421 8
 89 11 12 12  2 29.0800000  0  4G13G 6G11G 9
  22858389.855    22858395.264   -35110065.943 9  27274335.152 7
  20513474.278    20513477.249    -5649212.961 9  -8446924.400 9
  20653980.225    20653984.308   -15510968.389 9 -15892966.146 8
  21271606.539    21271608.735   -20392873.556 9  -8063692.490 8
 89 11 12 12  2 59.0800000  0  4G13G 6G11G 9
  22839152.787    22839158.361   -35211158.751 9  27195561.545 8
  20515062.720    20515066.035    -5640867.384 8  -8440421.369 8
  20650523.987    20650527.663   -15529127.598 9 -15907116.165 8
  21259020.423    21259022.770   -20459013.105 9  -8115229.783 9
 89 11 12 12  3 29.0800000  0  4G13G 6G11G 9
  22819974.666    22819979.243   -35311942.219 9  27117028.982 8
  20516743.129    20516747.420    -5632035.092 9  -8433539.063 9
  20647172.621    20647177.775   -15546737.310 9 -15920837.998 8
  21246492.945    21246495.450   -20524846.139 9  -8166528.244 9
 89 11 12 12  3 59.0800000  0  4G13G 6G11G 9
  22800855.606    22800859.883   -35412414.255 9  27038739.090 9
  20518516.754    20518520.526    -5622715.039 9  -8426276.687 9
  20643926.268    20643931.851   -15563797.706 8 -15934131.811 8
  21234023.597    21234026.403   -20590370.365 9  -8217586.071 8
 89 11 12 12  4 29.0800000  0  4G13G 6G11G 9
  22781795.663    22781800.370   -35512572.245 9  26960693.902 8
  20520383.196    20520386.862    -5612905.942 9  -8418633.225 9
  20640784.545    20640789.124   -15580309.215 8 -15946997.900 8
  21221613.868    21221617.740   -20655582.810 9  -8268400.941 9
 89 11 12 12  4 59.0800000  0  4G13G 6G11G 9
  22762796.446    22762801.956   -35612414.605 9  26882894.678 9
  20522342.550    20522345.913    -5602606.491 9  -8410607.693 9
  20637745.949    20637752.548   -15596272.445 9 -15959436.759 8
  21209264.567    21209268.288   -20720481.144 9  -8318971.070 9
 89 11 12 12  5 29.0800000  0  4G13G 6G11G 9
  22743858.744    22743863.202   -35711938.604 9  26805343.507 9
  20524396.728    20524400.105    -5591815.447 9  -8402199.091 9
  20634813.211    20634817.907   -15611687.785 8 -15971448.714 8
  21196975.206    21196978.358   -20785062.340 9  -8369294.068 9
 89 11 12 12  5 59.0800000  0  4G13G 6G11G 9
  22724980.197    22724983.862   -35811142.782 9  26728041.561 9
  20526543.773    20526546.267    -5580531.540 9  -8393406.439 9
  20631983.273    20631987.979   -15626555.316 9 -15983033.798 8
  21184746.774    21184749.230   -20849324.006 9  -8419368.087 9
 89 11 12 12  6 29.0800000  0  4G13G 6G11G 9
  22706164.035    22706167.849   -35910024.741 9  26650990.693 8
  20528784.855    20528788.187    -5568753.746 9  -8384228.934 8
  20629258.974    20629263.570   -15640875.195 9 -15994192.128 9
  21172579.541    21172582.724   -20913263.599 9  -8469191.132 9
 89 11 12 12  6 59.0800000  0  4G13G 6G11G 9
  22687409.263    22687413.506   -36008582.027 9  26574192.816 9
  20531121.297    20531124.029    -5556480.859 9  -8374665.658 9
  20626638.522    20626642.446   -15654648.476 8 -16004924.555 8
  21160473.627    21160476.438   -20976878.286 9  -8518761.009 9
 89 11 12 12  7 29.0800000  0  4G13G 6G11G 9
  22668715.909    22668720.652   -36106812.517 9  26497649.580 9
  20533550.059    20533554.372    -5543711.734 9  -8364715.690 8
  20624120.980    20624124.974   -15667875.446 8 -16015231.264 9
  21148431.042    21148434.045   -21040165.676 9  -8568075.852 8
 89 11 12 12  7 59.0800000  0  4G13G 6G11G 9
  22650085.964    22650090.307   -36204714.553 9  26421362.288 9
  20536074.924    20536078.792    -5530445.227 9  -8354378.162 8
  20621708.209    20621712.933   -15680556.557 9 -16025112.645 8
  21136450.513    21136452.895   -21103122.969 9  -8617133.474 9
 89 11 12 12  8 29.0800000  0  4G13G 6G11G 9
  22631518.603    22631523.524   -36302285.819 9  26345332.729 8
  20538694.905    20538698.074    -5516680.349 9  -8343652.290 8
  20619398.696    20619402.916   -15692692.801 9 -16034569.454 8
  21124533.589    21124535.908   -21165747.759 9  -8665932.006 8
 89 11 12 12  8 59.0800000  0  4G13G 6G11G 9
  22613015.373    22613018.936   -36399524.526 9  26269562.321 8
  20541408.669    20541412.005    -5502416.053 9  -8332537.254 9
  20617193.024    20617196.760   -15704284.843 9 -16043602.197 8
  21112680.358    21112683.054   -21228037.330 9  -8714469.335 9
 89 11 12 12  9 29.0800000  0  4G13G 6G11G 9
  22594574.532    22594578.381   -36496428.724 9  26194052.557 9
  20544218.488    20544221.416    -5487651.202 9  -8321032.193 9
  20615091.036    20615095.572   -15715332.742 8 -16052210.946 8
  21100890.728    21100893.527   -21289989.065 9  -8762743.406 8
 89 11 12 12  9 59.0800000  0  4G13G 6G11G 9
  22576198.184    22576203.820   -36592995.963 9  26118805.376 9
  20547123.032    20547126.734    -5472384.492 9  -8309136.053 8
  20613091.387    20613096.492   -15725836.968 9 -16060396.033 8
  21089166.903    21089170.206   -21351600.412 9  -8810752.241 8
 89 11 12 12 10 29.0800000  0  4G13G 6G11G 9
  22557887.114    22557890.913   -36689223.990 9  26043822.499 8
  20550125.003    20550127.307    -5456615.123 9  -8296848.239 9
  20611195.964    20611199.297   -15735798.780 8 -16068158.478 9
  21077507.681    21077510.515   -21412868.555 9  -8858493.642 9
 89 11 12 12 10 59.0800000  0  4G13G 6G11G 9
  22539640.241    22539644.292   -36785111.107 9  25969105.261 8
  20553221.652    20553224.630    -5440341.977 8  -8284167.875 9
  20609403.027    20609407.105   -15745218.708 8 -16075498.670 8
  21065914.122    21065917.780   -21473790.802 9  -8905965.530 8
 89 11 12 12 11 29.0800000  0  4G13G 6G11G 9
  22521458.581    22521463.654   -36880655.649 9  25894654.972 9
  20556414.499    20556417.166    -5423564.092 9  -8271094.198 9
  20607712.496    20607718.764   -15754097.403 8 -16082417.126 8
  21054387.386    21054390.838   -21534364.750 9  -8953165.993 9
 89 11 12 12 11 59.0800000  0  4G13G 6G11G 9
  22503343.085    22503347.345   -36975855.284 9  25820473.445 8
  20559703.036    20559705.677    -5406280.639 9  -8257626.583 9
  20606126.972    20606131.826   -15762435.369 8 -16088914.241 8
  21042927.592    21042930.795   -21594587.579 9  -9000092.861 7
 89 11 12 12 12 29.0800000  0  4G13G 6G11G 9
  22485292.538    22485297.126   -37070707.730 9  25746562.449 9
  20563087.864    20563091.580    -5388490.458 9  -8243764.099 9
  20604643.296    20604646.989   -15770233.243 9 -16094990.499 7
  21031534.976    21031537.060   -21654456.890 9  -9046744.272 8
 89 11 12 12 12 59.0800000  0  4G13G 6G11G 9
  22467309.162    22467314.023   -37165210.915 9  25672923.615 9
  20566570.070    20566573.015    -5370192.597 8  -8229506.037 9
  20603261.576    20603265.754   -15777491.860 9 -16100646.538 8
  21020209.505    21020212.302   -21713969.859 9  -9093118.013 8
 89 11 12 12 13 29.0800000  0  4G13G 6G11G 9
  22449392.548    22449397.479   -37259363.151 9  25599558.240 8
  20570147.994    20570152.563    -5351386.212 9  -8214851.728 9
  20601982.595    20601988.235   -15784212.038 9 -16105883.047 8
  21008952.804    21008956.697   -21773123.796 9  -9139211.993 8
 89 11 12 12 13 59.0800000  0  4G13G 6G11G 9
  22431544.251    22431548.036   -37353162.672 9  25526467.712 9
  20573824.891    20573827.576    -5332070.343 9  -8199800.396 9
  20600807.312    20600811.277   -15790394.717 8 -16110700.713 9
  20997765.087    20997768.442   -21831916.200 9  -9185024.250 9
 89 11 12 12 14 29.0800000  0  4G13G 6G11G 9
  22413760.875    22413766.227   -37446607.809 9  25453653.325 8
  20577597.728    20577600.899    -5312244.087 9  -8184351.388 8
  20599732.582    20599736.315   -15796040.512 9 -16115100.022 9
  20986647.600    20986650.285   -21890344.371 9  -9230552.689 9
 89 11 12 12 14 59.0800000  0  4G13G 6G11G 9
  22396046.317    22396051.704   -37539696.755 9  25381116.498 9
  20581467.196    20581470.542    -5291906.667 9  -8168504.056 8
  20598760.129    20598764.783   -15801150.283 9 -16119081.660 8
  20975598.889    20975601.483   -21948405.690 9  -9275795.267 9
 89 11 12 12 15 29.0800000  0  4G13G 6G11G 9
  22378400.632    22378406.261   -37632427.105 9  25308859.086 9
  20585435.087    20585438.233    -5271057.159 9  -8152257.695 8
  20597888.760    20597894.331   -15805725.016 8 -16122646.377 8
  20964620.422    20964623.110   -22006097.653 9  -9320750.030 8
 89 11 12 12 15 59.0800000  0  4G13G 6G11G 9
  22360823.518    22360827.736   -37724797.173 9  25236882.410 8
  20589499.599    20589502.469    -5249694.720 9  -8135611.643 9
  20597119.931    20597124.240   -15809765.605 8 -16125794.874 8
  20953712.061    20953714.857   -22063417.562 9  -9365414.888 9
 89 11 12 12 16 29.0800000  0  4G13G 6G11G 9
  22343314.599    22343318.837   -37816804.640 9  25165188.281 9
  20593663.315    20593666.788    -5227818.669 9  -8118565.376 8
  20596452.968    20596456.060   -15813273.039 9 -16128527.926 9
  20942875.466    20942878.517   -22120362.815 9  -9409787.816 9
 89 11 12 12 16 59.0800000  0  4G13G 6G11G 9
  22325876.368    22325880.271   -37908447.454 9  25093778.303 8
  20597923.530    20597927.947    -5205428.000 9  -8101118.112 9
  20595886.314    20595891.422   -15816248.088 8 -16130846.130 8
  20932112.337    20932114.638   -22176930.871 9  -9453866.817 8
 89 11 12 12 17 29.0800000  0  4G13G 6G11G 9
  22308506.792    22308511.176   -37999724.593 9  25022653.283 9
  20602282.366    20602286.557    -5182522.061 9  -8083269.338 9
  20595422.516    20595426.492   -15818691.567 8 -16132750.146 8
  20921418.583    20921422.198   -22233118.983 9  -9497649.753 9
 89 11 12 12 17 59.0800000  0  4G13G 6G11G 9
  22291206.736    22291210.784   -38090633.751 9  24951814.978 8
  20606740.419    20606742.857    -5159100.083 8  -8065018.446 9
  20595057.575    20595062.582   -15820604.411 8 -16134240.662 8
  20910799.287    20910802.115   -22288924.513 9  -9541134.585 9
 89 11 12 12 18 29.0800000  0  4G13G 6G11G 9
  22273977.991    22273982.306   -38181173.136 9  24881264.816 8
  20611294.326    20611297.801    -5135161.411 9  -8046364.954 9
  20594794.966    20594798.753   -15821987.533 9 -16135318.418 8
  20900253.304    20900256.109   -22344344.819 9  -9584319.213 9
 89 11 12 12 18 59.0800000  0  4G13G 6G11G 9
  22256819.132    22256825.309   -38271341.313 9  24811003.896 9
  20615948.896    20615952.778    -5110705.217 9  -8027308.196 8
  20594631.938    20594636.178   -15822842.047 8 -16135984.264 8
  20889781.731    20889783.772   -22399377.658 9  -9627201.947 9
 89 11 12 12 19 29.0800000  0  4G13G 6G11G 9
  22239732.172    22239736.863   -38361136.288 9  24741033.803 9
  20620702.066    20620705.242    -5085730.978 9  -8007847.752 9
  20594569.754    20594573.448   -15823169.326 9 -16136239.273 8
  20879382.628    20879385.699   -22454020.062 9  -9669780.449 9
 89 11 12 12 19 59.0800000  0  4G13G 6G11G 9
  22222715.741    22222721.454   -38450556.176 9  24671355.976 9
  20625552.916    20625556.659    -5060237.875 9  -7987983.007 8
  20594607.148    20594612.170   -15822970.147 8 -16136084.060 9
  20869059.199    20869062.745   -22508269.724 9  -9712052.899 8
 89 11 12 12 20 29.0800000  0  4G13G 6G11G 9
  22205771.747    22205776.116   -38539599.181 9  24601971.823 9
  20630502.129    20630506.503    -5034225.156 9  -7967713.361 9
  20594745.518    20594750.229   -15822245.443 8 -16135519.344 8
  20858811.744    20858814.759   -22562123.643 9  -9754016.994 9
 89 11 12 12 20 59.0800000  0  4G13G 6G11G 9
  22188899.974    22188904.145   -38628263.583 9  24532882.681 9
  20635551.622    20635554.975    -5007692.255 9  -7947038.389 8
  20594982.726    20594987.992   -15820996.619 9 -16134546.219 8
  20848639.528    20848642.273   -22615579.348 9  -9795670.771 8
 89 11 12 12 21 29.0800000  0  4G13G 6G11G 9
  22172099.774    22172103.988   -38716547.571 9  24464089.976 9
  20640699.206    20640702.798    -4980638.444 9  -7925957.501 9
  20595320.255    20595325.638   -15819224.187 9 -16133165.105 8
  20838543.755    20838547.035   -22668634.205 9  -9837012.206 9
 89 11 12 12 21 59.0800000  0  4G13G 6G11G 9
  22155372.591    22155377.812   -38804449.290 9  24395595.136 8
  20645947.503    20645950.977    -4953063.239 8  -7904470.338 8
  20595757.348    20595761.814   -15816929.639 8 -16131377.132 9
  20828524.089    20828527.944   -22721285.678 8  -9878039.317 9
 89 11 12 12 22 29.0800000  0  4G13G 6G11G 9
  22138718.136    22138723.023   -38891966.668 9  24327399.781 8
  20651294.082    20651297.640    -4924966.131 9  -7882576.506 8
  20596292.269    20596296.666   -15814114.142 8 -16129183.228 9
  20818581.776    20818585.151   -22773531.235 9  -9918750.128 9
 89 11 12 12 22 59.0800000  0  4G13G 6G11G 9
  22122137.880    22122142.106   -38979099.048 9  24259504.441 9
  20656739.919    20656743.682    -4896346.548 9  -7860275.528 9
  20596926.969    20596931.879   -15810778.831 8 -16126584.286 8
  20808717.448    20808721.177   -22825368.360 9  -9959142.692 9
 89 11 12 12 23 29.0800000  0  4G13G 6G11G 9
  22105631.049    22105634.387   -39065844.291 9  24191910.751 9
  20662285.650    20662288.724    -4867203.825 8  -7837566.925 9
  20597660.362    20597664.200   -15806924.709 8 -16123581.061 8
  20798931.371    20798934.394   -22876794.295 9  -9999214.830 9
 89 11 12 12 23 59.0800000  0  4G13G 6G11G 9
  22089198.366    22089202.715   -39152199.979 9  24124620.608 8
  20667930.426    20667934.633    -4837537.589 9  -7814450.384 9
  20598493.146    20598498.345   -15802553.054 8 -16120174.569 9
  20789224.041    20789228.228   -22927806.645 9 -10038964.721 8
 89 11 12 12 24 29.0800000  0  4G13G 6G11G 9
  22072838.911    22072843.619   -39238165.230 9  24057634.707 8
  20673675.917    20673679.304    -4807347.217 8  -7790925.429 8
  20599423.664    20599427.584   -15797664.988 9 -16116365.675 9
  20779595.857    20779599.504   -22978402.760 9 -10078390.251 8
 89 11 12 12 24 59.0800000  0  4G13G 6G11G 9
  22056555.311    22056559.449   -39323738.186 9  23990954.489 9
  20679520.609    20679524.724    -4776632.340 9  -7766991.769 9
  20600450.851    20600455.957   -15792261.909 8 -16112155.485 8
  20770047.983    20770051.781   -23028580.056 8 -10117489.448 9
 89 11 12 12 25 29.0800000  0  4G13G 6G11G 9
  22040346.089    22040350.688   -39408916.949 9  23924581.431 9
  20685465.114    20685469.201    -4745392.292 9  -7742648.882 9
  20601576.586    20601581.179   -15786344.833 8 -16107544.762 9
  20760580.094    20760583.331   -23078335.851 9 -10156260.184 7
 89 11 12 12 25 59.0800000  0  4G13G 6G11G 9
  22024212.192    22024217.243   -39493700.262 9  23858516.537 8
  20691510.440    20691513.355    -4713626.782 9  -7717896.549 9
  20602799.911    20602805.418   -15779915.166 9 -16102534.639 9
  20751191.907    20751195.338   -23127667.556 9 -10194700.477 8
 89 11 12 12 26 29.0800000  0  4G13G 6G11G 9
  22008153.967    22008158.346   -39578086.225 9  23792761.242 8
  20697655.174    20697658.786    -4681335.355 9  -7692734.409 8
  20604120.407    20604125.993   -15772974.239 9 -16097126.104 8
  20741884.945    20741888.388   -23176572.807 9 -10232808.460 7
 89 11 12 12 26 59.0800000  0  4G13G 6G11G 9
  21992171.573    21992176.126   -39662073.377 9  23727316.718 9
  20703898.923    20703903.862    -4648517.736 9  -7667162.255 9
  20605539.286    20605543.434   -15765523.255 9 -16091320.141 8
  20732661.339    20732662.307   -23225049.024 8 -10270582.119 9
 89 11 12 12 27 29.0800000  0  4G13G 6G11G 9
  21976266.021    21976270.701   -39745660.445 9  23662183.948 8
  20710245.132    20710248.881    -4615173.540 8  -7641179.772 9
  20607053.969    20607058.837   -15757563.713 8 -16085117.901 8
  20723517.671    20723521.388   -23273093.823 9 -10308019.618 8
 89 11 12 12 27 59.0800000  0  4G13G 6G11G 9
  21960436.130    21960440.559   -39828845.449 9  23597364.472 8
  20716690.093    20716694.081    -4581302.348 9  -7614786.647 9
  20608665.331    20608670.625   -15749096.660 9 -16078520.179 8
  20714457.823    20714461.071   -23320704.332 9 -10345118.719 9
 89 11 12 12 28 29.0800000  0  4G13G 6G11G 9
  21944683.359    21944686.547   -39911627.122 9  23532859.281 8
  20723236.610    20723240.194    -4546903.847 9  -7587982.636 9
  20610372.825    20610377.041   -15740123.469 9 -16071528.081 8
  20705481.537    20705485.086   -23367878.259 9 -10381877.605 8
 89 11 12 12 28 59.0800000  0  4G13G 6G11G 9
  21929007.438    21929011.584   -39994004.274 9  23468669.301 8
  20729883.348    20729886.073    -4511977.753 9  -7560767.500 9
  20612176.144    20612180.958   -15730645.854 7 -16064142.923 8
  20696588.400    20696590.653   -23414613.007 9 -10418294.285 8
 89 11 12 12 29 29.0800000  0  4G13G 6G11G 9
  21913409.378    21913413.617   -40075974.851 9  23404796.135 8
  20736629.492    20736633.204    -4476523.719 9  -7533140.987 9
  20614075.036    20614079.342   -15720665.017 7 -16056365.641 8
  20687779.177    20687781.656   -23460906.245 8 -10454366.935 9
 89 11 12 12 29 59.0800000  0  4G13G 6G11G 9
  21897888.515    21897892.541   -40157537.559 9  23341240.783 9
  20743476.816    20743480.301    -4440541.528 9  -7505102.936 9
  20616069.668    20616074.826   -15710182.274 9 -16048197.260 8
  20679054.462    20679055.647   -23506755.272 8 -10490093.446 8
 89 11 12 12 30 29.0800000  0  4G13G 6G11G 9
  21882445.595    21882449.480   -40238690.720 9  23278004.562 9
  20750424.018    20750427.590    -4404030.858 9  -7476653.068 9
  20618159.706    20618165.260   -15699199.036 8 -16039638.885 8
  20670414.162    20670417.370   -23552157.730 9 -10525471.982 8
 89 11 12 12 30 59.0800000  0  4G13G 6G11G 9
  21867080.657    21867085.357   -40319433.001 9  23215088.511 8
  20757471.769    20757476.125    -4366991.584 9  -7447791.302 9
  20620345.270    20620349.477   -15687716.798 9 -16030691.685 8
  20661860.164    20661862.769   -23597110.795 9 -10560500.348 8
 89 11 12 12 31 29.0800000  0  4G13G 6G11G 9
  21851794.385    21851799.406   -40399763.000 9  23152493.714 8
  20764621.747    20764625.288    -4329423.525 9  -7418517.509 8
  20622624.437    20622628.854   -15675737.059 8 -16021356.805 9
  20653391.511    20653394.308   -23641612.457 9 -10595176.967 8
 89 11 12 12 31 59.0800000  0  4G13G 6G11G 9
  21836586.105    21836591.077   -40479678.743 9  23090221.714 8
  20771871.730    20771875.444    -4291326.490 9  -7388831.507 9
  20624998.671    20625003.236   -15663261.271 8 -16011635.418 9
  20645008.952    20645013.162   -23685660.024 9 -10629499.740 9
 89 11 12 12 32 29.0800000  0  4G13G 6G11G 9
  21821458.289    21821462.239   -40559179.330 9  23028273.206 8
  20779222.066    20779225.019    -4252700.274 9  -7358733.171 8
  20627467.482    20627471.609   -15650290.904 8 -16001528.643 8
  20636714.382    20636718.191   -23729251.066 8 -10663466.769 9
 89 11 12 12 32 59.0800000  0  4G13G 6G11G 9
  21806409.464    21806413.326   -40638263.501 9  22966649.190 9
  20786672.607    20786675.906    -4213544.617 9  -7328222.283 9
  20630029.092    20630034.267   -15636827.556 8 -15991037.703 8
  20628506.643    20628509.689   -23772382.963 9 -10697076.036 9
 89 11 12 12 33 29.0800000  0  4G13G 6G11G 9
  21791439.896    21791443.858   -40716929.390 9  22905351.105 8
  20794224.816    20794228.498    -4173859.368 9  -7297298.714 9
  20632685.296    20632688.999   -15622872.478 8 -15980163.614 8
  20620385.710    20620390.212   -23815053.393 9 -10730325.728 8
 89 11 12 12 33 59.0800000  0  4G13G 6G11G 9
  21776549.953    21776553.481   -40795175.969 9  22844379.753 9
  20801877.761    20801881.632    -4133644.682 9  -7265962.618 9
  20635432.831    20635436.533   -15608427.311 9 -15968907.635 8
  20612355.313    20612359.052   -23857259.815 9 -10763213.844 8
 89 11 12 12 34 29.0800000  0  4G13G 6G11G 9
  21761739.993    21761744.813   -40873001.584 9  22783736.427 8
  20809631.743    20809633.985    -4092900.403 9  -7234213.831 8
  20638275.766    20638279.222   -15593493.551 8 -15957270.929 8
  20604413.317    20604415.773   -23898999.995 9 -10795738.648 9
 89 11 12 12 34 59.0800000  0  4G13G 6G11G 9
  21747010.326    21747014.254   -40950404.854 9  22723422.199 8
  20817485.818    20817488.616    -4051626.619 9  -7202052.457 9
  20641209.637    20641213.100   -15578072.928 8 -15945254.848 8
  20596558.497    20596561.034   -23940271.277 9 -10827898.089 9
 89 11 12 12 35 29.0800000  0  4G13G 6G11G 9
  21732362.031    21732365.858   -41027385.386 9  22663437.382 9
  20825440.432    20825443.985    -4009823.217 9  -7169478.394 9
  20644237.496    20644241.320   -15562167.019 9 -15932860.632 8
  20588794.979    20588797.598   -23981071.582 9 -10859690.529 9
 89 11 12 12 35 59.0800000  0  4G13G 6G11G 9
  21717793.578    21717797.050   -41103941.095 9  22603783.590 8
  20833495.550    20833499.752    -3967490.160 9  -7136491.602 9
  20647355.181    20647359.081   -15545777.572 7 -15920089.635 8
  20581120.564    20581123.149   -24021398.407 9 -10891114.030 8
 89 11 12 12 36 29.0800000  0  4G13G 6G11G 9
  21703306.757    21703310.411   -41180070.840 9  22544461.726 8
  20841652.093    20841656.050    -3924627.508 9  -7103092.148 9
  20650565.867    20650569.704   -15528906.276 8 -15906943.173 7
  20573537.920    20573540.616   -24061249.323 9 -10922166.687 8
 89 11 12 12 36 59.0800000  0  4G13G 6G11G 9
  21688901.445    21688905.019   -41255773.107 9  22485472.939 8
  20849909.687    20849912.772    -3881235.211 9  -7069279.974 9
  20653867.655    20653872.471   -15511554.421 9 -15893422.249 8
  20566045.223    20566047.395   -24100621.821 8 -10952846.554 9
 89 11 12 12 37 29.0800000  0  4G13G 6G11G 9
  21674577.374    21674581.401   -41331046.699 9  22426818.210 8
  20858267.532    20858270.717    -3837313.423 9  -7035055.217 9
  20657260.646    20657265.348   -15493723.823 7 -15879528.277 8
  20558644.302    20558646.962   -24139513.716 8 -10983151.919 8
 89 11 12 12 37 59.0800000  0  4G13G 6G11G 9
  21660334.363    21660338.400   -41405890.597 9  22368498.293 9
  20866726.430    20866730.543    -3792862.142 9  -7000417.863 9
  20660744.934    20660748.763   -15475416.074 8 -15865262.493 9
  20551334.855    20551338.289   -24177922.566 9 -11013080.884 7
 89 11 12 12 38 29.0800000  0  4G13G 6G11G 9
  21646174.068    21646177.051   -41480303.469 9  22310514.251 8
  20875285.732    20875289.732    -3747881.573 9  -6965368.082 8
  20664318.166    20664323.015   -15456632.625 9 -15850626.030 9
  20544117.650    20544120.842   -24215845.885 8 -11042631.523 9
 89 11 12 12 38 59.0800000  0  4G13G 6G11G 9
  21632096.617    21632099.233   -41554284.352 9  22252866.818 8
  20883946.346    20883950.032    -3702371.763 9  -6929905.903 9
  20667984.581    20667988.602   -15437375.363 9 -15835620.362 8
  20536995.066    20536997.033   -24253281.780 8 -11071802.351 8
 89 11 12 12 39 29.0800000  0  4G13G 6G11G 9
  21618100.482    21618105.140   -41627832.021 9  22195556.955 9
  20892707.522    20892710.695    -3656333.003 9  -6894031.557 8
  20671738.678    20671743.056   -15417646.250 9 -15820247.032 7
  20529964.052    20529966.211   -24290227.639 9 -11100591.327 9
 89 11 12 12 39 59.0800000  0  4G13G 6G11G 9
  21604187.857    21604191.633   -41700945.085 9  22138585.741 8
  20901569.351    20901571.952    -3609765.305 9  -6857745.052 8
  20675582.434    20675586.396   -15397446.656 8 -15804507.077 8
  20523026.867    20523030.453   -24326681.144 9 -11128996.663 8
 89 11 12 12 40 29.0800000  0  4G13G 6G11G 9
  21590357.783    21590361.042   -41773622.316 9  22081954.141 8
  20910530.716    20910534.257    -3562668.931 9  -6821046.589 9
  20679514.681    20679518.557   -15376778.409 8 -15788401.958 8
  20516183.948    20516187.053   -24362640.065 9 -11157016.587 9
 89 11 12 12 40 59.0800000  0  4G13G 6G11G 9
  21576610.529    21576613.657   -41845862.181 9  22025663.349 9
  20919593.718    20919596.958    -3515044.172 9  -6783936.402 9
  20683536.447    20683540.247   -15355643.617 9 -15771933.282 8
  20509435.767    20509438.912   -24398102.198 8 -11184649.422 8
 89 11 12 12 41 29.0800000  0  4G13G 6G11G 9
  21562946.697    21562951.342   -41917664.181 9  21969713.741 9
  20928756.441    20928760.367    -3466891.205 9  -6746414.624 9
  20687646.898    20687649.655   -15334043.684 8 -15755102.160 8
  20502782.756    20502785.830   -24433065.074 9 -11211893.231 8
 89 11 12 12 41 59.0800000  0  4G13G 6G11G 9
  21549366.754    21549371.247   -41989027.287 9  21914106.136 9
  20938020.973    20938023.313    -3418210.420 9  -6708481.553 9
  20691845.886    20691849.314   -15311980.539 8 -15737910.094 8
  20496225.654    20496227.640   -24467526.530 8 -11238746.316 8
 89 11 12 12 42 29.0800000  0  4G13G 6G11G 9
  21535871.458    21535875.546   -42059950.304 9  21858841.466 8
  20947384.354    20947387.908    -3369001.916 9  -6670137.274 9
  20696132.545    20696135.977   -15289455.715 9 -15720358.286 8
  20489762.682    20489765.484   -24501484.465 9 -11265207.045 8
 89 11 12 12 42 59.0800000  0  4G13G 6G11G 9
  21522458.733    21522462.661   -42130432.139 9  21803920.568 9
  20956849.172    20956852.699    -3319265.924 9  -6631381.966 9
  20700506.207    20700509.740   -15266471.186 8 -15702448.259 8
  20483396.424    20483400.611   -24534936.378 8 -11291273.455 9
 89 11 12 12 43 29.0800000  0  4G13G 6G11G 9
  21509130.538    21509135.982   -42200471.732 9  21749344.266 8
  20966413.266    20966417.883    -3269002.817 9  -6592215.933 9
  20704965.988    20704971.090   -15243028.681 9 -15684181.368 8
  20477128.322    20477132.000   -24567879.894 9 -11316943.727 8
 89 11 12 12 43 59.0800000  0  4G13G 6G11G 9
  21495887.856    21495891.292   -42270067.722 9  21695113.634 8
  20976078.298    20976081.886    -3218213.164 9  -6552639.582 9
  20709513.811    20709518.384   -15219130.114 8 -15665559.102 7
  20470956.610    20470958.219   -24600313.236 7 -11342216.470 7
 89 11 12 12 44 29.0800000  0  4G13G 6G11G 9
  21482727.759    21482731.882   -42339219.462 9  21641229.177 8
  20985843.427    20985847.912    -3166897.165 9  -6512653.105 9
  20714148.572    20714152.233   -15194777.301 9 -15646582.888 8
  20464880.715    20464885.169   -24632234.059 8 -11367089.818 7
 89 11 12 12 44 59.0800000  0  4G13G 6G11G 9
  21469653.223    21469657.618   -42407926.016 9  21587691.605 8
  20995708.988    20995711.324    -3115055.200 9  -6472256.780 9
  20718869.107    20718873.576   -15169972.078 8 -15627254.137 8
  20458906.295    20458908.639   -24663640.100 8 -11391562.062 8
 89 11 12 12 45 29.0800000  0  4G13G 6G11G 9
  21456663.548    21456669.310   -42476186.218 9  21534501.847 8
  21005674.512    21005677.709    -3062687.683 9  -6431450.943 9
  20723675.972    20723678.866   -15144716.224 9 -15607574.250 8
  20453028.390    20453030.567   -24694529.343 9 -11415631.614 8
 89 11 12 12 45 59.0800000  0  4G13G 6G11G 9
  21443759.664    21443763.664   -42543998.940 9  21481660.787 8
  21015739.442    21015742.599    -3009795.089 9  -6390235.945 9
  20728566.530    20728571.001   -15119011.306 8 -15587544.432 9
  20447248.648    20447251.233   -24724899.461 8 -11439296.644 8
 89 11 12 12 46 29.0800000  0  4G13G 6G11G 9
  21430940.497    21430944.468   -42611363.475 9  21429168.947 8
  21025904.409    21025907.852    -2956377.891 9  -6348612.165 9
  20733542.994    20733547.326   -15092859.534 8 -15567166.430 8
  20441569.374    20441571.288   -24754748.335 8 -11462555.504 8
 89 11 12 12 46 59.0800000  0  4G13G 6G11G 9
  21418207.065    21418211.329   -42678278.975 9  21377027.009 8
  21036169.142    21036172.125    -2902436.582 9  -6306580.001 9
  20738604.173    20738608.653   -15066263.015 8 -15546441.859 8
  20435988.571    20435990.688   -24784073.876 7 -11485406.572 8
 89 11 12 12 47 29.0800000  0  4G13G 6G11G 9
  21405559.381    21405563.171   -42744745.053 9  21325235.273 8
  21046532.991    21046536.875    -2847971.760 9  -6264139.895 9
  20743749.778    20743753.523   -15039223.341 8 -15525371.994 8
  20430508.069    20430510.088   -24812874.098 8 -11507848.304 8
 89 11 12 12 47 59.0800000  0  4G13G 6G11G 9
  21392995.962    21393001.009   -42810759.843 9  21273795.189 9
  21056996.893    21057000.704    -2792983.753 9  -6221292.110 9
  20748979.553    20748983.200   -15011742.555 8 -15503958.386 8
  20425128.183    20425131.084   -24841146.825 8 -11529879.006 8
 89 11 12 12 48 29.0800000  0  4G13G 6G11G 9
  21380520.991    21380525.012   -42876322.513 9  21222707.403 8
  21067560.683    21067564.071    -2737473.234 9  -6178037.158 9
  20754292.822    20754295.922   -14983822.564 9 -15482202.556 8
  20419847.993    20419852.015   -24868889.941 8 -11551497.024 8
 89 11 12 12 48 59.0800000  0  4G13G 6G11G 9
  21368130.104    21368134.058   -42941432.576 9  21171972.291 8
  21078222.968    21078226.996    -2681440.771 9  -6134375.514 9
  20759688.451    20759691.834   -14955465.209 9 -15460105.904 7
  20414669.963    20414672.987   -24896101.459 7 -11572700.782 8
 89 11 12 12 49 29.0800000  0  4G13G 6G11G 9
  21355826.955    21355831.587   -43006089.243 9  21121590.484 8
  21088984.885    21088988.511    -2624886.997 9  -6090307.651 9
  20765166.193    20765170.657   -14926672.777 9 -15437670.245 7
  20409593.030    20409596.320   -24922779.365 8 -11593488.771 8
 89 11 12 12 49 59.0800000  0  4G13G 6G11G 9
  21343609.814    21343613.885   -43070291.797 9  21071562.526 8
  21099846.767    21099849.907    -2567812.396 9  -6045833.961 8
  20770729.040    20770732.388   -14897446.918 8 -15414896.851 9
  20404618.789    20404622.461   -24948921.581 8 -11613859.321 8
 89 11 12 12 50 29.0800000  0  4G13G 6G11G 9
  21331478.490    21331482.253   -43134039.372 9  21021889.101 8
  21110806.380    21110809.581    -2510217.615 9  -6000954.918 9
  20776372.683    20776375.909   -14867789.696 9 -15391787.333 8
  20399747.045    20399749.160   -24974526.216 8 -11633810.993 7
 89 11 12 12 50 59.0800000  0  4G13G 6G11G 9
  21319434.417    21319438.115   -43197331.160 9  20972570.832 8
  21121864.741    21121868.727    -2452103.287 9  -5955671.044 9
  20782097.261    20782102.259   -14837703.239 9 -15368343.331 8
  20394975.885    20394979.997   -24999590.948 8 -11653341.954 8
 89 11 12 12 51 29.0800000  0  4G13G 6G11G 9
  21307477.035    21307481.149   -43260166.111 9  20923608.545 8
  21133021.809    21133025.236    -2393470.162 9  -5909982.896 9
  20787904.844    20787908.277   -14807189.380 8 -15344566.303 8
  20390309.998    20390313.181   -25024113.894 7 -11672450.736 8
 89 11 12 12 51 59.0800000  0  4G13G 6G11G 9
  21295606.927    21295611.065   -43322544.233 9  20875002.234 8
  21144278.537    21144282.022    -2334318.976 9  -5863891.087 8
  20793792.063    20793795.719   -14776249.855 8 -15320457.581 8
  20385747.081    20385749.543   -25048093.290 7 -11691135.993 7
 89 11 12 12 52 29.0800000  0  4G13G 6G11G 9
  21283824.267    21283828.949   -43384464.334 9  20826752.811 8
  21155632.827    21155636.939    -2274650.515 9  -5817396.191 9
  20799760.089    20799765.285   -14744886.901 9 -15296018.911 8
  20381286.541    20381290.722   -25071527.187 7 -11709396.172 8
 89 11 12 12 52 59.0800000  0  4G13G 6G11G 9
  21272128.381    21272132.022   -43445925.361 9  20778861.108 8
  21167085.565    21167089.677    -2214465.281 9  -5770498.616 9
  20805808.327    20805811.886   -14713102.712 8 -15271252.008 9
  20376932.555    20376935.711   -25094413.451 8 -11727229.627 8
 89 11 12 12 53 29.0800000  0  4G13G 6G11G 9
  21260519.858    21260524.184   -43506927.018 9  20731327.363 8
  21178637.032    21178641.005    -2153764.083 9  -5723198.998 9
  20811937.363    20811941.171   -14680899.075 9 -15246158.275 8
  20372680.318    20372686.430   -25116750.268 7 -11744634.940 7
 89 11 12 12 53 59.0800000  0  4G13G 6G11G 9
  21248999.494    21249004.238   -43567468.357 9  20684152.305 9
  21190285.924    21190289.407    -2092547.769 9  -5675497.983 9
  20818143.980    20818147.514   -14648278.167 8 -15220739.384 8
  20368535.913    20368539.500   -25138535.625 7 -11761610.546 8
 89 11 12 12 54 29.0800000  0  4G13G 6G11G 9
  21237566.576    21237571.792   -43627549.096 9  20637336.159 7
  21202033.428    21202036.513    -2030817.261 9  -5627396.315 9
  20824430.420    20824434.955   -14615242.073 9 -15194996.976 8
  20364495.475    20364499.721   -25159767.918 7 -11778155.190 8
 89 11 12 12 54 59.0800000  0  4G13G 6G11G 9
  21226221.161    21226225.735   -43687168.266 9  20590879.666 8
  21213877.464    21213881.753    -1968573.193 9  -5578894.449 9
  20830795.627    20830800.376   -14581792.622 9 -15168932.470 8
  20360561.857    20360564.351   -25180444.947 8 -11794267.164 7
 89 11 12 12 55 29.0800000  0  4G13G 6G11G 9
  21214964.453    21214969.003   -43746325.478 9  20544783.142 7
  21225820.678    21225823.632    -1905816.465 9  -5529993.123 9
  20837239.079    20837242.500   -14547932.027 9 -15142547.592 9
  20356732.552    20356735.726   -25200565.155 8 -11809945.248 7
 89 11 12 12 55 59.0800000  0  4G13G 6G11G 9
  21203795.287    21203798.820   -43805020.011 9  20499047.161 7
  21237859.548    21237862.815    -1842548.010 9  -5480693.039 9
  20843760.599    20843765.099   -14513662.579 8 -15115844.123 9
  20353009.219    20353012.570   -25220126.792 7 -11825188.085 8
 89 11 12 12 56 29.0800000  0  4G13G 6G11G 9
  21192713.778    21192718.690   -43863251.486 9  20453671.996 8
  21249996.391    21249999.648    -1778768.836 9  -5430994.997 9
  20850357.935    20850363.256   -14478986.292 9 -15088823.651 8
  20349393.933    20349397.541   -25239127.912 8 -11839994.145 8
 89 11 12 12 56 59.0800000  0  4G13G 6G11G 9
  21181721.310    21181724.932   -43921019.258 9  20408658.157 7
  21262229.840    21262233.811    -1714479.838 9  -5380899.688 9
  20857034.746    20857039.238   -14443905.028 9 -15061487.590 8
  20345885.058    20345889.582   -25257566.699 8 -11854362.036 7
 89 11 12 12 57 29.0800000  0  4G13G 6G11G 9
  21170816.741    21170820.792   -43978322.440 9  20364006.341 9
  21274559.545    21274564.244    -1649681.774 9  -5330407.698 9
  20863787.700    20863791.494   -14408420.828 8 -15033837.563 8
  20342483.255    20342486.726   -25275441.518 8 -11868290.476 7
 89 11 12 12 57 59.0800000  0  4G13G 6G11G 9
  21160000.991    21160004.456   -44035160.908 9  20319716.639 9
  21286988.210    21286992.010    -1584375.717 9  -5279519.877 9
  20870616.066    20870619.451   -14372536.125 9 -15005875.465 8
  20339189.516    20339193.016   -25292750.341 9 -11881777.874 7
 89 11 12 12 58 29.0800000  0  4G13G 6G11G 9
  21149272.798    21149278.451   -44091534.080 9  20275789.508 8
  21299511.603    21299515.473    -1518562.749 9  -5228237.063 9
  20877520.646    20877524.918   -14336252.957 9 -14977602.869 8
  20336005.698    20336007.022   -25309491.973 8 -11894823.302 7
 89 11 12 12 58 59.0800000  0  4G13G 6G11G 9
  21138634.082    21138638.573   -44147442.335 9  20232224.637 8
  21312131.471    21312134.640    -1452243.847 9  -5176560.007 9
  20884500.155    20884504.072   -14299573.482 9 -14949021.450 8
  20332927.666    20332929.259   -25325664.537 8 -11907425.300 8
 89 11 12 12 59 29.0800000  0  4G13G 6G11G 9
  21128083.501    21128087.922   -44202883.947 9  20189023.388 9
  21324847.825    21324851.710    -1385419.906 9  -5124489.419 8
  20891555.480    20891558.972   -14262499.452 9 -14920132.607 8
  20329958.609    20329961.467   -25341266.224 8 -11919582.459 8
 89 11 12 12 59 59.0800000  0  4G13G 6G11G 9
  21117621.881    21117627.062   -44257859.261 9  20146185.488 9
  21337659.962    21337663.934    -1318092.180 9  -5072026.270 9
  20898683.537    20898688.940   -14225033.482 9 -14890938.341 8
  20327098.781    20327101.024   -25356295.455 8 -11931293.546 8
 89 11 12 13  0 29.0800000  0  4G13G 6G11G 9
  21107249.818    21107253.923   -44312367.874 9  20103711.252 8
  21350568.130    21350571.598    -1250261.631 9  -5019171.313 8
  20905888.668    20905892.410   -14187177.719 9 -14861440.351 8
  20324346.817    20324350.274   -25370750.566 9 -11942557.283 7
 89 11 12 13  0 59.0800000  0  4G13G 6G11G 9
  21096966.032    21096969.602   -44366408.948 9  20061601.343 9
  21363570.965    21363574.394    -1181929.192 9  -4965925.270 9
  20913166.149    20913170.288   -14148933.899 8 -14831639.970 8
  20321706.510    20321708.937   -25384630.020 8 -11953372.435 8
 89 11 12 13  1 29.0800000  0  4G13G 6G11G 9
  21086771.823    21086776.043   -44419982.167 9  20019855.989 7
  21376669.376    21376672.600    -1113096.137 9  -4912289.139 9
  20920517.842    20920521.584   -14110304.315 8 -14801539.004 9
  20319175.918    20319178.194   -25397932.071 8 -11963737.674 7
 89 11 12 13  1 59.0800000  0  4G13G 6G11G 9
  21076666.229    21076669.555   -44473087.381 9  19978475.316 9
  21389862.870    21389866.225    -1043763.526 9  -4858263.756 9
  20927941.476    20927945.290   -14071291.058 9 -14771139.063 8
  20316753.931    20316757.435   -25410655.227 8 -11973651.812 8
 89 11 12 13  2 29.0800000  0  4G13G 6G11G 9
  21066649.533    21066654.236   -44525723.474 9  19937460.185 8
  21403151.891    21403155.146     -973932.412 9  -4803849.913 9
  20935437.261    20935441.188   -14031896.294 8 -14740441.842 9
  20314442.993    20314446.791   -25422797.757 9 -11983113.522 8
 89 11 12 13  2 59.0800000  0  4G13G 6G11G 9
  21056722.505    21056725.933   -44577890.743 9  19896810.365 8
  21416534.607    21416538.278     -903603.957 9  -4749048.535 8
  20943006.774    20943009.944   -13992122.408 9 -14709449.207 8
  20312243.078    20312246.430   -25434358.244 9 -11992121.699 8
 89 11 12 13  3 29.0800000  0  4G13G 6G11G 9
  21046884.518    21046889.175   -44629588.908 9  19856526.098 8
  21430011.380    21430015.106     -832779.518 9  -4693860.666 9
  20950647.021    20950650.303   -13951971.648 9 -14678162.906 9
  20310154.988    20310157.490   -25445335.196 8 -12000675.179 7
 89 11 12 13  3 59.0800000  0  4G13G 6G11G 9
  21037135.897    21037141.356   -44680817.503 9  19816607.725 8
  21443583.165    21443588.066     -761460.038 9  -4638287.078 8
  20958359.198    20958363.123   -13911445.926 9 -14646584.427 8
  20308176.301    20308179.364   -25455726.979 8 -12008772.676 7
 89 11 12 13  4 29.0800000  0  4G13G 6G11G 9
  21027477.065    21027480.041   -44731576.300 9  19777055.419 8
  21457249.092    21457252.718     -689646.811 9  -4582328.729 9
  20966140.259    20966144.186   -13870547.316 8 -14614715.376 8
  20306311.667    20306314.106   -25465532.205 8 -12016413.112 7
 89 11 12 13  4 59.0800000  0  4G13G 6G11G 9
  21017907.293    21017912.109   -44781865.788 9  19737868.801 9
  21471008.639    21471012.354     -617341.415 9  -4525986.864 9
  20973994.153    20973997.970   -13829278.237 8 -14582557.658 8
  20304557.281    20304560.099   -25474749.668 7 -12023595.551 8
 89 11 12 13  5 29.0800000  0  4G13G 6G11G 9
  21008427.586    21008430.135   -44831684.781 9  19699048.821 8
  21484861.127    21484864.512     -544544.907 9  -4469262.343 9
  20981918.375    20981921.542   -13787641.048 9 -14550113.091 8
  20302914.700    20302919.172   -25483377.623 8 -12030318.631 7
 89 11 12 13  5 59.0800000  0  4G13G 6G11G 9
  20999036.431    20999040.051   -44881033.540 9  19660595.255 8
  21498807.715    21498811.371     -471258.603 9  -4412156.140 9
  20989910.651    20989914.822   -13745637.646 9 -14517383.177 9
  20301385.642    20301388.759   -25491414.894 8 -12036581.444 7
 89 11 12 13  6 29.0800000  0  4G13G 6G11G 9
  20989735.388    20989739.229   -44929911.671 9  19622508.415 8
  21512846.622    21512849.922     -397483.717 9  -4354669.230 9
  20997973.294    20997977.239   -13703270.464 8 -14484369.787 8
  20299968.746    20299971.798   -25498859.999 7 -12042382.829 7
 89 11 12 13  6 59.0800000  0  4G13G 6G11G 9
  20980523.397    20980527.252   -44978318.842 9  19584788.551 8
  21526977.655    21526981.426     -323221.663 9  -4296802.714 9
  21006104.546    21006107.831   -13660541.698 9 -14451074.645 8
  20298665.501    20298667.737   -25505711.541 8 -12047721.696 8
 89 11 12 13  7 29.0800000  0  4G13G 6G11G 9
  20971401.388    20971404.448   -45026254.769 9  19547435.887 8
  21541202.525    21541205.711     -248473.725 9  -4238557.582 9
  21014302.895    21014307.513   -13617453.562 9 -14417499.475 8
  20297475.277    20297477.086   -25511968.286 8 -12052597.078 8
 89 11 12 13  7 59.0800000  0  4G13G 6G11G 9
  20962369.609    20962373.396   -45073719.954 9  19510450.050 9
  21555518.690    21555521.088     -173241.182 9  -4179934.847 9
  21022570.546    21022575.713   -13574008.034 9 -14383645.824 8
  20296397.407    20296401.108   -25517628.730 9 -12057007.829 7
 89 11 12 13  8 29.0800000  0  4G13G 6G11G 9
  20953427.095    20953430.466   -45120713.989 9  19473831.324 8
  21569926.790    21569929.818      -97525.555 9  -4120935.673 8
  21030906.145    21030909.929   -13530207.531 9 -14349515.573 8
  20295433.655    20295437.292   -25522691.807 8 -12060953.080 7
 89 11 12 13  8 59.0800000  0  4G13G 6G11G 9
  20944573.572    20944577.522   -45167236.812 9  19437579.787 8
  21584426.424    21584430.152      -21328.213 9  -4061561.139 9
  21039307.867    21039312.064   -13486054.388 9 -14315110.516 9
  20294583.866    20294588.179   -25527156.163 8 -12064431.803 7
 89 11 12 13  9 29.0800000  0  4G13G 6G11G 9
  20935810.262    20935814.555   -45213288.230 9  19401695.572 8
  21599017.183    21599020.610       55349.475 9  -4001812.313 9
  21047776.301    21047779.952   -13441550.812 8 -14280432.409 9
  20293849.191    20293852.198   -25531020.530 6 -12067443.007 8
 89 11 12 13  9 59.0800000  0  4G13G 6G11G 9
  20927137.126    20927140.551   -45258868.160 9  19366178.763 8
  21613699.919    21613703.675      132505.910 9  -3941690.431 9
  21056311.800    21056316.054   -13396698.708 9 -14245482.718 8
  20293227.856    20293230.416   -25534283.919 8 -12069985.907 8
 89 11 12 13 10 29.0800000  0  4G13G 6G11G 9
  20918553.365    20918556.844   -45303976.495 9  19331029.425 8
  21628473.388    21628477.318      210139.678 9  -3881196.606 9
  21064912.915    21064917.029   -13351500.819 8 -14210263.580 7
  20292721.631    20292725.253   -25536944.940 8 -12072059.444 8
 89 11 12 13 10 59.0800000  0  4G13G 6G11G 9
  20910058.751    20910061.810   -45348613.240 9  19296247.551 8
  21643337.540    21643340.365      288249.231 9  -3820332.038 9
  21073578.894    21073582.590   -13305958.957 9 -14174776.423 9
  20292330.261    20292333.624   -25539002.479 8 -12073662.720 7
 89 11 12 13 11 29.0800000  0  4G13G 6G11G 9
  20901654.488    20901659.187   -45392778.730 9  19261832.897 8
  21658291.749    21658294.961      366833.203 9  -3759097.793 9
  21082310.726    21082314.500   -13260075.286 9 -14139022.918 9
  20292053.607    20292056.863   -25540455.310 8 -12074794.801 8
 89 11 12 13 11 59.0800000  0  4G13G 6G11G 9
  20893339.384    20893344.370   -45436472.837 9  19227785.552 8
  21673335.506    21673338.731      445890.105 9  -3697495.030 9
  21091106.357    21091111.161   -13213852.369 9 -14103005.068 8
  20291891.271    20291896.168   -25541302.411 7 -12075454.898 7
 89 11 12 13 12 29.0800000  0  4G13G 6G11G 9
  20885114.921    20885118.088   -45479695.674 9  19194105.427 8
  21688469.296    21688472.767      525418.249 9  -3635525.072 9
  21099965.908    21099970.445   -13167292.441 9 -14066724.601 9
  20291845.792    20291851.144   -25541542.720 9 -12075642.151 8
 89 11 12 13 12 59.0800000  0  4G13G 6G11G 9
  20876978.828    20876983.898   -45522447.082 9  19160792.657 8
  21703691.661    21703695.489      605416.217 9  -3573189.016 9
  21108890.402    21108894.808   -13120397.789 8 -14030183.324 8
  20291916.133    20291920.050   -25541175.017 8 -12075355.642 8
 89 11 12 13 13 29.0800000  0  4G13G 6G11G 9
  20868933.847    20868937.610   -45564727.566 9  19127846.829 9
  21719003.487    21719007.816      685882.397 9  -3510488.123 9
  21117876.741    21117881.364   -13073170.543 8 -13993382.877 8
  20292102.206    20292105.575   -25540198.254 7 -12074594.513 7
 89 11 12 13 13 59.0800000  0  4G13G 6G11G 9
  20860978.139    20860981.314   -45606536.490 9  19095268.457 8
  21734404.616    21734408.802      766815.170 9  -3447423.641 9
  21126926.116    21126930.840   -13025613.081 9 -13956325.120 9
  20292403.976    20292408.322   -25538611.650 6 -12073358.218 9
 89 11 12 13 14 29.0800000  0  4G13G 6G11G 9
  20853111.428    20853114.375   -45647874.066 9  19063057.378 8
  21749894.062    21749898.191      848212.999 9  -3383996.777 9
  21136038.691    21136043.197   -12977727.703 9 -13919011.851 9
  20292821.859    20292826.105   -25536413.914 8 -12071645.692 8
 89 11 12 13 14 59.0800000  0  4G13G 6G11G 9
  20845333.745    20845338.362   -45688740.512 9  19031213.400 8
  21765472.211    21765476.440      930074.256 9  -3320208.795 8
  21145213.857    21145217.661   -12929516.542 9 -13881444.702 8
  20293358.047    20293360.669   -25533604.222 7 -12069456.332 8
 89 11 12 13 15 29.0800000  0  4G13G 6G11G 9
  20837647.358    20837651.961   -45729136.003 9  18999736.404 8
  21781138.232    21781141.056     1012397.395 9  -3256060.910 9
  21154448.608    21154452.648   -12880981.793 9 -13843625.425 9
  20294008.294    20294012.185   -25530181.316 7 -12066789.134 9
 89 11 12 13 15 59.0800000  0  4G13G 6G11G 9
  20830050.226    20830054.051   -45769060.748 9  18968626.220 7
  21796891.211    21796894.823     1095180.585 9  -3191554.548 9
  21163746.140    21163749.988   -12832125.794 9 -13805555.827 9
  20294776.896    20294780.281   -25526144.724 7 -12063643.736 8
 89 11 12 13 16 29.0800000  0  4G13G 6G11G 9
  20822542.376    20822546.108   -45808515.279 9  18937882.441 8
  21812731.859    21812734.985     1178422.124 9  -3126691.035 9
  21173103.410    21173107.959   -12782950.880 9 -13767237.723 9
  20295662.622    20295665.465   -25521493.428 8 -12060019.359 8
 89 11 12 13 16 59.0800000  0  4G13G 6G11G 9
  20815123.842    20815127.695   -45847498.891 9  18907505.617 8
  21828657.977    21828662.407     1262120.408 9  -3061471.610 9
  21182522.086    21182526.092   -12733458.872 8 -13728672.519 9
  20296664.263    20296666.975   -25516226.472 7 -12055915.238 8
 89 11 12 13 17 29.0800000  0  4G13G 6G11G 9
  20807794.568    20807798.662   -45886012.599 9  18877494.939 8
  21844672.242    21844676.514     1346273.685 9  -2995897.654 9
  21191999.456    21192003.670   -12683652.330 9 -13689862.240 9
  20297783.706    20297787.149   -25510343.092 8 -12051330.789 7
 89 11 12 13 17 59.0800000  0  4G13G 6G11G 9
  20800555.372    20800559.728   -45924056.498 9  18847850.358 8
  21860773.207    21860776.016     1430880.240 9  -2929970.485 9
  21201537.417    21201540.856   -12633533.602 8 -13650808.695 8
  20299020.542    20299024.056   -25503842.297 9 -12046265.242 8
 89 11 12 13 18 29.0800000  0  4G13G 6G11G 9
  20793405.551    20793409.211   -45961630.379 9  18818572.023 9
  21876959.268    21876962.263     1515938.499 9  -2863691.342 9
  21211132.179    21211136.857   -12583104.710 9 -13611513.460 8
  20300375.449    20300377.518   -25496723.492 8 -12040718.125 8
 89 11 12 13 18 59.0800000  0  4G13G 6G11G 9
  20786344.216    20786349.118   -45998734.586 9  18789659.663 8
  21893230.723    21893234.450     1601446.490 9  -2797061.759 9
  21220788.520    21220792.672   -12532368.313 9 -13571978.611 8
  20301847.678    20301850.915   -25488985.635 7 -12034688.645 8
 89 11 12 13 19 29.0800000  0  4G13G 6G11G 9
  20779372.866    20779377.437   -46035369.931 9  18761112.651 8
  21909587.191    21909590.863     1687402.518 9  -2730083.054 9
  21230500.755    21230505.991   -12481326.526 9 -13532205.797 9
  20303438.027    20303442.123   -25480628.120 8 -12028176.297 7
 89 11 12 13 19 59.0800000  0  4G13G 6G11G 9
  20772490.726    20772495.228   -46071536.754 9  18732930.727 8
  21926028.756    21926032.899     1773804.900 9  -2662756.541 9
  21240271.363    21240276.834   -12429981.426 9 -13492196.629 9
  20305147.250    20305149.886   -25471650.235 8 -12021180.552 8
 89 11 12 13 20 29.0800000  0  4G13G 6G11G 9
  20765697.700    20765701.898   -46107235.658 9  18705113.414 8
  21942555.819    21942558.845     1860651.620 9  -2595083.795 9
  21250099.544    21250103.494   -12378335.350 9 -13451952.941 8
  20306972.165    20306976.295   -25462051.327 7 -12013700.872 7
 89 11 12 13 20 59.0800000  0  4G13G 6G11G 9
  20758994.167    20758998.346   -46142465.548 9  18677661.563 8
  21959166.933    21959169.672     1947940.880 9  -2527066.218 9
  21259984.084    21259988.616   -12326390.620 9 -13411476.525 9
  20308918.098    20308921.712   -25451830.805 8 -12005736.845 8
 89 11 12 13 21 29.0800000  0  4G13G 6G11G 9
  20752378.731    20752383.073   -46177227.686 9  18650574.195 8
  21975860.741    21975863.982     2035670.817 9  -2458705.249 9
  21269925.075    21269930.408   -12274149.555 9 -13370769.216 9
  20310981.424    20310985.258   -25440987.907 7 -11997287.849 8
 89 11 12 13 21 59.0800000  0  4G13G 6G11G 9
  20745852.468    20745855.759   -46211522.381 9  18623851.077 9
  21992638.985    21992642.142     2123839.573 9  -2390002.344 9
  21279923.222    21279927.015   -12221614.418 8 -13329832.762 8
  20313163.150    20313166.152   -25429522.160 7 -11988353.490 8
 89 11 12 13 22 29.0800000  0  4G13G 6G11G 9
  20739415.112    20739419.481   -46245350.241 9  18597491.706 9
  22009500.070    22009503.122     2212445.385 9  -2320958.869 9
  21289975.300    21289980.195   -12168787.485 9 -13288668.907 8
  20315463.940    20315466.849   -25417432.845 8 -11978933.267 7
 89 11 12 13 22 59.0800000  0  4G13G 6G11G 9
  20733066.701    20733071.133   -46278711.627 9  18571495.834 8
  22026443.943    22026447.499     2301486.254 9  -2251576.404 8
  21300083.938    21300087.344   -12115671.091 8 -13247279.524 9
  20317883.938    20317887.245   -25404719.423 7 -11969026.704 8
 89 11 12 13 23 29.0800000  0  4G13G 6G11G 9
  20726806.470    20726810.747   -46311606.966 9  18545863.115 9
  22043470.182    22043474.179     2390960.287 9  -2181856.399 8
  21310245.613    21310250.174   -12062267.415 8 -13205666.282 9
  20320421.488    20320425.224   -25391381.252 8 -11958633.328 7
 89 11 12 13 23 59.0800000  0  4G13G 6G11G 9
  20720634.911    20720639.931   -46344036.923 9  18520593.028 9
  22060577.969    22060582.596     2480865.576 9  -2111800.364 9
  21320461.990    21320467.040   -12008578.540 9 -13163830.798 8
  20323078.970    20323082.118   -25377417.919 9 -11947752.824 7
 89 11 12 13 24 29.0800000  0  4G13G 6G11G 9
  20714553.384    20714556.370   -46376001.307 9  18495685.717 7
  22077768.273    22077772.604     2571200.136 9  -2041409.823 9
  21330733.548    21330736.741   -11954606.946 9 -13121775.022 9
  20325855.350    20325857.799   -25362829.061 8 -11936384.886 7
 89 11 12 13 24 59.0800000  0  4G13G 6G11G 9
  20708559.038    20708562.681   -46407500.723 9  18471140.740 8
  22095039.930    22095043.536     2661962.028 9  -1970686.291 9
  21341057.161    21341061.447   -11900354.806 9 -13079500.646 9
  20328749.802    20328753.686   -25347614.224 8 -11924529.178 8
 89 11 12 13 25 29.0800000  0  4G13G 6G11G 9
  20702653.422    20702657.137   -46438535.430 9  18446957.863 8
  22112393.033    22112396.611     2753149.348 9  -1899631.267 9
  21351434.178    21351438.032   -11845824.340 9 -13037009.374 8
  20331765.744    20331769.189   -25331772.850 8 -11912185.249 7
 89 11 12 13 25 59.0800000  0  4G13G 6G11G 9
  20696835.708    20696839.761   -46469106.006 9  18423136.645 8
  22129825.467    22129829.622     2844759.962 9  -1828246.395 9
  21361862.635    21361867.000   -11791018.228 9 -12994303.318 9
  20334899.093    20334901.796   -25315304.687 8 -11899352.934 8
 89 11 12 13 26 29.0800000  0  4G13G 6G11G 9
  20691106.280    20691111.052   -46499213.278 9  18399676.437 7
  22147339.113    22147342.741     2936791.930 9  -1756533.204 9
  21372344.361    21372348.243   -11735938.268 9 -12951383.885 9
  20338151.694    20338154.758   -25298209.250 8 -11886031.809 7
 89 11 12 13 26 59.0800000  0  4G13G 6G11G 9
  20685465.441    20685468.770   -46528857.934 9  18376576.730 8
  22164932.036    22164935.170     3029243.283 9  -1684493.209 9
  21382877.558    21382880.512   -11680586.765 9 -12908252.845 8
  20341523.175    20341527.898   -25280486.311 8 -11872221.730 8
 89 11 12 13 27 29.0800000  0  4G13G 6G11G 9
  20679911.762    20679916.808   -46558040.721 9  18353836.897 8
  22182604.100    22182607.527     3122111.862 9  -1612128.111 9
  21393460.911    21393465.256   -11624966.222 9 -12864912.180 9
  20345016.142    20345018.679   -25262135.474 8 -11857922.399 8
 89 11 12 13 27 59.0800000  0  4G13G 6G11G 9
  20674446.628    20674449.954   -46586761.898 9  18331456.780 8
  22200354.614    22200358.163     3215395.744 9  -1539439.400 9
  21404096.157    21404099.951   -11569078.486 9 -12821363.301 8
  20348627.671    20348631.444   -25243156.438 7 -11843133.548 8
 89 11 12 13 28 29.0800000  0  4G13G 6G11G 9
  20669068.691    20669072.846   -46615022.350 9  18309435.652 8
  22218185.390    22218188.855     3309092.816 9  -1466428.733 9
  21414781.844    21414786.004   -11512926.188 9 -12777608.273 9
  20352359.214    20352361.799   -25223549.171 8 -11827855.168 7
 89 11 12 13 28 59.0800000  0  4G13G 6G11G 9
  20663777.997    20663781.999   -46642822.865 9  18287772.926 8
  22236093.748    22236096.734     3403200.959 9  -1393097.737 9
  21425517.344    21425521.590   -11456511.414 9 -12733648.717 9
  20356209.718    20356213.290   -25203313.184 8 -11812086.874 8
 89 11 12 13 29 29.0800000  0  4G13G 6G11G 9
  20658575.320    20658579.805   -46670163.780 9  18266468.329 8
  22254079.683    22254083.032     3497718.091 9  -1319448.065 9
  21436301.890    21436306.497   -11399836.605 9 -12689486.536 8
  20360180.750    20360183.155   -25182448.382 7 -11795828.593 7
 89 11 12 13 29 59.0800000  0  4G13G 6G11G 9
  20653460.188    20653463.900   -46697045.766 9  18245521.337 8
  22272142.586    22272147.102     3592641.879 9  -1245481.513 9
  21447136.570    21447140.718   -11342903.845 9 -12645123.356 8
  20364270.078    20364273.451   -25160954.701 7 -11779080.286 8
 89 11 12 13 30 29.0800000  0  4G13G 6G11G 9
  20648431.798    20648436.000   -46723469.630 9  18224931.326 7
  22290283.252    22290287.991     3687970.118 9  -1171199.799 9
  21458018.565    21458023.111   -11285715.640 9 -12600561.122 8
  20368479.536    20368483.886   -25138832.075 8 -11761841.880 8
 89 11 12 13 30 59.0800000  0  4G13G 6G11G 9
  20643491.107    20643493.573   -46749435.725 9  18204698.014 9
  22308500.287    22308504.636     3783700.984 9  -1096604.347 9
  21468950.747    21468954.006   -11228274.029 9 -12555801.440 9
  20372809.330    20372812.205   -25116080.456 7 -11744113.354 8
 89 11 12 13 31 29.0800000  0  4G13G 6G11G 9
  20638636.617    20638640.103   -46774945.049 9  18184820.635 8
  22326792.868    22326797.456     3879832.369 9  -1021696.811 9
  21479928.067    21479932.143   -11170581.192 9 -12510845.984 8
  20377258.315    20377262.106   -25092699.319 8 -11725894.306 8
 89 11 12 13 31 59.0800000  0  4G13G 6G11G 9
  20633869.439    20633872.509   -46799997.987 9  18165298.869 8
  22345162.554    22345166.782     3976362.017 9   -946478.931 9
  21490954.015    21490957.994   -11112639.493 9 -12465696.630 8
  20381827.782    20381831.324   -25068688.783 8 -11707184.804 8
 89 11 12 13 32 29.0800000  0  4G13G 6G11G 9
  20629188.234    20629191.859   -46824595.519 9  18146131.970 8
  22363606.711    22363610.696     4073287.618 9   -870952.518 8
  21502026.716    21502029.983   -11054451.174 9 -12420355.097 8
  20386517.053    20386521.848   -25044048.923 9 -11687984.930 7
 89 11 12 13 32 59.0800000  0  4G13G 6G11G 9
  20624594.456    20624598.040   -46848738.200 9  18127319.505 8
  22382126.049    22382129.713     4170607.238 9   -795119.073 9
  21513146.721    21513150.870   -10996018.294 9 -12374822.993 9
  20391324.490    20391329.366   -25018779.529 7 -11668294.504 7
 89 11 12 13 33 29.0800000  0  4G13G 6G11G 9
  20620086.277    20620090.536   -46872426.631 9  18108861.000 9
  22400719.845    22400723.259     4268318.575 9   -718980.409 9
  21524311.523    21524316.584   -10937343.254 9 -12329102.203 8
  20396252.783    20396257.465   -24992880.840 8 -11648113.715 8
 89 11 12 13 33 59.0800000  0  4G13G 6G11G 9
  20615664.812    20615669.138   -46895661.594 9  18090755.843 8
  22419388.198    22419391.806     4366419.411 9   -642538.238 9
  21535522.574    21535527.144   -10878427.875 9 -12283194.116 8
  20401301.053    20401305.094   -24966352.896 8 -11627442.613 8
 89 11 12 13 34 29.0800000  0  4G13G 6G11G 9
  20611329.070    20611333.225   -46918444.158 9  18073003.201 7
  22438129.723    22438132.818     4464907.429 9   -565794.357 9
  21546779.954    21546783.641   -10819274.730 9 -12237100.773 8
  20406468.978    20406472.635   -24939195.840 8 -11606281.275 7
 89 11 12 13 34 59.0800000  0  4G13G 6G11G 9
  20607079.772    20607083.146   -46940775.462 9  18055602.186 8
  22456944.466    22456947.486     4563780.290 9   -488750.612 9
  21558079.997    21558084.978   -10759886.037 9 -12190823.886 9
  20411757.031    20411760.238   -24911409.634 7 -11584629.694 8
 89 11 12 13 35 29.0800000  0  4G13G 6G11G 9
  20602915.642    20602919.916   -46962655.826 9  18038552.557 8
  22475832.910    22475836.816     4663036.016 9   -411408.528 9
  21569426.156    21569430.129   -10700263.960 9 -12144365.143 9
  20417163.936    20417168.354   -24882994.277 8 -11562487.875 8
 89 11 12 13 35 59.0800000  0  4G13G 6G11G 9
  20598838.313    20598841.825   -46984086.399 9  18021853.432 7
  22494792.711    22494796.056     4762672.269 9   -333769.938 9
  21580816.338    21580820.292   -10640410.529 9 -12097726.111 9
  20422691.653    20422694.662   -24853949.931 7 -11539855.922 7
 89 11 12 13 36 29.0800000  0  4G13G 6G 3G 9
  20594845.177    20594848.812   -47005067.736 9  18005504.343 7
  22513824.804    22513828.434     4862686.824 9   -255836.551 9
                  23971702.956   -74253622.440 9
  20428338.155    20428340.704   -24824276.817 8 -11516734.048 8
 89 11 12 13 36 59.0800000  0  4G13G 6G 3G 9
  20590938.384    20590942.113   -47025600.938 9  17989504.449 8
  22532927.915    22532932.501     4963077.138 9   -177610.382 9
  23955355.858    23955360.392   -74339682.311 9  94250355.292 8
  20434104.387    20434107.422   -24793975.490 8 -11493122.627 8
 89 11 12 13 37 29.0800000  0  4G13G 6G 3G 9
  20587116.110    20587120.783   -47045686.718 9  17973853.191 9
  22552103.355    22552106.980     5063841.076 9    -99093.065 9
  23939025.709    23939030.720   -74425502.337 9  94183482.554 8
  20439989.911    20439992.867   -24763045.876 8 -11469021.634 7
 89 11 12 13 37 59.0800000  0  4G13G 6G 3G 9
  20583378.577    20583382.519   -47065326.105 9  17958549.777 8
  22571348.865    22571352.381     5164976.268 9    -20286.472 9
  23922740.534    23922745.082   -74511082.059 9  94116797.061 9
  20445995.680    20445998.509   -24731488.244 8 -11444431.285 8
 89 11 12 13 38 29.0800000  0  4G13G 6G 3G 9
  20579725.779    20579730.208   -47084520.437 9  17943593.176 7
  22590664.258    22590667.201     5266480.403 9     58807.612 9
  23906501.145    23906504.753   -74596420.470 9  94050299.594 9
  20452120.706    20452123.656   -24699302.962 8 -11419351.862 8
 89 11 12 13 38 59.0800000  0  4G13G 6G 3G 9
  20576158.258    20576161.941   -47103269.821 9  17928983.263 8
  22610049.626    22610053.706     5368351.101 9    138187.334 8
  23890307.637    23890312.072   -74681516.655 9  93983990.872 9
  20458364.218    20458367.712   -24666490.385 8 -11393783.624 8
 89 11 12 13 39 29.0800000  0  4G13G 6G 3G 9
  20572674.367    20572679.392   -47121575.641 9  17914718.983 8
  22629505.128    22629507.999     5470585.992 9    217850.825 8
  23874160.544    23874164.208   -74766370.044 9  93917871.352 8
  20464726.855    20464730.300   -24633050.769 8 -11367726.814 8
 89 11 12 13 39 59.0800000  0  4G13G 6G 3G 9
  20569275.771    20569278.310   -47139438.687 8  17900799.735 8
  22649028.037    22649031.584     5573182.797 9    297796.338 9
  23858060.329    23858063.447   -74850979.666 9  93851941.770 9
  20471209.631    20471212.924   -24598984.791 9 -11341181.885 8
 89 11 12 13 40 29.0800000  0  4G13G 6G 3G 9
  20565959.477    20565963.848   -47156859.726 9  17887224.900 8
  22668619.832    22668624.578     5676139.036 9    378021.923 9
  23842006.519    23842009.712   -74935344.800 8  93786202.719 8
  20477811.706    20477814.486   -24564292.623 8 -11314149.053 8
 89 11 12 13 40 59.0800000  0  4G13G 6G 3G 9
  20562729.465    20562732.906   -47173840.182 9  17873993.387 7
  22688279.882    22688283.657     5779452.232 9    458525.645 9
  23825997.670    23826001.187   -75019464.682 9  93720654.759 9
  20484532.175    20484535.525   -24528974.944 7 -11286628.793 8
 89 11 12 13 41 29.0800000  0  4G13G 6G 3G 9
  20559581.382    20559585.641   -47190381.277 9  17861104.226 8
  22708006.709    22708010.856     5883120.235 9    539305.850 9
  23810037.984    23810042.119   -75103338.408 9  93655298.608 9
  20491372.071    20491375.399   -24493031.967 8 -11258621.297 7
 89 11 12 13 41 59.0800000  0  4G13G 6G 3G 9
  20556516.714    20556521.651   -47206483.810 9  17848556.814 8
  22727801.254    22727805.661     5987140.514 9    620360.557 9
  23794123.830    23794127.552   -75186965.293 8  93590134.803 8
  20498331.556    20498334.131   -24456464.323 8 -11230127.055 7
 89 11 12 13 42 29.0800000  0  4G13G 6G 3G 9
  20553535.057    20553541.775   -47222148.706 9  17836350.388 8
  22747662.928    22747666.667     6091510.561 9    701687.806 8
  23778256.597    23778260.574   -75270344.608 9  93525163.916 9
  20505408.341    20505410.118   -24419272.573 9 -11201146.494 7
 89 11 12 13 42 59.0800000  0  4G13G 6G 3G 9
  20550637.901    20550642.230   -47237376.940 9  17824484.253 8
  22767589.447    22767593.786     6196227.881 9    783285.651 9
  23762437.571    23762441.793   -75353475.436 9  93460386.644 9
  20512603.557    20512607.755   -24381457.214 8 -11171680.006 7
 89 11 12 13 43 29.0800000  0  4G13G 6G 3G 9
  20547823.341    20547827.425   -47252169.730 9  17812957.403 9
  22787583.076    22787586.742     6301290.157 9    865152.301 9
  23746665.782    23746670.662   -75436357.346 9  93395803.339 9
  20519918.832    20519922.837   -24343018.787 8 -11141727.988 7
 89 11 12 13 43 59.0800000  0  4G13G 6G 3G 9
  20545091.014    20545093.817   -47266528.185 9  17801768.999 8
  22807640.249    22807644.132     6406694.840 9    947285.764 9
  23730941.656    23730945.719   -75518989.637 9  93331414.549 9
  20527351.206    20527355.752   -24303957.986 9 -11111291.025 7
 89 11 12 13 44 29.0800000  0  4G13G 6G 3G 9
  20542441.150    20542445.861   -47280453.388 9  17790918.198 8
  22827763.420    22827766.735     6512439.506 9   1029684.130 9
  23715264.890    23715269.225   -75601371.320 9  93267221.031 8
  20534903.265    20534905.430   -24264275.576 8 -11080369.686 7
 89 11 12 13 44 59.0800000  0  4G13G 6G 3G 9
  20539873.068    20539878.290   -47293946.301 9  17780404.244 7
  22847949.664    22847953.272     6618521.701 9   1112345.519 9
  23699636.378    23699640.473   -75683501.930 9  93203223.158 9
  20542572.577    20542576.061   -24223972.160 8 -11048964.446 8
 89 11 12 13 45 29.0800000  0  4G13G 6G 3G 9
  20537388.440    20537391.610   -47307008.199 9  17770226.145 8
  22868200.157    22868204.552     6724938.839 9   1195267.899 9
  23684055.296    23684058.829   -75765380.406 9  93139421.753 9
  20550359.910    20550363.313   -24183048.274 8 -11017075.726 8
 89 11 12 13 45 59.0800000  0  4G13G 6G 3G 9
  20534984.513    20534988.471   -47319640.338 8  17760382.932 8
  22888514.039    22888518.599     6831688.617 9   1278449.466 9
  23668521.740    23668526.313   -75847006.424 9  93075817.055 9
  20558266.188    20558269.375   -24141504.619 9 -10984704.058 8
 89 11 12 13 46 29.0800000  0  4G13G 6G 3G 9
  20532661.533    20532665.463   -47331843.500 8  17750873.965 8
  22908890.513    22908894.503     6938768.570 9   1361888.316 9
  23653037.246    23653041.988   -75928379.079 9  93012409.795 8
  20566288.665    20566292.447   -24099341.883 8 -10951850.002 8
 89 11 12 13 46 59.0800000  0  4G13G 6G 3G 9
  20530421.103    20530424.763   -47343619.022 9  17741698.242 8
  22929329.353    22929333.969     7046176.119 9   1445582.431 9
  23637600.746    23637604.501   -76009497.685 9  92949200.504 9
  20574429.195    20574433.674   -24056560.860 9 -10918514.164 8
 89 11 12 13 47 29.0800000  0  4G13G 6G 3G 9
  20528261.349    20528265.307   -47354967.906 9  17732854.951 8
  22949830.841    22949835.561     7153908.819 9   1529529.916 9
  23622213.117    23622217.426   -76090361.619 9  92886189.640 9
  20582687.697    20582690.758   -24013162.406 9 -10884697.198 8
 89 11 12 13 47 59.0800000  0  4G13G 6G 3G 9
  20526183.355    20526186.182   -47365891.293 9  17724343.217 8
  22970393.455    22970396.835     7261963.942 9   1613728.636 9
  23606873.622    23606878.557   -76170970.254 9  92823377.720 8
  20591063.937    20591067.742   -23969147.359 8 -10850399.783 8
 89 11 12 13 48 29.0800000  0  4G13G 6G 3G 9
  20524184.918    20524189.482   -47376390.356 9  17716162.156 8
  22991016.193    22991020.767     7370339.100 9   1698176.718 9
  23591582.790    23591587.496   -76251323.015 9  92760765.181 8
  20599556.259    20599558.925   -23924516.699 9 -10815622.669 8
 89 11 12 13 48 59.0800000  0  4G13G 6G 3G 9
  20522267.245    20522271.422   -47386466.765 9  17708310.393 8
  23011699.996    23011704.426     7479031.618 9   1782872.106 9
  23576341.372    23576345.693   -76331419.108 9  92698352.641 9
  20608166.635    20608169.665   -23879271.110 8 -10780366.390 9
 89 11 12 13 49 29.0800000  0  4G13G 6G 3G 9
  20520429.778    20520434.811   -47396121.346 9  17700787.353 8
  23032442.951    23032447.929     7588039.044 9   1867812.888 8
  23561148.978    23561152.863   -76411258.187 9  92636140.377 8
  20616891.979    20616897.207   -23833411.613 9 -10744631.743 8
 89 11 12 13 49 59.0800000  0  4G13G 6G 3G 9
  20518673.643    20518676.699   -47405354.877 8  17693592.392 8
  23053247.196    23053250.450     7697358.860 9   1952997.063 9
  23546005.167    23546008.542   -76490839.421 9  92574129.014 9
  20625737.163    20625739.446   -23786939.054 8 -10708419.388 8
 89 11 12 13 50 29.0800000  0  4G13G 6G 3G 9
  20516996.364    20517000.692   -47414169.098 9  17686724.175 8
  23074108.074    23074112.859     7806988.318 9   2038422.515 9
  23530909.407    23530913.722   -76570162.109 9  92512319.139 9
  20634697.341    20634700.176   -23739854.501 8 -10671730.153 8
 89 11 12 13 50 59.0800000  0  4G13G 6G 3G 9
  20515397.857    20515402.105   -47422566.062 9  17680181.079 8
  23095028.325    23095032.526     7916924.863 9   2124087.264 9
  23515864.922    23515869.112   -76649226.130 9  92450710.811 9
  20643772.789    20643778.025   -23692158.920 8 -10634564.783 8
 89 11 12 13 51 29.0800000  0  4G13G 6G 3G 9
  20513879.324    20513883.558   -47430546.307 9  17673962.711 7
  23116007.289    23116010.312     8027165.970 8   2209989.328 9
  23500868.715    23500872.424   -76728030.757 9  92389304.601 9
  20652966.172    20652969.883   -23643853.324 9 -10596924.092 8
 89 11 12 13 51 59.0800000  0  4G13G 6G 3G 9
  20512439.307    20512443.767   -47438110.552 8  17668068.490 8
  23137041.963    23137046.817     8137709.033 8   2296126.676 9
  23485922.437    23485926.396   -76806575.238 9  92328101.111 8
  20662274.293    20662277.452   -23594938.737 8 -10558808.856 8
 89 11 12 13 52 29.0800000  0  4G13G 6G 3G 9
  20511079.032    20511083.422   -47445260.560 9  17662497.068 7
  23158134.924    23158139.719     8248551.448 9   2382497.294 9
  23471025.346    23471029.076   -76884858.934 9  92267100.821 8
  20671697.814    20671701.479   -23545416.120 9 -10520219.835 8
 89 11 12 13 52 59.0800000  0  4G13G 6G 3G 9
  20509797.391    20509801.382   -47451998.121 9  17657247.006 8
  23179284.444    23179287.704     8359690.563 9   2469099.087 9
  23456178.031    23456182.173   -76962881.816 9  92206303.763 9
  20681236.653    20681240.198   -23495286.737 9 -10481158.014 8
 89 11 12 13 53 29.0800000  0  4G13G 6G 3G 9
  20508593.519    20508598.263   -47458323.813 9  17652317.905 8
  23200488.953    23200493.070     8471123.754 9   2555930.052 8
  23441381.017    23441384.527   -77040642.851 9  92145710.742 9
  20690892.064    20690895.405   -23444551.659 9 -10441624.201 8
 89 11 12 13 53 59.0800000  0  4G13G 6G 3G 9
  20507468.677    20507471.303   -47464239.158 9  17647708.536 8
  23221749.547    23221753.205     8582848.480 9   2642988.173 9
  23426632.398    23426637.850   -77118141.528 9  92085322.159 8
  20700661.327    20700663.604   -23393211.825 8 -10401619.177 8
 89 11 12 13 54 29.0800000  0  4G13G 6G 3G 9
  20506419.842    20506424.073   -47469745.635 9  17643417.777 9
  23243065.286    23243070.132     8694861.913 9   2730271.243 9
  23411935.626    23411940.257   -77195377.719 9  92025138.109 8
  20710545.595    20710549.155   -23341268.928 9 -10361144.217 7
 89 11 12 13 54 59.0800000  0  4G13G 6G 3G 9
  20505449.823    20505453.282   -47474844.440 9  17639444.672 8
  23264435.587    23264440.270     8807161.523 9   2817777.340 9
  23397288.604    23397291.987   -77272350.777 9  91965159.096 9
  20720544.289    20720548.526   -23288723.853 9 -10320200.032 8
 89 11 12 13 55 29.0800000  0  4G13G 6G 3G 9
  20504557.379    20504560.992   -47479537.032 9  17635788.093 8
  23285859.789    23285864.136     8919744.676 9   2905504.347 9
  23382691.336    23382694.452   -77349059.938 9  91905385.713 8
  20730658.040    20730661.010   -23235577.897 8 -10278787.623 9
 89 11 12 13 55 59.0800000  0  4G13G 6G 3G 9
  20503741.496    20503744.286   -47483825.331 9  17632446.559 8
  23307336.465    23307341.848     9032608.545 9   2993450.095 8
  23368143.867    23368148.210   -77425505.131 9  91845818.033 9
  20740885.855    20740889.420   -23181832.278 9 -10236907.955 8
 89 11 12 13 56 29.0800000  0  4G13G 6G 3G 9
  20503001.486    20503006.161   -47487709.880 9  17629419.631 8
  23328866.441    23328871.360     9145750.721 9   3081612.717 9
  23353647.671    23353650.779   -77501685.603 9  91786456.614 9
  20751227.961    20751232.035   -23127488.061 8 -10194561.840 8
 89 11 12 13 56 59.0800000  0  4G13G 6G 3G 9
  20502338.815    20502343.187   -47491192.387 9  17626705.994 8
  23350449.958    23350454.219     9259168.273 9   3169989.920 9
  23339201.283    23339205.458   -77577601.006 9  91727301.751 8
  20761683.023    20761686.268   -23072546.708 9 -10151750.434 9
 89 11 12 13 57 29.0800000  0  4G13G 6G 3G 9
  20501752.927    20501756.144   -47494273.961 9  17624304.744 8
  23372084.477    23372088.370     9372858.632 9   3258579.675 9
  23324805.202    23324808.579   -77653250.786 9  91668353.873 8
  20772250.582    20772255.031   -23017009.522 9 -10108474.731 7
 89 11 12 13 57 59.0800000  0  4G13G 6G 3G 9
  20501242.135    20501245.936   -47496956.180 9  17622214.687 7
  23393770.611    23393775.530     9486819.193 9   3347379.985 9
  23310460.379    23310465.152   -77728634.669 8  91609613.179 9
  20782932.694    20782935.692   -22960877.938 9 -10064735.860 8
 89 11 12 13 58 29.0800000  0  4G13G 6G 3G 9
  20500806.992    20500811.198   -47499240.559 9  17620434.651 8
  23415507.399    23415512.452     9601047.116 9   3436388.619 9
  23296165.724    23296169.381   -77803752.241 9  91551080.001 9
  20793726.669    20793729.219   -22904153.363 8 -10020534.919 7
 89 11 12 13 58 59.0800000  0  4G13G 6G 3G 9
  20500448.008    20500452.498   -47501128.614 9  17618963.419 9
  23437294.969    23437299.636     9715539.654 9   3525603.450 9
  23281922.180    23281926.572   -77878603.082 9  91492754.675 8
  20804633.213    20804636.961   -22846837.282 9  -9975873.071 8
 89 11 12 13 59 29.0800000  0  4G13G 6G 3G 9
  20500163.959    20500168.781   -47502621.209 9  17617800.355 8
  23459131.706    23459137.146     9830294.270 8   3615022.484 9
  23267728.634    23267733.460   -77953186.782 9  91434637.516 9
  20815652.759    20815655.743   -22788930.994 9  -9930751.324 7
 89 11 12 13 59 59.0800000  0  4G13G 6G 3G 9
  20499955.662    20499959.724   -47503720.476 9  17616943.764 8
  23481018.069    23481023.287     9945308.145 9   3704643.528 8
  23253586.850    23253592.013   -78027502.753 8  91376728.952 8
  20826783.386    20826786.714   -22730436.033 8  -9885170.866 7
 89 11 12 14  0 29.0800000  0  4G13G 6G 3G 9
  20499820.470    20499824.330   -47504427.410 9  17616392.894 9
  23502954.550    23502958.595    10060578.580 9   3794464.484 9
  23239497.443    23239501.040   -78101551.010 8  91319029.016 8
  20838025.503    20838029.950   -22671353.614 8  -9839132.669 8
 89 11 12 14  0 59.0800000  0  4G13G 6G 3G 9
  20499759.802    20499764.292   -47504743.736 9  17616146.403 7
  23524937.390    23524942.280    10176102.984 9   3884483.352 9
  23225457.120    23225461.017   -78175330.386 9  91261538.588 9
  20849381.847    20849384.620   -22611685.256 9  -9792637.886 8
 89 11 12 14  1 29.0800000  0  4G13G 6G 3G 9
  20499774.112    20499778.719   -47504670.851 9  17616203.178 8
  23546969.262    23546973.436    10291878.078 8   3974697.556 9
  23211468.339    23211471.901   -78248841.663 9  91204257.066 9
  20860846.853    20860849.797   -22551433.078 9  -9745688.175 8
 89 11 12 14  1 59.0800000  0  4G13G 6G 3G 9
  20499861.774    20499865.690   -47504210.185 8  17616562.140 8
  23569048.288    23569053.607    10407901.754 9   4065105.457 9
  23197530.630    23197534.626   -78322083.504 9  91147185.502 9
  20872424.457    20872427.180   -22490598.176 8  -9698284.401 9
 89 11 12 14  2 29.0800000  0  4G13G 6G 3G 9
  20500022.454    20500026.844   -47503363.159 9  17617222.143 8
  23591172.732    23591178.540    10524171.049 9   4155704.752 8
  23183644.638    23183648.565   -78395056.020 9  91090323.786 9
  20884111.455    20884114.436   -22429181.867 8  -9650427.591 8
 89 11 12 14  2 59.0800000  0  4G13G 6G 3G 9
  20500256.827    20500261.972   -47502131.934 9  17618181.529 7
  23613344.859    23613350.089    10640683.174 9   4246493.260 9
  23169809.983    23169813.252   -78467758.748 9  91033672.317 8
  20895907.767    20895911.575   -22367186.192 9  -9602119.306 8
 89 11 12 14  3 29.0800000  0  4G13G 6G 3G 9
  20500564.736    20500569.738   -47500517.172 8  17619439.764 8
  23635562.328    23635566.500    10757435.593 9   4337469.004 8
  23156026.574    23156030.177   -78540191.344 9  90977231.323 9
  20907815.409    20907819.129   -22304612.633 9  -9553360.745 8
 89 11 12 14  3 59.0800000  0  4G13G 6G 3G 9
  20500943.987    20500948.965   -47498520.595 9  17620995.544 8
  23657823.870    23657830.491    10874425.237 9   4428629.611 9
  23142294.194    23142297.486   -78612353.687 9  90921000.916 9
  20919832.100    20919835.759   -22241462.817 9  -9504153.138 9
 89 11 12 14  4 29.0800000  0  4G13G 6G 3G 9
  20501396.646    20501400.478   -47496143.420 9  17622847.861 8
  23680131.834    23680136.652    10991649.667 9   4519973.146 9
  23128613.823    23128617.792   -78684245.299 9  90864981.472 8
  20931958.136    20931962.507   -22177738.395 9  -9454497.789 9
 89 11 12 14  4 59.0800000  0  4G13G 6G 3G 9
  20501921.366    20501925.798   -47493387.903 9  17624995.010 8
  23702483.205    23702488.809    11109105.808 9   4611497.235 9
  23114984.346    23114988.647   -78755865.885 9  90809173.218 9
  20944193.751    20944197.662   -22113440.982 9  -9404395.948 9
 89 11 12 14  5 29.0800000  0  4G13G 6G 3G 9
  20502517.189    20502521.497   -47490255.186 9  17627436.089 7
  23724877.955    23724883.083    11226791.091 9   4703199.876 9
  23101407.707    23101411.620   -78827215.086 9  90753576.424 8
  20956537.824    20956541.338   -22048572.404 9  -9353849.056 9
 89 11 12 14  5 59.0800000  0  4G13G 6G 3G 9
  20503184.914    20503188.645   -47486746.594 9  17630170.027 8
  23747316.253    23747321.278    11344702.792 9   4795078.930 9
  23087881.523    23087886.232   -78898292.801 9  90698191.179 8
  20968990.953    20968993.717   -21983134.185 8  -9302858.281 9
 89 11 12 14  6 29.0800000  0  4G13G 6G 3G 9
  20503923.571    20503926.945   -47482863.905 9  17633195.484 8
  23769796.751    23769802.251    11462838.048 9   4887132.191 9
  23074408.317    23074412.991   -78969098.599 9  90643017.823 9
  20981550.898    20981553.931   -21917128.374 9  -9251425.233 9
 89 11 12 14  6 59.0800000  0  4G13G 6G 3G 9
  20504733.201    20504735.902   -47478608.680 9  17636511.202 7
  23792318.764    23792324.413    11581194.039 8   4979357.449 9
  23060986.401    23060989.943   -79039632.290 9  90588056.495 9
  20994219.441    20994222.299   -21850556.707 9  -9199551.267 9
 89 11 12 14  7 29.0800000  0  4G13G 6G 3G 9
  20505613.407    20505619.011   -47473982.516 9  17640115.990 8
  23814882.643    23814889.452    11699768.004 9   5071752.542 8
  23047614.793    23047620.138   -79109893.796 9  90533307.249 8
  21006994.702    21006998.501   -21783420.801 9  -9147237.632 9
 89 11 12 14  7 59.0800000  0  4G13G 6G 3G 9
  20506563.795    20506569.003   -47468986.780 9  17644008.757 7
  23837488.327    23837493.527    11818557.087 9   5164315.260 8
  23034297.970    23034300.728   -79179882.669 9  90478770.453 8
  21019878.060    21019882.120   -21715722.699 8  -9094485.913 9
 89 11 12 14  8 29.0800000  0  4G13G 6G 3G 9
  20507585.459    20507589.507   -47463623.572 9  17648187.860 8
  23860133.405    23860138.588    11937558.506 9   5257043.441 9
  23021030.571    23021035.512   -79249598.788 9  90424446.192 8
  21032866.690    21032871.483   -21647464.180 9  -9041297.510 9
 89 11 12 14  8 59.0800000  0  4G13G 6G 3G 9
  20508675.838    20508680.130   -47457893.936 9  17652652.475 7
  23882818.149    23882824.332    12056769.435 9   5349934.854 9
  23007815.956    23007820.638   -79319041.841 9  90370334.703 9
  21045962.334    21045966.878   -21578647.018 9  -8987673.796 8
 89 11 12 14  9 29.0800000  0  4G13G 6G 3G 9
  20509834.797    20509838.545   -47451799.313 8  17657401.521 8
  23905543.508    23905548.578    12176187.122 9   5442987.388 8
  22994653.176    22994657.521   -79388211.986 9  90316435.871 8
  21059163.971    21059167.869   -21509273.386 8  -8933616.481 9
 89 11 12 14  9 59.0800000  0  4G13G 6G 3G 9
  20511064.188    20511067.845   -47445342.044 9  17662433.132 8
  23928307.109    23928311.977    12295808.761 9   5536198.826 9
  22981542.886    22981547.788   -79457108.455 9  90262750.298 8
  21072471.477    21072475.400   -21439344.911 9  -8879126.808 8
 89 11 12 14 10 29.0800000  0  4G13G 6G 3G 9
  20512361.662    20512366.609   -47438523.405 9  17667746.345 8
  23951108.294    23951114.010    12415631.532 8   5629567.010 9
  22968484.543    22968489.355   -79525731.589 8  90209277.710 8
  21085882.987    21085886.444   -21368863.589 9  -8824206.350 9
 89 11 12 14 10 59.0800000  0  4G13G 6G 3G 9
  20513727.792    20513731.310   -47431344.359 8  17673340.380 8
  23973947.768    23973953.708    12535652.838 9   5723089.878 9
  22955477.505    22955482.340   -79594080.784 8  90156018.571 8
  21099400.251    21099403.244   -21297831.328 8  -8768856.600 8
 89 11 12 14 11 29.0800000  0  4G13G 6G 3G 9
  20515161.416    20515166.494   -47423807.142 8  17679213.503 7
  23996825.148    23996829.574    12655869.462 9   5816764.924 9
  22942523.559    22942528.093   -79662156.350 8  90102972.654 9
  21113021.168    21113024.920   -21226250.267 9  -8713079.213 9
 89 11 12 14 11 59.0800000  0  4G13G 6G 3G 9
  20516665.044    20516668.790   -47415913.770 8  17685364.169 8
  24019737.062    24019743.594    12776278.726 9   5910590.071 8
  22929620.236    22929625.299   -79729957.825 9  90050140.323 9
  21126747.258    21126750.405   -21154122.574 9  -8656875.876 9
 89 11 12 14 12 29.0800000  0  4G13G 6G 3G 9
  20518233.977    20518238.624   -47407665.342 9  17691791.494 7
  24042687.113    24042693.090    12896877.960 9   6004563.246 9
  22916770.972    22916775.465   -79797485.260 9  89997521.520 8
  21140576.445    21140579.729   -21081450.011 9  -8600247.963 9
 89 11 12 14 12 59.0800000  0  4G13G 6G 3G 9
  20519870.708    20519874.564   -47399063.576 8  17698494.139 8
  24065671.619    24065678.026    13017664.253 9   6098682.169 9
  22903973.651    22903977.614   -79864738.198 9  89945116.625 8
  21154508.856    21154512.286   -21008234.546 9  -8543197.020 9
 89 11 12 14 13 29.0800000  0  4G13G 6G 3G 9
  20521574.977    20521579.081   -47390109.362 9  17705471.417 8
  24088692.498    24088698.183    13138634.809 9   6192944.696 9
  22891228.176    22891232.106   -79931716.521 9  89892925.694 9
  21168544.221    21168547.909   -20934478.374 8  -8485724.735 8
 89 11 12 14 13 59.0800000  0  4G13G 6G 3G 9
  20523345.641    20523349.330   -47380805.084 9  17712721.480 8
  24111746.531    24111753.016    13259786.797 9   6287348.578 9
  22878534.807    22878538.733   -79998420.478 8  89840948.569 9
  21182682.467    21182686.564   -20860183.487 9  -8427832.679 8
 89 11 12 14 14 29.0800000  0  4G13G 6G 3G 9
  20525182.429    20525186.088   -47371152.620 9  17720242.860 8
  24134835.906    24134842.068    13381117.412 8   6381891.648 9
  22865893.995    22865897.759   -80064849.565 9  89789185.637 8
  21196921.896    21196925.572   -20785352.071 9  -8369522.555 8
 89 11 12 14 14 59.0800000  0  4G13G 6G 3G 9
  20527085.180    20527088.902   -47361153.220 9  17728034.564 8
  24157958.022    24157964.341    13502623.629 9   6476571.561 9
  22853304.845    22853309.359   -80131004.169 9  89737636.565 9
  21211262.906    21211267.836   -20709986.396 9  -8310796.122 8
 89 11 12 14 15 29.0800000  0  4G13G 6G 3G 9
  20529053.000    20529057.508   -47350808.922 9  17736095.032 7
  24181111.582    24181119.318    13624302.533 9   6571386.019 9
  22840769.207    22840772.553   -80196884.066 9  89686301.562 8
  21225706.469    21225710.635   -20634088.580 9  -8251655.035 8
 89 11 12 14 15 59.0800000  0  4G13G 6G 3G 9
  20531088.096    20531091.553   -47340121.132 9  17744423.127 8
  24204300.117    24204306.172    13746151.427 9   6666332.926 9
  22828284.578    22828287.770   -80262489.012 9  89635180.797 9
  21240250.778    21240254.132   -20557660.575 9  -8192100.809 9
 89 11 12 14 16 29.0800000  0  4G13G12G 3G 9
  20533186.555    20533191.176   -47329091.642 9  17753017.509 7
                  20665780.062   -88601529.530 9
  22815851.902    22815857.531   -80327819.033 9  89584274.255 9
  21254895.396    21254899.372   -20480704.686 9  -8132135.249 8
 89 11 12 14 16 59.0800000  0  4G13G12G 3G 9
  20535349.963    20535352.836   -47317721.569 9  17761877.276 8
  20660518.567    20660523.015   -88629325.204 9 112462875.125 9
  22803472.963    22803476.963   -80392874.237 9  89533581.869 9
  21269639.130    21269642.636   -20403223.132 9  -8071760.090 8
 89 11 12 14 17 29.0800000  0  4G13G12G 3G 9
  20537578.652    20537582.985   -47306013.191 9  17771000.642 7
  20655340.257    20655345.389   -88656539.572 9 112441669.100 8
  22791145.565    22791149.274   -80457654.225 9  89483103.928 9
  21284483.213    21284486.162   -20325218.064 9  -8010977.001 8
 89 11 12 14 17 59.0800000  0  4G13G12G 3G 9
  20539871.073    20539874.058   -47293968.167 9  17780386.336 7
  20650272.348    20650277.255   -88683170.596 8 112420917.609 8
  22778870.907    22778874.269   -80522158.949 9  89432840.498 9
  21299425.919    21299430.550   -20246691.759 9  -7949787.745 8
 89 11 12 14 18 29.0800000  0  4G13G12G 3G 9
  20542225.879    20542230.757   -47281588.225 9  17790033.025 8
  20645316.454    20645320.960   -88709216.570 9 112400622.006 9
  22766648.167    22766652.756   -80586388.778 9  89382791.242 9
  21314467.569    21314472.041   -20167646.512 9  -7888194.123 8
 89 11 12 14 18 59.0800000  0  4G13G12G 3G 9
  20544645.453    20544649.641   -47268874.692 9  17799939.628 8
  20640472.510    20640475.635   -88734675.712 9 112380783.674 9
  22754478.647    22754482.309   -80650343.414 9  89332956.439 8
  21329607.830    21329612.019   -20088084.502 9  -7826197.821 8
 89 11 12 14 19 29.0800000  0  4G13G12G 3G 9
  20547128.060    20547132.170   -47255829.678 8  17810104.525 8
  20635739.256    20635743.021   -88759546.850 9 112361403.517 8
  22742359.921    22742363.792   -80714023.010 9  89283335.945 8
  21344846.333    21344850.060   -20008008.217 9  -7763800.806 8
 89 11 12 14 19 59.0800000  0  4G13G12G 3G 9
  20549673.134    20549676.808   -47242454.836 8  17820526.446 7
  20631118.416    20631121.149   -88783828.233 9 112342482.920 9
  22730295.212    22730297.496   -80777427.360 9  89233929.933 9
  21360181.199    21360185.164   -19927419.918 9  -7701004.804 8
 89 11 12 14 20 29.0800000  0  4G13G12G 3G 9
  20552280.669    20552284.289   -47228751.447 9  17831204.375 8
  20626611.056    20626614.155   -88807517.982 9 112324023.336 8
  22718281.188    22718285.340   -80840556.797 9  89184738.128 8
  21375614.192    21375618.452   -19846321.935 9  -7637811.657 8
 89 11 12 14 20 59.0800000  0  4G13G12G 3G 9
  20554949.793    20554954.071   -47214721.060 9  17842137.099 8
  20622214.811    20622219.034   -88830614.677 9 112306025.866 8
  22706321.103    22706324.955   -80903410.981 9  89135760.814 9
  21391143.091    21391147.800   -19764716.572 9  -7574223.145 9
 89 11 12 14 21 29.0800000  0  4G13G12G 3G 9
  20557681.720    20557685.379   -47200365.785 9  17853322.987 8
  20617932.687    20617937.266   -88853117.245 9 112288491.362 9
  22694412.517    22694417.165   -80965990.104 9  89086997.830 9
  21406769.547    21406772.293   -19682606.223 9  -7510241.139 8
 89 11 12 14 21 59.0800000  0  4G13G12G 3G 9
  20560475.493    20560480.114   -47185687.400 9  17864760.652 8
  20613763.777    20613769.049   -88875023.861 9 112271421.233 9
  22682555.904    22682561.266   -81028294.287 9  89038449.086 8
  21422489.637    21422493.636   -19599993.161 9  -7445867.406 9
 89 11 12 14 22 29.0800000  0  4G13G12G 3G 9
  20563330.238    20563334.828   -47170687.184 9  17876449.084 8
  20609708.491    20609714.920   -88896333.194 9 112254816.506 8
  22670752.998    22670755.953   -81090323.381 9  88990114.699 9
  21438306.087    21438309.197   -19516880.031 9  -7381104.014 9
 89 11 12 14 22 59.0800000  0  4G13G12G 3G 9
  20566245.563    20566251.440   -47155367.013 9  17888386.820 8
  20605768.100    20605772.555   -88917043.817 9 112238678.320 9
  22659001.312    22659005.439   -81152077.622 9  88941994.462 9
  21454215.350    21454220.297   -19433268.843 9  -7315952.531 9
 89 11 12 14 23 29.0800000  0  4G13G12G 3G 9
  20569220.102    20569225.637   -47139728.732 9  17900572.452 8
  20601940.960    20601945.529   -88937154.289 9 112223007.773 8
  22647302.975    22647306.231   -81213556.912 9  88894088.487 8
  21470220.431    21470224.436   -19349162.288 9  -7250415.043 9
 89 11 12 14 23 59.0800000  0  4G13G12G 3G 9
  20572257.230    20572262.165   -47123773.845 9  17913004.791 8
  20598229.097    20598233.766   -88956663.354 9 112207805.867 8
  22635655.868    22635659.774   -81274761.342 9  88846396.690 8
  21486318.581    21486323.593   -19264562.947 9  -7184493.573 8
 89 11 12 14 24 29.0800000  0  4G13G12G 3G 9
  20575353.600    20575357.242   -47107504.658 9  17925682.023 8
  20594631.325    20594636.322   -88975569.619 9 112193073.650 9
  22624060.716    22624066.118   -81335691.233 9  88798918.808 8
  21502511.889    21502516.315   -19179473.145 9  -7118189.912 8
 89 11 12 14 24 59.0800000  0  4G13G12G 3G 9
  20578509.165    20578513.364   -47090922.528 9  17938603.111 8
  20591148.550    20591153.208   -88993872.013 9 112178812.015 9
  22612517.970    22612522.944   -81396346.372 8  88751655.042 9
  21518796.803    21518799.563   -19093895.531 9  -7051506.152 9
 89 11 12 14 25 29.0800000  0  4G13G12G 3G 9
  20581723.240    20581728.587   -47074029.023 9  17951766.840 8
  20587781.345    20587785.748   -89011568.843 9 112165022.228 9
  22601028.474    22601033.022   -81456727.091 9  88704605.077 9
  21535174.123    21535178.602   -19007832.459 9  -6984444.104 8
 89 11 12 14 25 59.0800000  0  4G13G12G 3G 9
  20584997.185    20585002.360   -47056825.466 9  17965172.175 8
  20584529.359    20584532.926   -89028658.569 9 112151705.516 9
  22589590.678    22589594.540   -81516833.242 9  88657769.089 9
  21551643.696    21551646.908   -18921286.369 9  -6917005.674 8
 89 11 12 14 26 29.0800000  0  4G13G12G 3G 9
  20588329.684    20588334.689   -47039314.291 9  17978817.187 8
  20581392.523    20581397.480   -89045140.352 9 112138862.516 9
  22578204.851    22578209.887   -81576665.038 8  88611146.870 8
  21568203.547    21568209.346   -18834259.928 9  -6849192.963 8
 89 11 12 14 26 59.0800000  0  4G13G12G 3G 9
  20591720.648    20591725.539   -47021497.119 9  17992700.666 8
  20578372.689    20578377.317   -89061012.961 9 112126494.209 9
  22566872.476    22566876.317   -81636222.677 9  88564738.287 8
  21584856.487    21584860.294   -18746755.651 9  -6781007.900 9
 89 11 12 14 27 29.0800000  0  4G13G12G 3G 9
  20595168.265    20595173.601   -47003375.540 9  18006821.320 7
  20575468.388    20575472.658   -89076275.167 9 112114601.534 8
  22555591.318    22555595.421   -81695506.539 9  88518543.031 8
  21601598.408    21601602.101   -18658776.230 8  -6712452.602 8
 89 11 12 14 27 59.0800000  0  4G13G12G 3G 9
  20598674.348    20598679.664   -46984951.226 9  18021177.878 7
  20572679.665    20572684.542   -89090925.723 9 112103185.466 8
  22544360.192    22544366.368   -81754516.543 9  88472561.175 9
  21618429.211    21618434.226   -18570324.059 9  -6643528.930 8
 89 11 12 14 28 29.0800000  0  4G13G12G 3G 9
  20602237.681    20602242.543   -46966226.151 9  18035768.786 8
  20570008.331    20570013.180   -89104963.851 9 112092246.606 8
  22533185.091    22533188.194   -81813252.955 9  88426792.506 9
  21635350.824    21635355.973   -18481402.028 9  -6574239.133 8
 89 11 12 14 28 59.0800000  0  4G13G12G 3G 9
  20605858.538    20605862.913   -46947201.591 9  18050593.070 8
  20567453.380    20567458.609   -89118388.536 9 112081785.761 9
  22522059.312    22522062.346   -81871715.827 9  88381236.974 9
  21652361.228    21652365.813   -18392012.592 9  -6504585.131 9
 89 11 12 14 29 29.0800000  0  4G13G12G 3G 9
  20609534.898    20609540.178   -46927879.891 9  18065648.883 9
  20565017.155    20565021.268   -89131198.458 8 112071803.951 9
  22510985.688    22510990.898   -81929905.609 9  88335894.231 8
  21669460.048    21669464.680   -18302158.393 9  -6434568.974 9
 89 11 12 14 29 59.0800000  0  4G13G12G 3G 9
  20613267.683    20613273.045   -46908262.239 9  18080935.302 8
  20562695.923    20562700.927   -89143392.563 9 112062301.998 8
  22499964.522    22499968.850   -81987822.214 9  88290764.368 9
  21686646.303    21686651.238   -18211842.137 9  -6364192.767 9
 89 11 12 14 30 29.0800000  0  4G13G12G 3G 9
  20617057.618    20617063.037   -46888350.494 9  18096450.887 8
  20560492.999    20560497.827   -89154969.649 9 112053280.839 9
  22488995.903    22489000.620   -82045465.600 9  88245847.398 9
  21703920.560    21703925.255   -18121066.457 9  -6293458.578 9
 89 11 12 14 30 59.0800000  0  4G13G12G 3G 9
  20620901.956    20620906.459   -46868146.580 9  18112194.140 8
  20558407.611    20558412.488   -89165928.515 9 112044741.404 9
  22478078.047    22478082.943   -82102836.188 9  88201142.986 9
  21721281.611    21721286.540   -18029833.678 9  -6222368.201 8
 89 11 12 14 31 29.0800000  0  4G13G12G 3G 9
  20624802.314    20624806.745   -46847652.036 9  18128163.865 7
  20556439.505    20556445.724   -89176268.382 9 112036684.314 9
  22467212.672    22467216.753   -82159934.399 8  88156650.824 9
  21738729.931    21738733.074   -17938147.011 9  -6150924.146 9
 89 11 12 14 31 59.0800000  0  4G13G12G 3G 9
  20628756.604    20628761.583   -46826868.646 9  18144358.656 8
  20554590.554    20554595.930   -89185988.268 9 112029110.320 9
  22456399.426    22456403.755   -82216760.485 9  88112370.711 9
  21756263.261    21756267.169   -17846008.985 9  -6079128.378 9
 89 11 12 14 32 29.0800000  0  4G13G12G 3G 9
  20632766.457    20632772.740   -46805798.372 9  18160776.993 7
  20552859.005    20552863.774   -89195087.211 9 112022020.182 9
  22445637.826    22445641.871   -82273314.431 9  88068302.655 9
  21773882.097    21773886.225   -17753422.319 9  -6006983.040 9
 89 11 12 14 32 59.0800000  0  4G13G12G 3G 9
  20636830.642    20636835.061   -46784442.803 9  18177417.634 8
  20551245.612    20551250.132   -89203564.370 9 112015414.555 9
  22434927.461    22434932.294   -82329596.508 9  88024446.445 8
  21791585.959    21791589.512   -17660389.563 9  -5934490.086 8
 89 11 12 14 33 29.0800000  0  4G13G12G 3G 9
  20640948.570    20640953.329   -46762804.006 8  18194278.986 8
  20549751.835    20549755.712   -89211418.706 9 112009294.227 9
  22424270.015    22424273.236   -82385607.170 9  87980801.721 9
  21809372.686    21809377.618   -17566913.945 9  -5861652.055 8
 89 11 12 14 33 59.0800000  0  4G13G12G 3G 9
  20645120.044    20645125.406   -46740884.011 9  18211359.424 7
  20548375.516    20548381.213   -89218649.771 9 112003659.580 9
  22413662.274    22413666.797   -82441346.434 9  87937368.481 9
  21827244.875    21827249.730   -17472997.852 9  -5788470.789 8
 89 11 12 14 34 29.0800000  0  4G13G12G 3G 9
  20649343.819    20649349.172   -46718683.357 8  18228658.567 8
  20547118.058    20547122.557   -89225256.571 9 111998511.363 9
  22403106.551    22403112.155   -82496814.599 9  87894146.480 8
  21845200.473    21845204.200   -17378644.002 9  -5714948.426 9
 89 11 12 14 34 59.0800000  0  4G13G12G 3G 9
  20653622.298    20653626.529   -46696204.109 9  18246174.799 8
  20545980.151    20545985.333   -89231238.267 9 111993850.246 8
  22392602.914    22392607.205   -82552011.940 9  87851135.515 8
  21863237.656    21863243.180   -17283855.120 9  -5641087.069 9
 89 11 12 14 35 29.0800000  0  4G13G12G 3G 9
  20657952.376    20657956.866   -46673448.173 9  18263906.638 8
  20544960.313    20544965.583   -89236594.008 8 111989676.870 9
  22382151.944    22382155.872   -82606938.599 9  87808335.468 9
  21881357.603    21881362.235   -17188633.920 9  -5566888.847 8
 89 11 12 14 35 59.0800000  0  4G13G12G 3G 9
  20662334.896    20662338.629   -46650417.134 9  18281852.832 8
  20544061.462    20544065.802   -89241323.313 8 111985991.637 9
  22371750.862    22371755.337   -82661595.084 9  87765745.945 8
  21899558.858    21899564.265   -17092983.749 9  -5492356.362 8
 89 11 12 14 36 29.0800000  0  4G13G12G 3G 9
  20666769.932    20666774.364   -46627113.460 9  18300011.461 8
  20543279.674    20543285.166   -89245425.593 9 111982794.997 9
  22361400.965    22361405.420   -82715981.571 9  87723366.811 9
  21917841.367    21917847.498   -16996907.002 9  -5417491.483 8
 89 11 12 14 36 59.0800000  0  4G13G12G 3G 9
  20671255.421    20671261.329   -46603538.700 9  18318381.328 8
  20542618.644    20542624.156   -89248899.675 9 111980087.856 9
  22351103.003    22351107.407   -82770098.485 9  87681197.732 9
  21936206.362    21936210.346   -16900406.666 9  -5342296.520 9
 89 11 12 14 37 29.0800000  0  4G13G12G 3G 9
  20675793.383    20675799.233   -46579693.522 9  18336961.930 9
  20542078.513    20542083.629   -89251744.962 9 111977870.686 8
  22340856.186    22340861.188   -82823945.934 9  87639238.622 9
  21954649.465    21954654.769   -16803485.476 9  -5266773.628 9
 89 11 12 14 37 59.0800000  0  4G13G12G 3G 9
  20680382.315    20680387.818   -46555579.852 9  18355751.725 8
  20541656.678    20541661.942   -89253960.263 9 111976144.426 8
  22330661.589    22330665.682   -82877523.967 9  87597489.461 9
  21973173.962    21973176.455   -16706145.972 9  -5190924.788 8
 89 11 12 14 38 29.0800000  0  4G13G12G 3G 9
  20685021.355    20685026.374   -46531199.900 9  18374749.018 8
  20541354.628    20541359.974   -89255545.535 9 111974909.081 9
  22320516.715    22320521.977   -82930833.205 9  87555949.741 9
  21991775.073    21991779.830   -16608391.355 9  -5114752.474 8
 89 11 12 14 38 59.0800000  0  4G13G12G 3G 9
  20689711.496    20689716.385   -46506555.604 9  18393952.295 8
  20541172.877    20541178.624   -89256500.323 9 111974165.038 8
  22310423.910    22310428.124   -82983874.033 9  87514619.161 9
  22010455.883    22010460.915   -16510224.696 9  -5038259.085 8
 89 11 12 14 39 29.0800000  0  4G13G12G 3G 9
  20694450.915    20694455.132   -46481648.400 9  18413360.433 7
  20541111.488    20541116.502   -89256824.020 9 111973912.747 9
  22300381.010    22300385.691   -83036646.959 9  87473497.354 9
  22029214.679    22029219.184   -16411648.861 9  -4961446.875 9
 89 11 12 14 39 59.0800000  0  4G13G12G 3G 9
  20699241.048    20699245.855   -46456480.508 9  18432971.703 8
  20541170.592    20541175.102   -89256516.069 9 111974152.644 8
  22290388.195    22290394.441   -83089152.188 9  87432584.140 8
  22048050.034    22048054.671   -16312666.596 9  -4884317.956 9
 89 11 12 14 40 29.0800000  0  4G13G12G 3G 9
  20704078.915    20704083.964   -46431052.891 9  18452785.362 8
  20541349.596    20541355.100   -89255575.690 9 111974885.348 9
  22280449.058    22280453.798   -83141389.796 9  87391879.457 8
  22066962.459    22066967.749   -16213280.569 9  -4806874.420 8
 89 11 12 14 40 59.0800000  0  4G13G12G 3G 9
  20708967.597    20708971.555   -46405366.982 9  18472800.277 9
  20541649.199    20541654.334   -89254002.540 9 111976111.110 8
  22270559.005    22270565.376   -83193360.405 9  87351382.840 9
  22085951.254    22085956.213   -16113494.003 9  -4729118.788 9
 89 11 12 14 41 29.0800000  0  4G13G12G 3G 9
  20713903.710    20713909.573   -46379424.959 9  18493014.766 7
  20542068.502    20542073.177   -89251795.961 9 111977830.461 9
  22260720.249    22260724.523   -83245064.236 9  87311094.076 8
  22105015.528    22105021.596   -16013309.528 9  -4651053.093 9
 89 11 12 14 41 59.0800000  0  4G13G12G 3G 9
  20718888.803    20718893.324   -46353229.122 9  18513427.021 8
  20542609.673    20542613.346   -89248956.080 9 111980043.281 8
  22250932.265    22250937.767   -83296501.842 8  87271012.780 9
  22124155.778    22124160.622   -15912730.359 9  -4572679.846 9
 89 11 12 14 42 29.0800000  0  4G13G12G 3G 9
  20723921.850    20723926.410   -46326780.409 9  18534036.342 8
  20543270.613    20543275.000   -89245482.588 9 111982749.840 9
  22241194.084    22241199.789   -83347673.526 8  87231138.674 9
  22143369.844    22143374.958   -15811759.341 9  -4494001.264 9
 89 11 12 14 42 59.0800000  0  4G13G12G 3G 9
  20729003.101    20729008.036   -46300080.641 9  18554841.273 9
  20544052.460    20544057.038   -89241374.985 9 111985950.507 9
  22231507.301    22231512.791   -83398579.696 9  87191471.470 9
  22162658.414    22162663.441   -15710399.396 9  -4415019.623 8
 89 11 12 14 43 29.0800000  0  4G13G12G 3G 9
  20734130.875    20734135.937   -46273131.757 9  18575840.333 8
  20544954.196    20544960.028   -89236632.970 9 111989645.514 9
  22221870.857    22221875.644   -83449220.696 9  87152010.897 9
  22182020.142    22182025.386   -15608653.626 9  -4335737.344 9
 89 11 12 14 43 59.0800000  0  4G13G12G 3G 9
  20739305.840    20739311.490   -46245935.709 9  18597031.985 8
  20545976.586    20545982.472   -89231256.294 9 111993835.066 9
  22212284.935    22212290.325   -83499596.994 9  87112756.576 9
  22201454.222    22201460.102   -15506524.995 9  -4256156.720 8
 89 11 12 14 44 29.0800000  0  4G13G12G 3G 9
  20744528.906    20744533.671   -46218493.904 9  18618415.123 8
  20547121.612    20547128.154   -89225244.476 7 111998519.521 6
  22202748.387    22202753.793   -83549708.877 9  87073708.298 9
  22220961.255    22220965.340   -15404016.545 9  -4176280.144 9
 89 11 12 14 44 59.0800000  0  4G13G12G 3G 9
  20749797.024    20749801.620   -46190808.135 9  18639988.381 8
  20548387.077    20548390.682   -89218597.305 7 112003699.067 7
  22193263.499    22193268.075   -83599556.721 9  87034865.757 9
  22240539.809    22240544.414   -15301131.046 9  -4096109.774 8
 89 11 12 14 45 29.0800000  0  4G13G12G 3G 9
  20755111.439    20755116.590   -46162879.923 9  18661750.536 9
  20549772.388    20549778.036   -89211314.549 8 112009373.876 7
  22183827.551    22183832.022   -83649141.161 9  86996228.460 9
  22260188.391    22260194.154   -15197871.677 9  -4015648.070 8
 89 11 12 14 45 59.0800000  0  4G13G12G 3G 9
  20760471.536    20760477.207   -46134710.488 9  18683700.673 8
  20551279.673    20551284.097   -89203395.806 7 112015544.259 7
  22174442.283    22174447.349   -83698462.770 9  86957795.976 8
  22279909.380    22279914.955   -15094241.442 9  -3934897.375 9
 89 11 12 14 46 29.0800000  0  4G13G12G 3G 9
  20765877.414    20765882.328   -46106301.704 9  18705837.310 8
  20552906.824    20552913.102   -89194841.366 7 112022209.973 7
  22165106.775    22165111.528   -83747521.686 9  86919568.194 8
  22299699.771    22299705.013   -14990243.383 9  -3853860.058 8
 89 11 12 14 46 59.0800000  0  4G13G12G 3G 9
  20771328.835    20771333.566   -46077656.003 9  18728158.557 8
  20554655.201    20554661.769   -89185650.884 7 112029371.315 8
  22155821.860    22155825.944   -83796318.363 9  86881544.739 9
  22319559.298    22319564.887   -14885880.480 9  -3772538.457 8
 89 11 12 14 47 29.0800000  0  4G13G12G 3G 9
  20776824.945    20776828.693   -46048774.538 9  18750663.510 8
  20556526.596    20556531.304   -89175824.546 8 112037028.131 8
  22146584.898    22146589.452   -83844853.166 9  86843725.360 9
  22339487.768    22339492.586   -14781156.037 9  -3690935.144 9
 89 11 12 14 47 59.0800000  0  4G13G12G 3G 9
  20782365.274    20782371.130   -46019658.993 9  18773350.873 8
  20558517.033    20558522.022   -89165362.259 7 112045180.499 8
  22137398.956    22137403.454   -83893126.899 9  86806109.407 8
  22359484.897    22359490.214   -14676072.766 9  -3609052.210 9
 89 11 12 14 48 29.0800000  0  4G13G12G 3G 9
  20787950.704    20787955.743   -45990311.201 9  18796219.202 8
  20560629.418    20560635.201   -89154263.717 7 112053828.625 6
  22128262.252    22128267.744   -83941139.916 9  86768696.617 8
  22379548.703    22379554.866   -14570633.881 9  -3526892.180 8
 89 11 12 14 48 59.0800000  0  4G13G12G 3G 9
  20793579.499    20793585.563   -45960732.684 9  18819267.313 8
  20562860.838    20562868.270   -89142529.171 7 112062972.372 7
  22119175.661    22119180.165   -83988892.464 9  86731486.772 8
  22399681.110    22399686.198   -14464842.227 9  -3444457.272 8
 89 11 12 14 49 29.0800000  0  4G13G12G 3G 9
  20799251.301    20799257.237   -45930925.463 9  18842493.636 8
  20565215.472    20565221.661   -89130158.565 7 112072611.724 7
  22110137.182    22110142.874   -84036385.527 9  86694479.132 9
  22419878.795    22419884.600   -14358701.201 9  -3361750.118 9
 89 11 12 14 49 59.0800000  0  4G13G12G 3G 9
  20804967.106    20804972.153   -45900891.219 9  18865896.852 8
  20567690.920    20567696.449   -89117151.908 7 112082746.709 8
  22101149.487    22101154.360   -84083619.131 9  86657673.677 8
  22440142.645    22440148.133   -14252213.746 9  -3278773.025 9
 89 11 12 14 50 29.0800000  0  4G13G12G 3G 9
  20810725.184    20810731.175   -45870631.516 9  18889475.763 8
  20570287.476    20570294.841   -89103509.747 2 112093376.879 1
  22092210.590    22092214.852   -84130593.973 9  86621069.843 9
  22460473.315    22460477.390   -14145383.093 9  -3195528.504 9
 89 11 12 14 50 59.0800000  0  4G13G12G 3G 9
  20816526.125    20816531.639   -45840147.447 9  18913229.491 9
  20573004.843    20573010.476   -89089231.976 9 112104502.345 9
  22083321.038    22083324.873   -84177310.432 9  86584667.355 8
  22480866.189    22480871.280   -14038211.999 9  -3112018.710 8
 89 11 12 14 51 29.0800000  0  4G13G12G 3G 9
  20822369.244    20822374.948   -45809440.862 9  18937156.602 8
  20575843.073    20575847.848   -89074318.681 9 112116123.013 8
  22074481.077    22074484.920   -84223769.015 9  86548465.800 9
  22501324.778    22501329.860   -13930703.895 9  -3028246.305 8
 89 11 12 14 51 59.0800000  0  4G13G12G 3G 9
  20828255.395    20828260.134   -45778513.270 9  18961255.945 8
  20578801.098    20578807.318   -89058769.931 9 112128238.845 9
  22065688.264    22065693.739   -84269970.120 9  86512464.877 8
  22521846.332    22521851.818   -13822861.388 9  -2944213.335 8
 89 11 12 14 52 29.0800000  0  4G13G12G 3G 9
  20834181.612    20834188.197   -45747366.481 9  18985526.081 7
  20581881.296    20581886.243   -89042585.880 9 112140849.729 8
  22056945.205    22056951.331   -84315914.270 9  86476664.176 8
  22542430.749    22542437.451   -13714688.124 9  -2859922.631 9
 89 11 12 14 52 59.0800000  0  4G13G12G 3G 9
  20840150.270    20840156.138   -45716002.272 9  19009965.631 8
  20585081.176    20585087.954   -89025766.606 9 112153955.578 9
  22048251.728    22048256.759   -84361601.995 9  86441063.276 8
  22563078.528    22563084.497   -13606186.806 9  -2775376.311 9
 89 11 12 14 53 29.0800000  0  4G13G12G 3G 9
  20846159.701    20846165.884   -45684422.303 8  19034573.298 8
  20588403.657    20588408.618   -89008312.423 9 112167556.163 8
  22039606.272    22039611.438   -84407033.889 9  86405661.739 8
  22583787.246    22583793.697   -13497360.874 9  -2690577.040 9
 89 11 12 14 53 59.0800000  0  4G13G12G 3G 9
  20852210.738    20852215.587   -45652628.171 9  19059347.860 8
  20591845.677    20591851.224   -88990223.555 9 112181651.307 9
  22031010.061    22031014.948   -84452210.560 9  86370459.063 9
  22604558.305    22604563.472   -13388213.276 9  -2605527.116 9
 89 11 12 14 54 29.0800000  0  4G13G12G 3G 9
  20858300.977    20858306.764   -45620621.999 9  19084287.643 8
  20595408.238    20595413.829   -88971500.543 9 112196240.595 8
  22022460.512    22022466.781   -84497132.440 9  86335454.934 9
  22625387.879    22625394.208   -13278747.458 9  -2520229.230 8
 89 11 12 14 54 59.0800000  0  4G13G12G 3G 9
  20864431.940    20864438.156   -45588404.393 9  19109392.175 8
  20599091.826    20599097.918   -88952143.859 9 112211323.641 8
  22013961.295    22013966.198   -84541800.293 9  86300648.749 9
  22646279.031    22646284.946   -13168966.319 9  -2434685.643 8
 89 11 12 14 55 29.0800000  0  4G13G12G 3G 9
  20870602.160    20870608.731   -45555976.998 9  19134660.172 8
  20602896.183    20602900.987   -88932153.589 9 112226900.397 9
  22005509.185    22005514.860   -84586214.355 9  86266040.318 9
  22667228.741    22667234.580   -13058873.026 9  -2348898.811 8
 89 11 12 14 55 59.0800000  0  4G13G12G 3G 9
  20876813.065    20876819.018   -45523341.890 9  19160090.031 8
  20606820.480    20606826.500   -88911530.277 9 112242970.437 9
  21997106.549    21997111.723   -84630375.368 9  86231629.083 8
  22688237.369    22688243.576   -12948470.624 9  -2262871.135 8
 89 11 12 14 56 29.0800000  0  4G13G12G 3G 9
  20883061.658    20883067.362   -45490500.735 8  19185680.456 9
  20610864.717    20610870.852   -88890274.357 9 112259533.406 9
  21988750.662    21988755.528   -84674283.701 9  86197414.747 8
  22709305.097    22709310.328   -12837762.339 9  -2176605.113 9
 89 11 12 14 56 59.0800000  0  4G13G12G 3G 9
  20889350.448    20889356.465   -45457454.840 9  19211430.402 8
  20615031.211    20615035.758   -88868386.300 9 112276588.949 8
  21980442.457    21980448.433   -84717939.800 9  86163396.950 8
  22730431.061    22730435.777   -12726751.175 9  -2090103.061 9
 89 11 12 14 57 29.0800000  0  4G13G12G 3G 9
  20895678.209    20895684.545   -45424205.750 9  19237338.697 8
  20619316.272    20619321.076   -88845866.660 8 112294136.653 8
  21972183.057    21972188.589   -84761344.235 9  86129575.265 9
  22751611.943    22751617.907   -12615440.394 9  -2003367.560 9
 89 11 12 14 57 59.0800000  0  4G13G12G 3G 9
  20902043.593    20902049.527   -45390755.199 9  19263403.965 8
  20623721.845    20623726.834   -88822715.850 9 112312176.160 9
  21963971.548    21963976.301   -84804497.690 9  86095949.142 8
  22772850.383    22772855.302   -12503833.072 9  -1916401.002 8
 89 11 12 14 58 29.0800000  0  4G13G12G 3G 9
  20908447.232    20908454.236   -45357104.734 9  19289625.005 8
  20628247.585    20628252.676   -88798934.384 9 112330707.097 9
  21955807.826    21955813.158   -84847400.672 9  86062518.188 9
  22794143.963    22794149.557   -12391932.404 9  -1829205.848 9
 89 11 12 14 58 59.0800000  0  4G13G12G 3G 9
  20914888.462    20914894.177   -45323255.539 9  19316000.919 8
  20632892.293    20632898.428   -88774522.686 9 112349729.115 9
  21947689.992    21947695.196   -84890054.020 9  86029281.765 8
  22815493.812    22815499.762   -12279741.749 9  -1741784.743 9
 89 11 12 14 59 29.0800000  0  4G13G12G 3G 9
  20921367.117    20921372.862   -45289209.496 9  19342530.198 8
  20637657.771    20637663.532   -88749481.391 9 112369241.734 9
  21939621.068    21939627.180   -84932457.811 9  85996239.790 9
  22836898.167    22836904.138   -12167264.169 9  -1654140.049 9
 89 11 12 14 59 59.0800000  0  4G13G12G 3G 9
  20927883.291    20927889.545   -45254968.035 9  19369211.773 8
  20642542.767    20642550.115   -88723811.286 6 112389244.336 7
  21931600.304    21931605.362   -84974612.946 8  85963391.565 9
  22858355.603    22858361.879   -12054502.780 9  -1566274.228 9
 89 11 12 15  0 29.0800000  0  4G13G12G 3G 9
  20934436.357    20934443.357   -45220533.181 9  19396044.039 9
  20647547.009    20647551.910   -88697513.223 9 112409736.253 9
  21923625.443    21923631.028   -85016520.109 9  85930736.566 9
  22879867.084    22879873.730   -11941461.069 9  -1478189.956 9
 89 11 12 15  0 59.0800000  0  4G13G12G 3G 9
  20941024.959    20941031.480   -45185905.739 8  19423026.372 8
  20652671.218    20652676.706   -88670587.847 9 112430716.986 9
  21915697.381    21915703.386   -85058179.874 9  85898274.358 9
  22901430.801    22901437.869   -11828142.091 9  -1389889.650 8
 89 11 12 15  1 29.0800000  0  4G13G12G 3G 9
  20947651.247    20947657.793   -45151087.809 9  19450157.125 8
  20657914.320    20657919.301   -88643036.040 9 112452185.837 9
  21907817.688    21907822.891   -85099593.118 9  85866004.236 9
  22923048.685    22923052.838   -11714548.990 2  -1301375.724 1
 89 11 12 15  1 59.0800000  0  4G13G12G 3G 9
  20954313.152    20954319.219   -45116080.830 9  19477435.197 8
  20663275.932    20663281.982   -88614858.087 5 112474142.611 5
  21899983.379    21899989.159   -85140759.767 9  85833926.274 9
  22944714.917    22944720.767   -11600685.021 2  -1212650.744 1
 89 11 12 15  2 29.0800000  0  4G13G12G 3G 9
  20961010.080    20961015.805   -45080886.279 9  19504859.428 8
  20668757.937    20668762.687   -88586055.114 6 112496586.407 5
  21892196.337    21892201.956   -85181680.920 9  85802039.595 9
  22966433.620    22966440.341   -11486553.299 9  -1123717.133 9
 89 11 12 15  2 59.0800000  0  4G13G12G 3G 9
  20967743.325    20967748.870   -45045505.818 9  19532428.529 8
  20674357.104    20674362.492   -88556627.883 9 112519516.635 9
  21884456.242    21884461.210   -85222357.022 9  85770343.861 8
  22988202.546    22988209.645   -11372157.028 9  -1034577.377 9
 89 11 12 15  3 29.0800000  0  4G13G12G 3G 9
  20974511.183    20974517.193   -45009940.728 9  19560141.485 8
  20680075.974    20680081.292   -88526577.194 9 112542932.671 9
  21876762.065    21876767.568   -85262788.511 9  85738838.749 9
  23010020.938    23010028.652   -11257499.336 9   -945233.935 9
 89 11 12 15  3 59.0800000  0  4G13G12G 3G 9
  20981313.663    20981319.864   -44974192.265 8  19587997.339 8
  20685912.638    20685919.023   -88495904.011 6 112566833.783 6
  21869114.142    21869120.278   -85302976.199 9  85707523.598 9
  23031889.168    23031896.106   -11142583.507 9   -855689.347 8
 89 11 12 15  4 29.0800000  0  4G13G12G 3G 9
  20988151.014    20988156.961   -44938262.937 9  19615994.121 8
  20691867.526    20691873.593   -88464609.369 9 112591219.122 9
  21861514.091    21861518.945   -85342920.614 9  85676398.018 9
  23053805.850    23053812.619   -11027412.974 9   -765946.273 9
 89 11 12 15  4 59.0800000  0  4G13G12G 3G 9
  20995022.775    20995028.880   -44902153.557 9  19644131.196 8
  20697940.920    20697947.288   -88432693.482 9 112616088.570 9
  21853958.724    21853963.913   -85382622.487 9  85645461.419 8
  23075769.661    23075776.823   -10911990.599 9   -676006.977 9
 89 11 12 15  5 29.0800000  0  4G13G12G 3G 9
  21001928.634    21001934.042   -44865865.163 9  19672407.769 8
  20704132.364    20704138.000   -88400157.671 9 112641441.078 8
  21846450.023    21846454.661   -85422082.452 8  85614713.324 9
  23097781.306    23097789.510   -10796319.998 9   -585874.258 8
 89 11 12 15  5 59.0800000  0  4G13G12G 3G 9
  21008867.808    21008872.813   -44829399.363 9  19700822.587 8
  20710441.715    20710446.807   -88367003.204 9 112667275.636 8
  21838987.432    21838992.904   -85461301.021 9  85584153.340 9
  23119839.175    23119847.788   -10680403.879 9   -495550.242 9
 89 11 12 15  6 29.0800000  0  4G13G12G 3G 9
  21015839.758    21015847.420   -44792757.698 9  19729374.424 8
  20716868.171    20716873.765   -88333230.889 9 112693591.631 8
  21831569.904    21831574.475   -85500278.812 9  85553780.962 9
  23141944.050    23141951.325   -10564245.827 9   -405037.689 8
 89 11 12 15  6 59.0800000  0  4G13G12G 3G 9
  21022845.821    21022851.296   -44755941.770 9  19758062.063 8
  20723412.564    20723418.873   -88298841.703 9 112720388.310 9
  21824198.001    21824203.844   -85539016.332 9  85523595.826 9
  23164094.743    23164100.644   -10447848.789 9   -314338.917 9
 89 11 12 15  7 29.0800000  0  4G13G12G 3G 9
  21029884.927    21029890.846   -44718953.010 9  19786884.375 8
  20730073.635    20730079.629   -88263836.943 9 112747664.666 9
  21816873.089    21816878.250   -85577514.360 9  85493597.282 9
  23186289.238    23186295.789   -10331216.071 9   -223456.511 8
 89 11 12 15  7 59.0800000  0  4G13G12G 3G 9
  21036955.990    21036962.412   -44681792.798 9  19815840.268 8
  20736851.556    20736857.936   -88228217.964 8 112775419.632 9
  21809592.642    21809598.236   -85615773.591 9  85463784.824 8
  23208527.352    23208535.165   -10214350.908 9   -132392.959 9
 89 11 12 15  8 29.0800000  0  4G13G12G 3G 9
  21044060.338    21044064.927   -44644462.870 9  19844928.436 8
  20743747.210    20743752.418   -88191985.458 9 112803652.673 9
  21802356.548    21802362.434   -85653794.765 9  85434157.866 8
  23230809.826    23230816.915   -10097256.762 9    -41151.002 9
 89 11 12 15  8 59.0800000  0  4G13G12G 3G 9
  21051195.634    21051202.447   -44606964.638 9  19874147.725 8
  20750758.112    20750764.321   -88155140.303 9 112832363.097 8
  21795166.741    21795172.588   -85691578.701 9  85404715.775 8
  23253135.572    23253142.782    -9979936.687 9     50267.028 9
 89 11 12 15  9 29.0800000  0  4G13G12G 3G 9
  21058363.445    21058369.155   -44569299.467 9  19903497.101 8
  20757886.408    20757892.144   -88117683.941 9 112861549.791 9
  21788022.006    21788027.593   -85729125.812 9  85375458.225 8
  23275503.758    23275510.253    -9862394.113 8    141858.422 8
 89 11 12 15  9 59.0800000  0  4G13G12G 3G 9
  21065562.495    21065568.834   -44531468.445 8  19932975.719 8
  20765130.577    20765136.058   -88079617.807 9 112891211.634 9
  21780921.749    21780927.777   -85766436.817 9  85346384.647 8
  23297912.489    23297919.813    -9744632.220 9    233620.703 9
 89 11 12 15 10 29.0800000  0  4G13G12G 3G 9
  21072792.142    21072799.575   -44493473.608 9  19962581.986 8
  20772489.021    20772495.373   -88040943.109 9 112921347.679 8
  21773866.851    21773872.279   -85803511.980 9  85317494.839 8
  23320363.381    23320370.170    -9626653.920 9    325551.628 8
 89 11 12 15 10 59.0800000  0  4G13G12G 3G 9
  21080054.165    21080059.460   -44455316.101 9  19992315.000 9
  20779964.713    20779969.879   -88001660.931 9 112951957.072 8
  21766856.477    21766861.230   -85840352.439 9  85288787.928 9
  23342854.834    23342861.422    -9508462.779 9    417648.400 8
 89 11 12 15 11 29.0800000  0  4G13G12G 3G 9
  21087345.936    21087352.968   -44416997.110 9  20022173.861 7
  20787555.195    20787561.134   -87961772.531 9 112983038.854 9
  21759890.987    21759896.473   -85876958.470 9  85260263.665 9
  23365385.830    23365392.791    -9390061.676 9    509908.768 8
 89 11 12 15 11 59.0800000  0  4G13G12G 3G 9
  21094668.128    21094674.229   -44378517.854 9  20052157.590 8
  20795260.694    20795267.719   -87921279.029 9 113014592.149 8
  21752969.141    21752974.795   -85913331.108 9  85231921.286 8
  23387955.976    23387963.731    -9271454.085 9    602330.043 9
 89 11 12 15 12 29.0800000  0  4G13G12G 3G 9
  21102021.107    21102026.922   -44339879.820 9  20082265.053 7
  20803081.432    20803088.210   -87880181.852 9 113046615.844 8
  21746092.757    21746097.607   -85949470.897 9  85203760.346 8
  23410565.237    23410572.583    -9152643.141 9    694909.770 8
 89 11 12 15 12 59.0800000  0  4G13G12G 3G 9
  21109403.733    21109410.106   -44301084.714 9  20112494.903 9
  20811016.496    20811023.582   -87838482.262 9 113079108.936 9
  21739259.030    21739264.601   -85985378.394 9  85175780.428 9
  23433213.117    23433220.235    -9033632.083 9    787645.426 9
 89 11 12 15 13 29.0800000  0  4G13G12G 3G 9
  21116815.866    21116821.009   -44262133.713 9  20142846.235 8
  20819066.826    20819072.322   -87796182.089 9 113112070.021 8
  21732470.166    21732476.274   -86021054.148 9  85147981.067 8
  23455896.663    23455904.990    -8914423.988 9    880534.614 9
 89 11 12 15 13 59.0800000  0  4G13G12G 3G 9
  21124256.961    21124262.433   -44223027.893 9  20173318.210 9
  20827229.713    20827236.352   -87753282.989 9 113145497.806 8
  21725725.331    21725731.063   -86056499.033 9  85120361.626 9
  23478619.002    23478626.327    -8795022.408 9    973574.557 9
 89 11 12 15 14 29.0800000  0  4G13G12G 3G 9
  21131728.305    21131734.877   -44183768.530 9  20203909.827 8
  20835506.700    20835513.835   -87709786.074 9 113179391.410 9
  21719024.371    21719029.796   -86091713.735 9  85092921.549 8
  23501375.646    23501384.825    -8675430.580 8   1066762.756 9
 89 11 12 15 14 59.0800000  0  4G13G12G 3G 9
  21139228.524    21139233.740   -44144356.982 9  20234620.023 7
  20843898.146    20843904.602   -87665692.722 9 113213749.773 8
  21712366.783    21712372.187   -86126699.013 9  85065660.238 8
  23524168.966    23524177.701    -8555651.504 9   1160096.850 9
 89 11 12 15 15 29.0800000  0  4G13G12G 3G 9
  21146755.617    21146762.676   -44104795.547 9  20265447.006 8
  20852401.635    20852407.959   -87621004.497 9 113248571.670 9
  21705753.368    21705758.101   -86161455.713 9  85038577.042 9
  23546997.843    23547006.149    -8435688.693 9   1253574.121 9
 89 11 12 15 15 59.0800000  0  4G13G12G 3G 9
  21154312.875    21154320.591   -44065084.936 9  20296390.237 9
  20861018.011    20861025.758   -87575722.976 9 113283855.874 9
  21699182.728    21699187.900   -86195984.205 9  85011671.677 8
  23569861.178    23569869.276    -8315545.343 9   1347192.059 8
 89 11 12 15 16 29.0800000  0  4G13G12G 3G 9
  21161897.661    21161904.463   -44025226.291 9  20327448.834 8
  20869747.322    20869755.083   -87529849.805 9 113319601.109 9
  21692654.825    21692661.871   -86230285.276 9  84984943.515 8
  23592757.137    23592765.314    -8195224.486 9   1440948.314 8
 89 11 12 15 16 59.0800000  0  4G13G12G 3G 9
  21169511.009    21169517.125   -43985221.094 9  20358621.603 8
  20878590.401    20878596.427   -87483386.414 9 113355806.245 9
  21686169.806    21686177.026   -86264359.682 9  84958391.975 9
  23615687.480    23615694.006    -8074729.619 9   1534840.161 8
 89 11 12 15 17 29.0800000  0  4G13G12G 3G 9
  21177151.660    21177158.118   -43945070.260 9  20389907.857 8
  20887544.130    20887550.342   -87436334.504 9 113392469.971 8
  21679729.706    21679735.704   -86298208.023 9  84932016.579 8
  23638648.811    23638658.083    -7954063.756 9   1628865.257 8
 89 11 12 15 17 59.0800000  0  4G13G12G 3G 9
  21184819.583    21184825.169   -43904775.577 9  20421306.206 8
  20896609.328    20896615.641   -87388695.391 9 113429591.256 9
  21673331.890    21673336.779   -86331830.954 9  84905816.822 8
  23661642.718    23661651.010    -7833230.332 9   1723020.925 8
 89 11 12 15 18 29.0800000  0  4G13G12G 3G 9
  21192514.952    21192521.739   -43864338.023 9  20452815.868 8
  20905786.377    20905792.591   -87340470.542 9 113467168.975 8
  21666975.751    21666982.103   -86365229.176 9  84879792.171 8
  23684668.683    23684677.825    -7712232.385 9   1817304.790 9
 89 11 12 15 18 59.0800000  0  4G13G12G 3G 9
  21200235.877    21200242.950   -43823758.877 9  20484435.865 8
  20915074.198    20915080.630   -87291662.027 9 113505201.475 9
  21660663.210    21660668.305   -86398403.586 9  84853941.916 8
  23707723.746    23707732.531    -7591073.169 9   1911714.300 9
 89 11 12 15 19 29.0800000  0  4G13G12G 3G 9
  21207984.562    21207990.792   -43783039.476 9  20516165.162 8
  20924473.023    20924479.480   -87242271.554 9 113543687.472 8
  21654393.880    21654398.301   -86431354.655 9  84828265.694 8
  23730810.504    23730820.105    -7469756.191 9   2006246.738 8
 89 11 12 15 19 59.0800000  0  4G13G12G 3G 9
  21215760.320    21215766.249   -43742181.576 9  20548002.367 8
  20933982.818    20933988.817   -87192300.659 9 113582625.724 8
  21648165.764    21648170.386   -86464082.829 9  84802763.144 8
  23753925.637    23753934.579    -7348284.142 9   2100900.023 9
 89 11 12 15 20 29.0800000  0  4G13G12G 3G 9
  21223561.719    21223567.893   -43701185.481 9  20579947.246 8
  20943602.361    20943608.519   -87141751.147 9 113622014.868 9
  21641980.301    21641984.600   -86496589.069 9  84777433.528 9
  23777070.762    23777079.175    -7226660.410 9   2195671.510 9
 89 11 12 15 20 59.0800000  0  4G13G12G 3G 9
  21231389.419    21231395.364   -43660053.046 9  20611998.367 8
  20953330.271    20953337.661   -87090624.932 9 113661853.367 9
  21635835.694    21635840.962   -86528874.176 9  84752276.219 8
  23800243.039    23800251.860    -7104888.258 9   2290558.630 9
 89 11 12 15 21 29.0800000  0  4G13G12G 3G 9
  21239241.246    21239247.991   -43618785.163 9  20644155.038 7
  20963168.894    20963174.836   -87038924.234 9 113702139.532 8
  21629734.086    21629739.518   -86560938.846 9  84727290.674 8
  23823443.777    23823451.732    -6982971.228 9   2385558.648 9
 89 11 12 15 21 59.0800000  0  4G13G12G 3G 9
  21247120.601    21247127.461   -43577383.194 9  20676416.190 8
  20973116.594    20973123.494   -86986650.416 9 113742872.274 8
  21623675.076    21623680.626   -86592783.558 9  84702476.531 8
  23846671.645    23846679.522    -6860912.009 9   2480669.467 9
 89 11 12 15 22 29.0800000  0  4G13G12G 3G 9
  21255024.884    21255031.172   -43535848.474 9  20708780.785 8
  20983172.667    20983180.236   -86933805.565 9 113784049.991 8
  21617657.122    21617662.037   -86624408.953 8  84677833.275 9
  23869924.590    23869934.077    -6738714.090 9   2575888.353 9
 89 11 12 15 22 59.0800000  0  4G13G12G 3G 9
  21262954.095    21262960.941   -43494181.885 9  20741248.126 8
  20993337.069    20993342.015   -86880391.229 9 113825671.450 8
  21611679.236    21611685.912   -86655815.831 9  84653360.296 9
  23893203.571    23893212.306    -6616380.538 9   2671212.908 9
 89 11 12 15 23 29.0800000  0  4G13G12G 3G 9
  21270907.429    21270914.848   -43452384.569 9  20773817.331 9
  21003609.457    21003616.081   -86826409.247 9 113867735.224 8
  21605745.181    21605751.393   -86687004.700 9  84629057.198 8
  23916508.867    23916518.037    -6493914.555 8   2766640.679 9
 89 11 12 15 23 59.0800000  0  4G13G12G 3G 9
  21278885.435    21278892.522   -43410457.904 9  20806487.345 8
  21013989.737    21013996.493   -86771861.854 9 113910239.589 9
  21599851.729    21599857.344   -86717976.578 9  84604923.196 8
  23939838.815    23939847.357    -6371319.319 9   2862169.168 9
 89 11 12 15 24 29.0800000  0  4G13G12G 3G 9
  21286888.908    21286895.209   -43368403.237 9  20839257.094 7
  21024476.693    21024483.123   -86716750.734 9 113953183.210 9
  21593998.775    21594004.648   -86748732.178 9  84580957.722 8
  23963190.774    23963200.273    -6248598.257 8   2957795.675 9
 89 11 12 15 24 59.0800000  0  4G13G12G 3G 9
  21294915.506    21294921.851   -43326221.910 9  20872125.534 8
  21035071.300    21035078.499   -86661078.038 9 113996564.431 8
  21588186.774    21588193.726   -86779271.892 9  84557160.470 9
  23986568.280    23986576.865    -6125754.615 9   3053517.705 9
 89 11 12 15 25 29.0800000  0  4G13G12G 3G 9
  21302965.543    21302973.475   -43283914.363 9  20905092.334 8
  21045771.505    21045778.218   -86604845.722 9 114040381.705 9
  21582416.392    21582423.272   -86809596.806 9  84533530.612 8
  24009967.036    24009976.041    -6002791.483 9   3149332.844 9
 89 11 12 15 25 59.0800000  0  4G13G12G 3G 9
  21311040.849    21311047.523   -43241482.079 9  20938156.346 9
  21056579.473    21056586.380   -86548055.592 9 114084633.656 8
  21576686.829    21576692.552   -86839707.394 9  84510067.751 9
  24033388.951    24033397.722    -5879712.168 8   3245238.501 9
 89 11 12 15 26 29.0800000  0  4G13G12G 3G 9
  21319139.508    21319146.582   -43198926.014 9  20971316.795 9
  21067491.286    21067499.030   -86490710.147 9 114129318.306 9
  21570997.388    21571003.621   -86869604.464 9  84486771.273 8
  24056831.871    24056840.950    -5756519.819 9   3341232.251 9
 89 11 12 15 26 59.0800000  0  4G13G12G 3G 9
  21327260.976    21327268.108   -43156247.675 9  21004572.523 9
  21078509.803    21078516.184   -86432811.369 9 114174434.137 8
  21565349.269    21565355.445   -86899288.871 9  84463640.516 8
  24080295.570    24080304.061    -5633217.586 9   3437311.607 8
 89 11 12 15 27 29.0800000  0  4G13G12G 3G 9
  21335405.224    21335412.398   -43113448.091 9  21037922.729 8
  21089632.454    21089638.074   -86374361.205 9 114219979.612 9
  21559740.739    21559747.698   -86928761.050 9  84440675.136 8
  24103779.136    24103789.366    -5509808.982 8   3533473.852 9
 89 11 12 15 27 59.0800000  0  4G13G12G 3G 9
  21343572.824    21343580.586   -43070527.878 9  21071366.935 8
  21100859.138    21100866.552   -86315361.780 9 114265953.087 9
  21554172.347    21554178.584   -86958021.710 9  84417874.559 9
  24127283.458    24127292.325    -5386296.812 8   3629716.790 8
 89 11 12 15 28 29.0800000  0  4G13G12G 3G 9
  21351763.234    21351769.149   -43027488.686 9  21104903.863 8
  21112190.930    21112197.385   -86255815.296 9 114312352.837 9
  21548644.073    21548651.401   -86987071.630 9  84395238.203 8
  24150806.100    24150816.047    -5262684.251 7   3726037.947 9
 89 11 12 15 28 59.0800000  0  4G13G12G 3G 9
  21359976.138    21359982.854   -42984331.550 9  21138532.696 9
  21123625.933    21123632.532   -86195724.003 9 114359177.111 9
  21543155.632    21543162.143   -87015911.723 8  84372765.338 8
  24174346.964    24174358.156    -5138974.626 8   3822434.729 9
 89 11 12 15 29 29.0800000  0  4G13G12G 3G 9
  21368210.563    21368218.296   -42941058.056 9  21172252.181 9
  21135164.392    21135170.984   -86135089.837 9 114406424.405 9
  21537707.686    21537714.249   -87044542.399 9  84350455.655 9
  24197906.759    24197917.796    -5015171.101 8   3918904.673 9
 89 11 12 15 29 59.0800000  0  4G13G12G 3G 9
  21376466.966    21376475.672   -42897669.127 9  21206061.615 9
  21146806.078    21146812.570   -86073914.945 9 114454093.048 9
  21532299.665    21532306.053   -87072964.592 9  84328308.453 8
  24221482.676    24221493.134    -4891276.949 8   4015445.227 9
 89 11 12 15 30 29.0800000  0  4G13G12G 3G 9
  21384745.664    21384753.440   -42854165.089 9  21239960.753 8
  21158549.588    21158556.136   -86012201.887 9 114502181.033 9
  21526930.219    21526935.540   -87101178.915 9  84306323.210 8
  24245077.524    24245088.094    -4767295.221 9   4112054.037 8
 89 11 12 15 30 59.0800000  0  4G13G12G 3G 9
  21393046.226    21393053.099   -42810547.281 9  21273948.548 9
  21170395.602    21170402.379   -85949952.621 9 114550686.840 9
  21521600.900    21521607.487   -87129186.073 9  84284499.377 9
  24268687.173    24268694.462    -4643229.187 9   4208728.538 8
 89 11 12 15 31 29.0800000  0  4G13G12G 3G 9
  21401368.080    21401376.127   -42766816.747 9  21308024.155 9
  21182342.324    21182349.030   -85887169.775 9 114599608.432 9
  21516311.209    21516317.131   -87156986.471 9  84262836.681 8
  24292312.304    24292320.842    -4519081.874 9   4305466.331 8
 89 11 12 15 31 59.0800000  0  4G13G12G 3G 9
  21409710.482    21409719.058   -42722974.745 9  21342186.639 8
  21194391.242    21194397.591   -85823855.737 9 114648943.923 9
  21511059.986    21511066.701   -87184581.300 8  84241334.144 8
  24315950.546    24315962.153    -4394856.515 8   4402264.957 8
 89 11 12 15 32 29.0800000  0  4G13G12G 3G 9
  21418075.177    21418081.593   -42679022.250 9  21376435.219 8
  21206539.630    21206547.131   -85760012.306 9 114698691.939 9
  21505847.962    21505854.875   -87211970.913 9  84219991.516 9
  24339603.164    24339615.179    -4270556.441 8   4499121.797 8
 89 11 12 15 32 59.0800000  0  4G13G12G 3G 9
  21426459.906    21426467.280   -42634960.290 9  21410769.088 9
  21218789.292    21218797.073   -85695641.911 9 114748850.573 9
  21500674.931    21500681.358   -87239155.926 9  84198808.317 8
  24363269.757    24363282.576    -4146184.642 7   4596034.515 8
 89 11 12 15 33 29.0800000  0  4G13G12G 3G 9
  21434865.296    21434872.269   -42590789.736 9  21445187.560 8
  21231138.640    21231145.495   -85630746.772 9 114799418.096 8
  21495540.421    21495546.093   -87266137.488 9  84177783.651 9
  24386951.668    24386962.832    -4021744.295 8   4693000.658 8
 89 11 12 15 33 59.0800000  0  4G13G12G 3G 9
  21443290.720    21443299.053   -42546511.666 9  21479689.832 8
  21243587.063    21243594.141   -85565329.439 9 114850392.524 9
  21490445.307    21490450.746   -87292915.886 9  84156917.295 9
  24410645.861    24410655.845    -3897238.530 9   4790017.767 9
 89 11 12 15 34 29.0800000  0  4G13G12G 3G 9
  21451736.692    21451745.282   -42502126.926 9  21514275.212 7
  21256134.621    21256141.342   -85499392.380 9 114901771.937 9
  21485388.549    21485393.527   -87319491.938 9  84136208.614 8
  24434350.707    24434360.440    -3772670.521 9   4887083.347 9
 89 11 12 15 34 59.0800000  0  4G13G12G 3G 9
  21460203.413    21460210.959   -42457636.614 9  21548942.855 8
  21268780.812    21268786.918   -85432938.426 9 114953554.119 9
  21480368.812    21480375.238   -87345866.498 9  84115656.946 8
  24458064.365    24458076.574    -3648043.513 9   4984194.902 9
 89 11 12 15 35 29.0800000  0  4G13G12G 3G 9
  21468689.622    21468698.455   -42413041.532 9  21583692.129 9
  21281523.891    21281531.090   -85365969.337 9 115005737.698 9
  21475388.497    21475394.308   -87372040.005 9  84095261.926 8
  24481792.129    24481802.910    -3523360.346 8   5081350.219 9
 89 11 12 15 35 59.0800000  0  4G13G12G 3G 9
  21477195.806    21477202.995   -42368343.119 9  21618521.924 9
  21294366.117    21294372.330   -85298487.587 9 115058320.759 9
  21470446.099    21470453.018   -87398013.047 9  84075023.136 9
  24505528.715    24505540.929    -3398624.216 9   5178546.810 9
 89 11 12 15 36 29.0800000  0  4G13G12G 3G 9
  21485721.881    21485729.056   -42323541.579 9  21653432.075 8
  21307303.229    21307311.781   -85230495.622 9 115111301.396 9
  21465541.451    21465547.544   -87423786.493 9  84054939.863 7
  24529276.375    24529286.729    -3273838.247 9   5275782.229 9
 89 11 12 15 36 59.0800000  0  4G13G12G 3G 9
  21494266.472    21494273.761   -42278637.917 9  21688421.810 8
  21320339.446    21320347.097   -85161995.965 9 115164677.620 8
  21460674.933    21460681.825   -87449360.911 9  84035011.687 8
  24553030.986    24553042.302    -3149005.790 9   5373053.877 9
 89 11 12 15 37 29.0800000  0  4G13G12G 3G 9
  21502831.696    21502838.371   -42233633.396 9  21723490.123 9
  21333470.705    21333477.811   -85092991.291 9 115218447.372 8
  21455845.602    21455852.372   -87474737.268 9  84015237.834 8
  24576793.371    24576805.005    -3024129.825 9   5470359.430 8
 89 11 12 15 37 59.0800000  0  4G13G12G 3G 9
  21511413.348    21511421.295   -42188529.196 9  21758636.124 7
  21346696.983    21346705.270   -85023484.083 9 115272608.708 9
  21451055.760    21451060.244   -87499915.926 9  83995618.051 8
  24600565.260    24600577.725    -2899213.421 9   5567696.492 9
 89 11 12 15 38 29.0800000  0  4G13G12G 3G 9
  21520015.891    21520023.910   -42143326.012 9  21793859.245 8
  21360019.076    21360027.192   -84953476.498 9 115327159.947 9
  21446301.392    21446307.009   -87524897.571 9  83976151.778 8
  24624343.026    24624355.331    -2774259.732 9   5665062.601 9
 89 11 12 15 38 59.0800000  0  4G13G12G 3G 9
  21528636.092    21528644.197   -42098024.659 9  21829158.849 8
  21373437.069    21373443.574   -84882971.679 9 115382098.646 8
  21441584.551    21441590.660   -87549683.156 9  83956838.268 8
  24648127.387    24648139.723    -2649271.766 8   5762455.406 9
 89 11 12 15 39 29.0800000  0  4G13G12G 3G 9
  21537275.810    21537283.643   -42052626.475 9  21864533.921 8
  21386946.856    21386953.948   -84811972.310 9 115437422.702 9
  21436905.102    21436911.565   -87574273.248 9  83937677.092 8
  24671919.126    24671931.377    -2524252.884 8   5859872.310 9
 89 11 12 15 39 59.0800000  0  4G13G12G 3G 9
  21545933.157    21545940.661   -42007131.289 9  21899984.564 8
  21400551.433    21400558.319   -84740480.740 9 115493130.289 8
  21432262.489    21432269.443   -87598668.705 9  83918667.595 9
  24695714.930    24695727.086    -2399205.988 8   5957311.032 8
 89 11 12 15 40 29.0800000  0  4G13G12G 3G 9
  21554608.420    21554617.670   -41961540.651 9  21935509.598 9
  21414249.264    21414256.835   -84668499.485 9 115549219.455 8
  21427657.407    21427664.062   -87622869.931 9  83899809.423 7
  24719514.688    24719527.657    -2274134.394 9   6054768.990 9
 89 11 12 15 40 59.0800000  0  4G13G12G 3G 9
  21563302.284    21563310.875   -41915855.505 9  21971108.274 8
  21428039.841    21428046.453   -84596031.159 9 115605688.158 9
  21423089.178    21423095.534   -87646877.795 9  83881101.936 8
  24743320.109    24743332.232    -2149040.937 8   6152243.977 8
 89 11 12 15 41 29.0800000  0  4G13G12G 3G 9
  21572013.721    21572022.827   -41870076.707 9  22006779.930 8
  21441921.981    21441930.454   -84523078.274 9 115662534.431 9
  21418557.564    21418563.211   -87670692.524 9  83862544.934 9
  24767128.092    24767141.143    -2023928.779 7   6249733.557 8
 89 11 12 15 41 59.0800000  0  4G13G12G 3G 9
  21580743.043    21580750.991   -41824205.341 9  22042523.712 9
  21455896.229    21455904.331   -84449643.613 9 115719756.112 9
  21414062.953    21414068.572   -87694315.055 9  83844137.688 9
  24790939.418    24790952.290    -1898800.949 7   6347235.304 8
 89 11 12 15 42 29.0800000  0  4G13G12G 3G 9
  21589489.537    21589498.083   -41778241.907 9  22078339.229 8
  21469962.257    21469969.314   -84375729.716 9 115777351.230 9
  21409603.694    21409609.430   -87717746.279 9  83825879.530 9
  24814754.491    24814766.180    -1773660.656 8   6444746.807 8
 89 11 12 15 42 59.0800000  0  4G13G12G 3G 9
  21598253.601    21598261.577   -41732187.330 9  22114225.781 8
  21484118.734    21484125.482   -84301339.743 9 115835317.309 9
  21405180.236    21405188.171   -87740986.906 9  83807769.871 8
  24838567.316    24838582.937    -1648510.806 7   6542265.696 8
 89 11 12 15 43 29.0800000  0  4G13G12G 3G 9
  21607034.666    21607043.300   -41686042.278 9  22150182.819 9
  21498364.592    21498372.264   -84226476.510 9 115893652.164 9
  21400794.249    21400801.052   -87764037.371 9  83789808.393 8
  24862386.920    24862397.939    -1523354.705 8   6639789.524 7
 89 11 12 15 43 59.0800000  0  4G13G12G 3G 9
  21615832.987    21615841.092   -41639807.296 9  22186209.922 8
  21512700.441    21512707.012   -84151142.359 9 115952353.969 9
  21396444.133    21396450.723   -87786898.090 9  83771994.772 9
  24886201.005    24886215.821    -1398195.028 6   6737316.074 9
 89 11 12 15 44 29.0800000  0  4G13G12G 3G 9
  21624648.336    21624656.356   -41593483.552 9  22222306.221 8
  21527124.264    21527132.801   -84075339.828 9 116011420.741 9
  21392130.033    21392137.235   -87809569.826 9  83754328.397 9
  24910021.015    24910034.089    -1273034.965 8   6834842.948 8
 89 11 12 15 44 59.0800000  0  4G13G12G 3G 9
  21633479.914    21633488.791   -41547071.913 9  22258470.992 8
  21541638.062    21541645.490   -83999071.798 9 116070850.233 9
  21387851.348    21387858.490   -87832053.603 9  83736808.500 8
  24933837.804    24933850.551    -1147877.882 8   6932367.521 7
 89 11 12 15 45 29.0800000  0  4G13G12G 3G 9
  21642328.918    21642337.050   -41500573.655 9  22294703.257 8
  21556239.160    21556247.676   -83922341.682 9 116130639.793 9
  21383608.616    21383615.492   -87854349.934 9  83719434.646 9
  24957651.924    24957667.479    -1022726.822 7   7029887.383 8
 89 11 12 15 45 59.0800000  0  4G13G12G 3G 9
  21651194.006    21651201.766   -41453989.252 9  22331002.668 9
  21570927.753    21570935.597   -83845152.213 9 116190787.293 9
  21379401.345    21379408.163   -87876459.928 9  83702206.003 9
  24981467.041    24981480.905     -897585.014 8   7127400.020 8
 89 11 12 15 46 29.0800000  0  4G13G12G 3G 9
  21660075.062    21660083.654   -41407318.999 9  22367368.962 8
  21585703.488    21585711.482   -83767505.551 9 116251291.046 9
  21375229.391    21375235.527   -87898383.646 9  83685122.505 8
  25005280.267    25005291.683     -772454.845 9   7224903.632 8
 89 11 12 15 46 59.0800000  0  4G13G12G 3G 9
  21668972.031    21668980.650   -41360563.679 9  22403801.552 8
  21600566.624    21600573.265   -83689404.753 9 116312148.672 9
  21371093.458    21371099.763   -87920121.444 9  83668183.882 8
  25029088.347    25029102.537     -647339.555 9   7322395.628 8
 89 11 12 15 47 29.0800000  0  4G13G12G 3G 9
  21677885.370    21677894.447   -41313724.434 9  22440299.522 9
  21615513.877    21615521.476   -83610852.638 9 116373357.964 9
  21366992.003    21366998.368   -87941674.148 9  83651389.473 8
  25052892.636    25052907.252     -522241.923 8   7419873.825 7
 89 11 12 15 47 59.0800000  0  4G13G12G 3G 9
  21686815.021    21686822.754   -41266801.618 9  22476862.623 8
  21630547.920    21630554.799   -83531851.899 9 116434916.836 8
  21362925.703    21362932.466   -87963042.347 9  83634738.842 8
  25076694.794    25076709.599     -397165.248 8   7517335.690 8
 89 11 12 15 48 29.0800000  0  4G13G12G 3G 9
  21695759.641    21695768.174   -41219796.000 9  22513490.250 8
  21645666.146    21645673.274   -83452405.685 9 116496822.827 8
  21358894.170    21358901.575   -87984226.564 9  83618231.588 8
  25100493.232    25100508.057     -272112.424 9   7614779.005 8
 89 11 12 15 48 59.0800000  0  4G13G12G 3G 9
  21704720.370    21704729.048   -41172707.848 9  22550182.187 8
  21660868.611    21660876.463   -83372516.670 9 116559073.855 9
  21354898.009    21354904.489   -88005227.856 9  83601866.853 9
  25124286.989    25124299.991     -147086.355 9   7712201.479 9
 89 11 12 15 49 29.0800000  0  4G13G12G 3G 9
  21713696.584    21713705.033   -41125538.276 9  22586937.557 9
  21676154.698    21676162.856   -83292187.659 9 116621667.730 9
  21350937.030    21350943.000   -88026046.522 9  83585644.435 8
  25148072.619    25148085.824      -22090.117 9   7809600.682 9
 89 11 12 15 49 59.0800000  0  4G13G12G 3G 9
  21722687.765    21722696.128   -41078288.037 9  22623755.801 9
  21691524.150    21691532.087   -83211421.551 9 116684602.209 8
  21347009.905    21347016.019   -88046683.057 9  83569563.936 8
  25171852.117    25171866.328      102873.371 9   7906974.360 9
 89 11 12 15 50 29.0800000  0  4G13G12G 3G 9
  21731694.600    21731702.847   -41030957.665 9  22660636.466 8
  21706976.037    21706984.439   -83130221.625 9 116747874.728 9
  21343117.343    21343123.852   -88067138.178 9  83553624.797 8
  25195624.729    25195637.788      227801.205 9   8004320.235 9
 89 11 12 15 50 59.0800000  0  4G13G12G 3G 9
  21740716.745    21740724.392   -40983547.711 9  22697579.151 9
  21722509.409    21722518.290   -83048590.899 9 116811482.938 9
  21339259.516    21339266.096   -88087412.391 9  83537826.623 8
  25219390.669    25219404.212      352690.497 6   8101636.020 8
 89 11 12 15 51 29.0800000  0  4G13G12G 3G 9
  21749753.830    21749762.979   -40936059.006 9  22734583.194 7
  21738125.351    21738134.718   -82966532.071 9 116875424.718 9
  21335436.603    21335442.480   -88107506.468 9  83522168.820 8
  25243146.173    25243163.307      477538.135 8   8198919.313 9
 89 11 12 15 51 59.0800000  0  4G13G12G 3G 9
  21758805.853    21758813.758   -40888491.944 9  22771648.288 8
  21753821.125    21753830.786   -82884047.966 9 116939697.885 9
  21331646.703    21331652.969   -88127420.830 9  83506651.067 8
  25266895.391    25266913.693      602341.107 6   8296167.805 9
 89 11 12 15 52 29.0800000  0  4G13G12G 3G 9
  21767872.358    21767881.034   -40840847.267 9  22808773.853 8
  21769597.903    21769606.791   -82801141.333 9 117004300.295 9
  21327891.011    21327898.229   -88147155.798 9  83491273.084 8
  25290636.589    25290655.093      727096.680 7   8393379.361 9
 89 11 12 15 52 59.0800000  0  3G13G12G 3
  21776953.859    21776961.420   -40793125.774 9  22845959.287 8
  21785449.672    21785463.412   -82717815.806 1 117069229.115 1
  21324169.061    21324175.198   -88166712.746 9  83476033.834 8
 89 11 12 15 53 29.0800000  0  3G13G12G 3
  21786049.440    21786057.250   -40745328.116 9  22883204.054 8
  21801390.407    21801399.278   -82634074.140 9 117134482.199 9
  21320481.885    21320488.120   -88186091.952 9  83460933.082 8
 89 11 12 15 53 59.0800000  0  3G13G12G 3
  21795158.922    21795167.469   -40697454.656 9  22920507.898 8
  21817404.911    21817413.238   -82549919.158 9 117200057.342 9
  21316827.779    21316833.451   -88205293.682 9  83445970.637 8
 89 11 12 15 54 29.0800000  0  3G13G12G 3
  21804283.578    21804291.668   -40649506.125 9  22957870.226 8
  21833497.514    21833504.967   -82465353.849 9 117265952.221 8
  21313208.101    21313213.826   -88224318.847 9  83431145.757 9
 89 11 12 15 54 59.0800000  0  3G13G12G 3
  21813422.101    21813430.684   -40601482.988 9  22995290.687 8
  21849667.215    21849675.283   -82380381.574 9 117332164.216 8
  21309620.935    21309627.252   -88243167.980 9  83416458.070 8
 89 11 12 15 55 29.0800000  0  3G13G12G 3
  21822574.840    21822584.238   -40553386.356 9  23032768.427 8
  21865913.757    21865922.428   -82295005.222 9 117398691.065 8
  21306067.284    21306074.276   -88261841.383 9  83401907.289 8
 89 11 12 15 55 59.0800000  0  3G13G12G 3
  21831741.430    21831751.065   -40505216.289 9  23070303.376 8
  21882236.795    21882244.091   -82209227.560 9 117465530.646 8
  21302546.818    21302553.609   -88280339.693 9  83387492.964 9
 89 11 12 15 56 29.0800000  0  3G13G12G 3
  21840921.534    21840931.378   -40456973.488 9  23107895.017 8
  21898635.386    21898642.968   -82123052.157 9 117532680.146 9
  21299060.147    21299066.681   -88298663.418 9  83373214.669 9
 89 11 12 15 56 59.0800000  0  3G13G12G 3
  21850116.564    21850125.026   -40408658.819 9  23145542.664 8
  21915109.415    21915118.156   -82036482.052 9 117600137.214 9
  21295607.041    21295613.141   -88316813.363 9  83359071.776 9
 89 11 12 15 57 29.0800000  0  3G13G12G 3
  21859323.462    21859333.250   -40360271.904 9  23183246.592 9
  21931658.052    21931667.137   -81949519.919 9 117667899.748 8
  21292185.807    21292193.073   -88334789.734 9  83345064.170 9
 89 11 12 15 57 59.0800000  0  3G13G12G 3
  21868544.636    21868554.034   -40311813.387 9  23221006.328 8
  21948280.096    21948288.350   -81862168.475 9 117735965.643 8
  21288797.804    21288804.141   -88352592.744 9  83331191.622 8
 89 11 12 15 58 29.0800000  0  3G13G12G 3
  21877779.924    21877788.786   -40263283.948 9  23258821.334 8
  21964976.289    21964985.374   -81774431.152 9 117804332.227 9
  21285443.153    21285450.667   -88370223.469 9  83317453.332 8
 89 11 12 15 58 59.0800000  0  3G13G12G 3
  21887028.678    21887036.960   -40214684.214 9  23296691.115 9
  21981744.829    21981753.142   -81686311.325 9 117872996.868 8
  21282120.687    21282127.225   -88387682.316 9  83303848.977 7
 89 11 12 15 59 29.0800000  0  3G13G12G 3
  21896289.786    21896299.051   -40166014.450 9  23334615.455 8
  21998585.918    21998595.104   -81597812.204 9 117941957.043 9
  21278831.036    21278837.521   -88404969.762 9  83290378.173 8
 89 11 12 15 59 59.0800000  0  3G13G12G 3
  21905565.305    21905574.333   -40117275.888 9  23372593.435 8
  22015498.810    22015507.681   -81508937.047 9 118011210.238 9
  21275574.674    21275580.497   -88422086.605 9  83277040.310 8
 89 11 12 16  0 29.0800000  0  3G13G12G 3
  21914852.236    21914862.471   -40068468.487 9  23410625.036 9
  22032482.590    22032491.446   -81419688.861 9 118080754.107 9
  21272348.731    21272356.141   -88439033.431 9  83263834.917 8
 89 11 12 16  0 59.0800000  0  3G13G12G 3
  21924153.969    21924163.532   -40019592.819 9  23448709.831 8
  22049535.913    22049545.098   -81330070.665 9 118150586.285 8
  21269156.723    21269163.306   -88455810.487 9  83250761.826 9
 89 11 12 16  1 29.0800000  0  3G13G12G 3
  21933467.165    21933476.835   -39970649.912 8  23486847.031 9
  22066659.122    22066669.050   -81240085.871 9 118220704.138 9
  21265996.837    21266003.346   -88472418.518 9  83237820.443 8
 89 11 12 16  1 59.0800000  0  3G13G12G 3
  21942793.530    21942803.350   -39921639.844 9  23525036.567 9
  22083852.130    22083860.585   -81149738.037 9 118291104.862 8
  21262867.850    21262874.959   -88488858.114 9  83225010.287 9
 89 11 12 16  2 29.0800000  0  3G13G12G 3
  21952133.125    21952141.545   -39872563.247 9  23563277.907 9
  22101113.422    22101123.065   -81059030.050 9 118361786.244 8
  21259771.390    21259778.235   -88505130.012 9  83212330.817 8
 89 11 12 16  2 59.0800000  0  3G13G12G 3
  21961483.767    21961493.846   -39823420.363 9  23601570.925 8
  22118442.883    22118451.010   -80967964.819 9 118432745.989 9
  21256707.948    21256713.903   -88521233.901 9  83199782.256 9
 89 11 12 16  3 29.0800000  0  3G13G12G 3
  21970847.960    21970857.967   -39774211.209 9  23639915.582 9
  22135838.711    22135848.783   -80876545.575 9 118503981.574 9
  21253674.482    21253681.512   -88537170.347 9  83187364.169 8
 89 11 12 16  3 59.0800000  0  3G13G12G 3
  21980225.897    21980234.581   -39724936.482 9  23678311.327 8
  22153303.023    22153312.950   -80784775.810 9 118575490.304 9
  21250674.291    21250680.385   -88552940.120 9  83175075.950 8
 89 11 12 16  4 29.0800000  0  3G13G12G 3
  21989614.637    21989623.722   -39675596.483 9  23716757.920 8
  22170832.182    22170840.865   -80692658.588 9 118647269.783 9
  21247705.198    21247711.509   -88568543.573 9  83162917.343 9
 89 11 12 16  4 59.0800000  0  3G13G12G 3
  21999016.340    21999026.421   -39626191.843 9  23755254.897 9
  22188427.565    22188436.579   -80600196.847 9 118719317.720 9
  21244766.382    21244774.029   -88583981.302 9  83150887.848 9
 89 11 12 16  5 29.0800000  0  3G13G12G 3
  22008430.245    22008438.964   -39576722.719 9  23793802.120 8
  22206086.882    22206095.738   -80507393.719 9 118791631.653 9
  21241861.023    21241867.539   -88599253.469 9  83138987.392 9
 89 11 12 16  5 59.0800000  0  3G13G12G 3
  22017856.238    22017866.146   -39527189.343 9  23832399.378 8
  22223811.621    22223820.735   -80414252.684 9 118864208.903 9
  21238985.865    21238993.054   -88614360.796 9  83127215.362 8
 89 11 12 16  6 29.0800000  0  3G13G12G 3
  22027293.358    22027302.550   -39477592.612 9  23871046.032 9
  22241599.549    22241608.433   -80320777.073 9 118937046.870 9
  21236143.151    21236148.873   -88629303.795 9  83115571.384 8
 89 11 12 16  6 59.0800000  0  3G13G12G 3
  22036744.758    22036754.837   -39427932.260 9  23909742.230 9
  22259450.408    22259459.607   -80226969.977 9 119010143.119 8
  21233330.718    21233337.450   -88644082.505 9  83104055.429 8
 89 11 12 16  7 29.0800000  0  3G13G12G 3
  22046206.218    22046216.618   -39378208.628 9  23948487.752 9
  22277364.313    22277372.225   -80132834.863 9 119083494.960 8
  21230548.953    21230556.193   -88658697.471 9  83092667.067 8
 89 11 12 16  7 59.0800000  0  3G13G12G 3
  22055679.833    22055690.663   -39328422.380 9  23987282.049 9
  22295339.347    22295348.348   -80038375.270 9 119157099.653 8
  21227799.259    21227807.489   -88673149.197 9  83081405.881 9
 89 11 12 16  8 29.0800000  0  3G13G12G 3
  22065166.091    22065177.421   -39278573.456 9  24026125.194 8
  22313374.940    22313384.283   -79943594.371 9 119230954.703 8
  21225079.389    21225087.533   -88687438.146 9  83070271.565 9
 89 11 12 16  8 59.0800000  0  3G13G12G 3
  22074663.222    22074674.826   -39228662.275 9  24065016.846 8
  22331472.491    22331482.691   -79848495.246 9 119305057.725 9
  21222392.176    21222399.923   -88701564.497 9  83059263.941 9
 89 11 12 16  9 29.0800000  0  3G13G12G 3
  22084173.491    22084184.614   -39178689.622 9  24103956.396 8
  22349629.338    22349637.994   -79753080.908 9 119379406.365 8
  21219734.701    21219741.837   -88715528.984 9  83048382.441 8
 89 11 12 16  9 59.0800000  0  3G13G12G 3
  22093695.328    22093705.386   -39128655.781 9  24142943.623 8
  22367844.939    22367854.596   -79657355.057 9 119453997.747 8
  21217107.755    21217115.468   -88729331.993 9  83037626.770 7
 89 11 12 16 10 29.0800000  0  3G13G12G 3
  22103228.383    22103238.777   -39078560.603 9  24181978.662 9
  22386121.010    22386130.481   -79561320.868 9 119528829.384 8
  21214512.125    21214520.085   -88742973.844 9  83026996.692 8
 89 11 12 16 10 59.0800000  0  3G13G12G 3
  22112772.908    22112783.702   -39028404.161 9  24221061.433 8
  22404453.146    22404462.931   -79464981.373 9 119603898.915 9
  21211946.246    21211954.837   -88756454.742 9  83016492.019 9
 89 11 12 16 11 29.0800000  0  3G13G12G 3
  22122329.574    22122340.454   -38978187.071 9  24260191.467 9
  22422843.176    22422853.720   -79368340.312 9 119679203.436 9
  21209411.144    21209418.572   -88769775.278 9  83006112.315 8
 89 11 12 16 11 59.0800000  0  3G13G12G 3
  22131896.464    22131908.002   -38927909.354 9  24299368.731 9
  22441290.701    22441299.642   -79271400.988 9 119754740.360 8
  21206906.949    21206915.135   -88782935.582 9  82995857.457 9
 89 11 12 16 12 29.0800000  0  3G13G12G 3
  22141475.859    22141485.866   -38877571.748 9  24338592.669 8
  22459793.858    22459803.416   -79174166.302 9 119830507.439 9
  21204433.701    21204440.415   -88795936.201 9  82985727.050 7
 89 11 12 16 12 59.0800000  0  3G13G12G 3
  22151065.966    22151076.869   -38827173.999 9  24377863.474 8
  22478352.451    22478362.567   -79076640.161 9 119906501.630 8
  21201989.874    21201998.475   -88808777.309 9  82975720.918 9
 89 11 12 16 13 29.0800000  0  3G13G12G 3
  22160667.870    22160678.685   -38776717.090 9  24417180.370 9
  22496967.163    22496976.278   -78978825.689 9 119982720.493 8
  21199578.212    21199583.717   -88821459.836 9  82965838.350 8
 89 11 12 16 13 59.0800000  0  3G13G12G 3
  22170281.279    22170290.372   -38726200.615 9  24456543.710 8
  22515634.248    22515644.334   -78880725.917 9 120059161.676 9
  21197193.688    21197201.676   -88833983.821 9  82956079.352 9
 89 11 12 16 14 29.0800000  0  3G13G12G 3
  22179905.806    22179915.492   -38675624.851 9  24495953.223 8
  22534355.164    22534366.810   -78782344.336 9 120135822.435 9
  21194840.807    21194848.342   -88846349.517 9  82946443.658 8
 89 11 12 16 14 59.0800000  0  3G13G12G 3
  22189540.694    22189551.137   -38624990.126 9  24535408.694 8
  22553129.997    22553140.814   -78683684.542 9 120212699.984 9
  21192517.927    21192525.559   -88858557.139 9  82936931.149 7
 89 11 12 16 15 29.0800000  0  3G13G12G 3
  22199188.350    22199197.271   -38574296.971 9  24574909.651 8
  22571956.973    22571967.103   -78584749.823 9 120289791.762 9
  21190224.749    21190231.921   -88870607.573 9  82927541.117 8
 89 11 12 16 15 59.0800000  0  3G13G12G 3
  22208845.975    22208855.903   -38523545.131 9  24614456.378 9
  22590835.404    22590846.249   -78485543.140 9 120367095.455 9
  21187961.318    21187968.628   -88882500.831 9  82918273.557 8
 89 11 12 16 16 29.0800000  0  3G13G12G 3
  22218514.596    22218524.918   -38472734.502 9  24654048.890 8
  22609765.369    22609776.537   -78386068.079 9 120444608.270 9
  21185728.339    21185735.447   -88894236.812 9  82909128.560 7
 89 11 12 16 16 59.0800000  0  3G13G12G 3
  22228194.643    22228205.357   -38421865.577 9  24693686.844 9
  22628744.875    22628756.366   -78286328.060 9 120522327.554 9
  21183525.306    21183533.726   -88905816.110 8  82900105.638 8
 89 11 12 16 17 29.0800000  0  3G13G12G 3
  22237886.460    22237896.223   -38370938.833 9  24733369.842 8
  22647774.533    22647786.344   -78186326.636 9 120600250.512 8
  21181351.264    21181360.003   -88917239.421 9  82891204.254 8
 89 11 12 16 17 59.0800000  0  3G13G12G 3
  22247587.890    22247599.328   -38319954.201 9  24773097.951 8
  22666853.912    22666864.842   -78086067.000 9 120678374.689 9
  21179207.593    21179214.411   -88928506.701 9  82882424.460 8
 89 11 12 16 18 29.0800000  0  3G13G12G 3
  22257301.299    22257312.358   -38268911.306 9  24812871.453 9
  22685981.059    22685992.913   -77985552.592 9 120756697.375 8
  21177093.488    21177099.374   -88939618.202 9  82873766.055 8
 89 11 12 16 18 59.0800000  0  3G13G12G 3
  22267025.539    22267036.864   -38217810.812 9  24852689.832 8
  22705156.624    22705167.723   -77884786.589 9 120835216.121 9
  21175007.992    21175016.089   -88950574.396 9  82865228.669 8
 89 11 12 16 19 29.0800000  0  3G13G12G 3
  22276760.913    22276772.216   -38166652.879 9  24892552.983 8
  22724379.149    22724390.584   -77783772.337 9 120913928.299 9
  21172951.896    21172960.550   -88961375.561 9  82856812.090 8
 89 11 12 16 19 59.0800000  0  3G13G12G 3
  22286506.912    22286517.319   -38115437.313 9  24932461.023 8
  22743648.110    22743659.270   -77682513.367 9 120992831.154 9
  21170926.794    21170933.659   -88972021.540 9  82848516.424 8
 89 11 12 16 20 29.0800000  0  3G13G12G 3
  22296264.441    22296274.243   -38064164.616 9  24972413.582 9
  22762962.709    22762975.130   -77581013.066 9 121071922.068 9
  21168930.740    21168938.223   -88982512.857 9  82840341.305 8
 89 11 12 16 20 59.0800000  0  3G13G12G 3
  22306032.277    22306043.292   -38012834.730 9  25012410.709 8
  22782323.005    22782335.445   -77479274.816 9 121151198.386 8
  21166963.738    21166970.902   -88992849.975 9  82832286.309 7
 89 11 12 16 21 29.0800000  0  3G13G12G 3
  22315810.734    22315821.315   -37961448.118 9  25052452.044 8
  22801729.399    22801739.711   -77377302.194 8 121230657.336 9
  21165025.897    21165034.523   -89003033.072 9  82824351.359 8
 89 11 12 16 21 59.0800000  0  3G13G12G 3
  22325600.354    22325611.140   -37910004.413 9  25092537.867 8
  22821177.318    22821188.721   -77275098.294 9 121310296.493 9
  21163117.227    21163125.026   -89013062.320 9  82816536.269 8
 89 11 12 16 22 29.0800000  0  3G13G12G 3
  22335400.798    22335411.484   -37858504.118 9  25132667.775 8
  22840670.079    22840681.945   -77172667.092 9 121390112.783 9
  21161238.557    21161245.383   -89022937.842 9  82808840.987 8
 89 11 12 16 22 59.0800000  0  3G13G12G 3
  22345210.952    22345222.454   -37806947.122 9  25172841.857 9
  22860204.559    22860216.255   -77070011.808 9 121470103.666 9
  21159387.295    21159395.796   -89032660.282 9  82801264.979 8
 89 11 12 16 23 29.0800000  0  3G13G12G 3
  22355033.402    22355044.562   -37755333.689 9  25213059.922 8
  22879782.517    22879792.551   -76967135.710 9 121550266.625 9
  21157566.790    21157576.010   -89042229.646 9  82793808.242 7
 89 11 12 16 23 59.0800000  0  3G13G12G 3
  22364866.028    22364877.280   -37703663.497 9  25253322.222 9
  22899398.712    22899411.486   -76864041.903 9 121630599.223 9
  21155775.833    21155782.631   -89051646.074 9  82786470.689 7
 89 11 12 16 24 29.0800000  0  3G13G12G 3
  22374709.937    22374720.317   -37651936.868 9  25293628.493 8
  22919059.260    22919070.870   -76760733.869 9 121711098.749 9
  21154012.242    21154020.740   -89060909.898 9  82779252.036 8
 89 11 12 16 24 59.0800000  0  3G13G12G 3
  22384563.547    22384575.744   -37600153.614 9  25333978.879 8
  22938759.196    22938769.580   -76657215.313 9 121791762.330 9
  21152278.519    21152286.638   -89070021.403 9  82772152.073 7
 89 11 12 16 25 29.0800000  0  3G13G12G 3
  22394428.211    22394440.035   -37548313.467 9  25374373.607 8
  22958496.794    22958508.555   -76553489.557 9 121872587.357 8
  21150573.932    21150581.625   -89078980.676 9  82765170.736 8
 89 11 12 16 25 59.0800000  0  3G13G12G 3
  22404304.730    22404316.133   -37496416.994 9  25414812.212 8
  22978274.173    22978286.373   -76449559.935 9 121953571.225 8
  21148898.264    21148905.961   -89087787.737 9  82758308.001 8
 89 11 12 16 26 29.0800000  0  3G13G12G 3
  22414190.601    22414202.418   -37444464.635 9  25455294.360 9
  22998089.524    22998100.301   -76345429.892 9 122034711.276 9
  21147250.671    21147258.336   -89096443.094 9  82751563.474 8
 89 11 12 16 26 59.0800000  0  3G13G12G 3
  22424088.040    22424099.041   -37392456.189 9  25495820.219 8
  23017943.077    23017953.871   -76241102.670 9 122116004.979 9
  21145632.126    21145641.315   -89104946.928 9  82744937.025 7
 89 11 12 16 27 29.0800000  0  3G13G12G 3
  22433995.195    22434007.355   -37340390.885 9  25536390.377 8
  23037831.824    23037844.546   -76136582.185 9 122197449.254 9
  21144043.899    21144051.098   -89113299.199 9  82738428.668 8
 89 11 12 16 27 59.0800000  0  3G13G12G 3
  22443914.248    22443925.907   -37288269.293 9  25577004.402 7
  23057758.252    23057770.654   -76031871.810 9 122279041.497 9
  21142483.152    21142490.829   -89121499.966 9  82732038.374 8
 89 11 12 16 28 29.0800000  0  3G13G12G 3
  22453843.653    22453855.328   -37236091.298 9  25617662.364 8
  23077719.407    23077732.131   -75926974.994 9 122360779.017 8
  21140951.635    21140959.703   -89129549.751 9  82725765.719 8
 89 11 12 16 28 59.0800000  0  3G13G12G 3
  22463783.612    22463795.309   -37183856.960 9  25658364.238 8
  23097715.104    23097728.543   -75821894.963 9 122442659.300 8
  21139448.426    21139456.005   -89137448.441 9  82719610.794 8
 89 11 12 16 29 29.0800000  0  3G13G12G 3
  22473733.975    22473746.036   -37131566.200 9  25699110.085 9
  23117746.339    23117758.554   -75716634.587 9 122524680.101 8
  21137974.686    21137981.513   -89145196.178 9  82713573.527 8
 89 11 12 16 29 59.0800000  0  3G13G12G 3
  22483696.090    22483707.315   -37079218.733 9  25739900.118 9
  23137811.341    23137823.720   -75611197.761 9 122606838.394 9
  21136528.231    21136536.420   -89152793.072 9  82707653.774 8
 89 11 12 16 30 29.0800000  0  3G13G12G 3
  22493667.695    22493679.634   -37026815.039 9  25780733.961 8
  23157907.278    23157920.842   -75505588.216 9 122689131.277 8
  21135111.630    21135119.431   -89160239.327 9  82701851.404 8
 89 11 12 16 30 59.0800000  0  3G13G12G 3
  22503650.767    22503662.241   -36974354.883 9  25821611.796 8
  23178036.849    23178049.275   -75399808.939 9 122771556.421 9
  21133722.866    21133731.959   -89167535.038 9  82696166.351 8
 89 11 12 16 31 29.0800000  0  3G13G12G 3
  22513645.173    22513655.867   -36921838.246 9  25862533.648 9
  23198197.985    23198209.918   -75293862.953 9 122854111.478 8
  21132364.004    21132371.228   -89174679.995 9  82690598.774 7
 89 11 12 16 31 59.0800000  0  3G13G12G 3
  22523650.037    22523662.098   -36869264.849 8  25903499.717 9
  23218389.436    23218402.524   -75187754.092 9 122936793.419 9
  21131032.465    21131041.750   -89181674.838 9  82685148.170 8
 89 11 12 16 32 29.0800000  0  3G13G12G 3
  22533665.212    22533677.180   -36816634.481 9  25944510.185 8
  23238612.405    23238624.184   -75081485.719 9 123019599.673 8
  21129730.218    21129738.823   -89188519.343 9  82679814.714 8
 89 11 12 16 32 59.0800000  0  3G13G12G 3
  22543690.970    22543702.961   -36763947.364 8  25985564.871 8
  23258864.033    23258876.616   -74975061.223 9 123102527.579 9
  21128456.391    21128464.223   -89195213.497 8  82674598.425 8
 89 11 12 16 33 29.0800000  0  3G13G12G 3
  22553728.474    22553739.683   -36711203.145 8  26026664.059 7
  23279145.488    23279158.476   -74868483.961 9 123185574.522 9
  21127210.901    21127219.035   -89201757.302 8  82669499.270 8
 89 11 12 16 33 59.0800000  0  3G13G12G 3
  22563775.632    22563787.914   -36658401.809 8  26067807.772 9
  23299454.763    23299467.794   -74761757.338 8 123268737.853 9
  21125994.891    21126003.193   -89208151.042 9  82664517.062 8
 89 11 12 16 34 29.0800000  0  3G13G12G 3
  22573833.798    22573846.733   -36605543.241 9  26108996.053 8
  23319792.586    23319805.438   -74654884.633 9 123352014.999 8
  21124806.741    21124815.936   -89214394.607 9  82659651.857 8
 89 11 12 16 34 59.0800000  0  3G13G12G 3
  22583904.328    22583916.232   -36552627.085 9  26150229.200 8
  23340157.314    23340169.604   -74547869.225 9 123435403.339 9
  21123648.430    21123655.489   -89220487.830 8  82654903.811 8
 89 11 12 16 35 29.0800000  0  3G13G12G 3
  22593984.582    22593997.033   -36499653.704 9  26191506.960 9
  23360547.131    23360560.352   -74440714.570 9 123518900.202 8
  21122516.279    21122523.519   -89226431.052 6  82650272.642 8
 89 11 12 16 35 59.0800000  0  3G13G12G 3
  22604077.271    22604088.390   -36446622.782 9  26232829.547 8
  23380965.074    23380977.734   -74333424.394 9 123602502.649 8
  21121413.718    21121421.907   -89232224.489 9  82645758.185 8
 89 11 12 16 36 29.0800000  0  3G13G12G 3
  22614179.180    22614192.102   -36393534.198 9  26274197.062 9
  23401407.848    23401419.463   -74226001.620 9 123686208.425 9
  21120340.259    21120347.671   -89237867.849 9  82641360.661 8
 89 11 12 16 36 59.0800000  0  3G13G12G 3
  22624292.331    22624305.065   -36340387.534 9  26315609.827 8
  23421873.727    23421887.357   -74118449.461 9 123770015.021 9
  21119293.462    21119303.062   -89243360.964 9  82637080.205 7
 89 11 12 16 37 29.0800000  0  3G13G12G 3
  22634417.805    22634430.763   -36287182.640 9  26357067.969 8
                  23442364.212   -74010793.431 9
  21118277.719    21118286.092   -89248704.075 8  82632916.655 8
 89 11 12 16 37 59.0800000  0  3G13G12G 3
  22644552.960    22644566.214   -36233919.627 9  26398571.397 8
  23462878.600    23462890.526   -73902993.973 9 124031802.996 9
  21117290.178    21117298.504   -89253897.135 9  82628870.018 8
 89 11 12 16 38 29.0800000  0  3G13G12G 3
  22654700.352    22654712.536   -36180598.318 9  26440120.246 8
                  23483416.826                   124115895.931 1
  21116330.181    21116339.063   -89258939.996 9  82624940.408 8
 89 11 12 16 38 59.0800000  0  3G13G12G 3
  22664858.423    22664870.751   -36127218.607 9  26481714.596 8
                  23503986.504                   124200059.511 5
  21115399.925    21115408.100   -89263832.585 9  82621127.906 8
 89 11 12 16 39 29.0800000  0  3G13G12G 3
  22675027.827    22675040.232   -36073780.219 9  26523354.655 8
  23524553.654    23524566.651   -73762388.212 9 124284333.158 9
  21114497.190    21114505.460   -89268575.144 9  82617432.300 7
 89 11 12 16 39 59.0800000  0  3G13G12G 3
  22685207.366    22685220.998   -36020282.876 9  26565040.661 8
  23545154.074    23545169.248   -73654132.451 3 124368687.994 1
  21113623.075    21113631.718   -89273167.684 9  82613853.617 8
 89 11 12 16 40 29.0800000  0  3G13G12G 3
  22695399.406    22695412.804   -35966726.029 9  26606773.029 8
  23565774.607    23565791.508   -73545771.289 1 124453124.941 1
  21112778.707    21112787.302   -89277609.637 9  82610392.244 8
 89 11 12 16 40 59.0800000  0  3G13G12G 3
  22705602.204    22705615.598   -35913109.860 9  26648551.624 8
  23586415.109    23586428.829   -73437308.118 9 124537641.420 9
  21111961.502    21111969.740   -89281901.318 9  82607047.983 7
 89 11 12 16 41 29.0800000  0  3G13G12G 3
  22715817.061    22715829.599   -35859434.608 9  26690376.239 8
  23607074.417    23607088.202   -73328746.519 9 124622234.551 8
  21111173.168    21111181.421   -89286042.555 8  82603820.937 8
 89 11 12 16 41 59.0800000  0  3G13G12G 3
  22726042.346    22726055.175   -35805699.567 9  26732247.463 8
  23627750.800    23627764.680   -73220089.489 9 124706902.054 9
  21110414.051    21110423.241   -89290033.412 9  82600711.087 8
 89 11 12 16 42 29.0800000  0  3G13G12G 3
  22736280.471    22736292.226   -35751904.210 9  26774165.674 8
  23648446.869    23648458.589   -73111340.095 9 124791641.535 9
  21109683.570    21109693.339   -89293873.796 9  82597718.481 7
 89 11 12 16 42 59.0800000  0  3G13G12G 3
  22746528.170    22746540.870   -35698048.880 9  26816130.610 9
  23669156.033    23669169.668   -73002501.878 9 124876450.235 8
  21108981.519    21108990.551   -89297563.474 9  82594843.307 8
 89 11 12 16 43 29.0800000  0  3G13G12G 3
  22756787.583    22756801.951   -35644133.209 9  26858142.560 8
  23689884.787    23689901.607   -72893578.320 1 124961325.416 1
  21108308.066    21108316.113   -89301102.657 9  82592085.413 8
 89 11 12 16 43 59.0800000  0  3G13G12G 3
  22767059.714    22767072.816   -35590157.174 9  26900201.569 9
  23710629.108    23710641.526   -72784572.610 9 125046264.637 9
  21107663.377    21107672.650   -89304490.912 9  82589445.118 8
 89 11 12 16 44 29.0800000  0  3G13G12G 3
  22777342.389    22777356.262   -35536120.351 9  26942307.928 8
  23731387.707    23731400.493   -72675488.238 8 125131265.126 8
  21107047.767    21107055.867   -89307728.189 9  82586922.460 8
 89 11 12 16 44 59.0800000  0  3G13G12G 3
  22787637.293    22787651.559   -35482022.184 9  26984462.087 9
  23752158.136    23752172.125   -72566328.705 9 125216324.184 9
  21106460.838    21106468.597   -89310814.663 9  82584517.323 8
 89 11 12 16 45 29.0800000  0  3G13G12G 3
  22797943.809    22797957.063   -35427862.707 9  27026664.011 8
  23772946.856    23772959.489   -72457097.190 9 125301439.333 8
  21105901.406    21105910.953   -89313749.884 9  82582230.030 8
 89 11 12 16 45 59.0800000  0  3G13G12G 3
  22808261.658    22808275.479   -35373641.789 9  27068913.837 8
  23793745.046    23793758.881   -72347797.041 9 125386607.965 8
  21105372.426    21105380.041   -89316533.697 9  82580060.733 8
 89 11 12 16 46 29.0800000  0  3G13G12G 3
  22818590.648    22818604.426   -35319359.528 8  27111211.464 9
  23814557.165    23814568.985   -72238431.712 9 125471827.366 9
  21104870.772    21104879.201   -89319166.322 9  82578009.248 7
 89 11 12 16 46 59.0800000  0  3G13G12G 3
  22828932.854    22828946.761   -35265015.191 9  27153557.449 9
  23835380.505    23835396.010   -72129004.468 9 125557095.002 8
  21104399.084    21104407.928   -89321647.468 9  82576075.802 8
 89 11 12 16 47 29.0800000  0  3G13G12G 3
  22839286.505    22839300.337   -35210608.316 8  27195952.140 8
  23856212.387    23856230.455   -72019518.523 9 125642408.373 9
  21103955.927    21103965.373   -89323976.859 9  82574260.607 9
 89 11 12 16 47 59.0800000  0  3G13G12G 3
  22849652.496    22849665.864   -35156138.829 9  27238395.653 9
  23877058.993    23877073.735   -71909977.123 8 125727764.943 8
  21103541.847    21103550.003   -89326154.436 9  82572563.714 7
 89 11 12 16 48 29.0800000  0  3G13G12G 3
  22860029.147    22860042.175   -35101606.852 9  27280887.848 8
  23897917.191    23897929.575   -71800383.883 9 125813161.906 9
  21103156.383    21103164.170   -89328180.127 9  82570985.166 8
 89 11 12 16 48 59.0800000  0  3G13G12G 3
  22870417.958    22870433.361   -35047011.850 9  27323429.165 8
  23918783.395    23918796.707   -71690742.143 9 125898596.676 9
  21102799.196    21102808.544   -89330053.753 8  82569525.120 8
 89 11 12 16 49 29.0800000  0  3G13G12G 3
  22880819.434    22880834.050   -34992353.347 9  27366019.968 8
  23939657.436    23939665.466   -71581055.125 9 125984066.735 9
  21102472.629    21102480.347   -89331774.885 9  82568183.901 8
 89 11 12 16 49 59.0800000  0  3G13G12G 3
  22891233.832    22891247.730   -34937631.189 9  27408660.375 9
  23960536.645    23960550.067   -71471326.029 9 126069569.499 9
  21102173.338    21102182.440   -89333343.627 9  82566961.421 8
 89 11 12 16 50 29.0800000  0  3G13G12G 3
  22901659.032    22901673.264   -34882845.391 8  27451350.349 8
  23981422.245    23981438.512   -71361558.316 9 126155102.409 9
  21101903.782    21101913.042   -89334759.731 9  82565857.893 9
 89 11 12 16 50 59.0800000  0  3G13G12G 3
  22912096.472    22912110.744   -34827995.377 9  27494090.373 9
  24002316.383    24002329.985   -71251754.961 8 126240663.038 9
  21101664.446    21101672.833   -89336022.785 9  82564873.623 9
 89 11 12 16 51 29.0800000  0  3G13G12G 3
  22922546.781    22922562.075   -34773080.468 9  27536880.972 9
  24023218.195    24023236.229   -71141919.307 9 126326248.829 9
  21101452.582    21101462.027   -89337132.839 9  82564008.574 8
 89 11 12 16 51 59.0800000  0  3G13G12G 3
  22933008.781    22933023.691   -34718101.071 9  27579721.818 8
  24044124.431    24044138.766   -71032055.177 9 126411856.831 8
  21101270.395    21101280.657   -89338089.537 8  82563263.010 8
 89 11 12 16 52 29.0800000  0  3G13G12G 3
  22943483.976    22943498.261   -34663056.778 9  27622613.231 8
  24065036.839    24065053.687   -70922165.472 9 126497484.712 9
  21101117.744    21101126.560   -89338892.930 9  82562636.938 8
 89 11 12 16 52 59.0800000  0  3G13G12G 3
  22953972.760    22953985.462   -34607946.683 9  27665555.926 8
  24085950.954    24085968.260   -70812253.511 8 126583129.939 8
  21100994.456    21101003.229   -89339542.321 9  82562130.835 8
 89 11 12 16 53 29.0800000  0  3G13G12G 3
  22964471.045    22964485.610   -34552771.094 9  27708549.652 9
  24106868.687    24106887.240   -70702322.419 9 126668790.055 8
  21100900.958    21100909.850   -89340037.630 9  82561744.824 9
 89 11 12 16 53 59.0800000  0  3G13G12G 3
  22974983.803    22974997.829   -34497529.488 8  27751594.839 8
  24127788.638    24127811.976   -70592375.569 7 126754462.465 8
  21100835.852    21100844.440   -89340378.602 9  82561479.051 8
 89 11 12 16 54 29.0800000  0  3G13G12G 3
  22985509.024    22985522.612   -34442221.639 9  27794691.630 8
  24148718.290    24148733.847   -70482416.144 8 126840144.646 8
  21100799.390    21100807.707   -89340565.069 9  82561333.686 9
 89 11 12 16 54 59.0800000  0  3G13G12G 3
  22996046.685    22996061.161   -34386847.059 8  27837840.415 9
  24169649.520    24169664.757   -70372447.568 8 126925833.966 8
  21100794.155    21100803.126   -89340596.952 9  82561308.762 9
 89 11 12 16 55 29.0800000  0  3G13G12G 3
  23006596.669    23006610.990   -34331404.908 9  27881041.855 9
  24190578.375    24190590.213   -70262472.366 9 127011528.356 7
  21100817.648    21100826.605   -89340473.265 9  82561405.084 8
 89 11 12 16 55 59.0800000  0  3G13G12G 3
  23017160.053    23017173.676   -34275895.174 9  27924295.950 8
  24211505.624    24211518.906   -70152494.525 9 127097224.853 8
  21100870.792    21100880.052   -89340194.182 9  82561622.467 8
 89 11 12 16 56 29.0800000  0  3G13G12G 3
  23027736.266    23027750.481   -34220317.800 9  27967602.754 9
  24232433.126    24232450.850   -70042517.258 9 127182920.799 7
  21100953.613    21100962.072   -89339759.387 9  82561961.196 7
 89 11 12 16 56 59.0800000  0  3G13G12G 3
  23038324.364    23038339.312   -34164671.709 9  28010963.094 8
  24253360.225    24253374.090   -69932543.308 8 127268614.277 7
  21101065.048    21101075.352   -89339168.125 9  82562421.843 7
 89 11 12 16 57 29.0800000  0  3G13G12G 3
  23048928.068    23048942.286   -34108956.487 9  28054377.320 8
  24274284.079    24274302.774   -69822576.198 9 127354302.314 8
  21101208.085    21101217.001   -89338420.400 9  82563004.405 8
 89 11 12 16 57 59.0800000  0  3G13G12G 3
  23059543.391    23059559.180   -34053172.253 9  28097845.326 8
  24295208.056    24295225.637   -69712619.033 8 127439982.677 7
  21101380.538    21101389.984   -89337515.931 9  82563709.104 8
 89 11 12 16 58 29.0800000  0  3G13G12G 3
  23070171.592    23070186.199   -33997318.334 9  28141367.627 7
  24316134.479    24316150.005   -69602675.028 9 127525652.767 8
  21101582.040    21101591.874   -89336454.111 8  82564536.414 8
 89 11 12 16 58 59.0800000  0  3G13G12G 3
  23080814.596    23080828.744   -33941394.356 9  28184944.509 8
  24337053.150    24337068.103   -69492747.180 9 127611310.144 9
  21101815.248    21101823.935   -89335234.916 9  82565486.369 9
 89 11 12 16 59 29.0800000  0  3G13G12G 3
  23091469.023    23091484.303   -33885400.108 9  28228576.122 8
  24357965.231    24357982.413   -69382838.746 9 127696952.485 9
  21102076.818    21102085.708   -89333858.056 9  82566559.165 8
 89 11 12 16 59 59.0800000  0  3G13G12G 3
  23102138.346    23102152.849   -33829335.700 9  28272262.434 8
  24378876.217    24378896.596   -69272953.217 9 127782576.959 8
  21102368.557    21102378.300   -89332323.007 9  82567755.212 8
 89 11 12 17  0 29.0800000  0  3G13G12G 3
  23112821.112    23112836.726   -33773199.846 9  28316004.401 8
  24399785.330    24399802.653   -69163093.283 9 127868181.415 8
  21102691.255    21102700.486   -89330629.322 9  82569074.887 8
